ftp/pub/palmer/observations_modified/2019/September/original_files/AR190919_BASE.txt

Download

Sample DateTime	Unit Id	WS Avg 2min	WD Avg 2min	WGS 10min	WGD 10min	Air Temp	Rel Humidity	Dew Point	Pyranometer	Quantum	Air Pressure	Snow Level	Rainfall	PW Current	Visibility	CBase 1	CBase 2	CBase 3	Vert Vis
2019/09/19 00:00:01	BASE	5.19	79	10.29	92	-1.0	79	-4.1	0	0	973.2	NA	0.0000		9999	2260	0	0	0
2019/09/19 00:01:01	BASE	6.48	61	10.29	92	-0.9	79	-4.1	0	0	973.2	NA	0.0000		9999	2260	0	0	0
2019/09/19 00:02:01	BASE	6.06	53	10.29	92	-0.9	78	-4.2	0	0	973.3	NA	0.0000		9999	2200	0	0	0
2019/09/19 00:03:01	BASE	5.38	56	10.29	92	-0.9	78	-4.2	0	0	973.3	NA	0.0000		9999	2100	0	0	0
2019/09/19 00:04:01	BASE	5.78	68	10.29	92	-1.0	78	-4.4	0	0	973.3	NA	0.0000		9999	2260	0	0	0
2019/09/19 00:05:01	BASE	5.35	80	10.24	99	-1.1	78	-4.5	0	0	973.3	NA	0.0000		9999	2070	0	0	0
2019/09/19 00:06:01	BASE	4.29	94	10.24	99	-1.1	78	-4.5	0	0	973.3	NA	0.0000		9999	2130	0	0	0
2019/09/19 00:07:00	BASE	4.18	101	9.16	38	-1.2	78	-4.6	0	0	973.3	NA	0.0000		9999	1970	0	0	0
2019/09/19 00:08:01	BASE	4.04	100	9.16	38	-1.2	78	-4.5	0	0	973.3	NA	0.0000		9999	2200	0	0	0
2019/09/19 00:09:00	BASE	3.47	105	9.16	38	-1.2	78	-4.5	0	0	973.3	NA	0.0000		9999	2100	0	0	0
2019/09/19 00:10:00	BASE	3.06	107	8.18	58	-1.2	79	-4.5	0	0	973.3	NA	0.0000		9999	2100	0	0	0
2019/09/19 00:11:00	BASE	2.64	104	6.58	72	-1.2	79	-4.4	0	0	973.3	NA	0.0000		9999	2070	0	0	0
2019/09/19 00:12:01	BASE	2.21	119	6.58	72	-1.1	79	-4.3	0	0	973.3	NA	0.0000		9999	2300	0	0	0
2019/09/19 00:13:00	BASE	2.56	154	6.58	72	-1.1	79	-4.3	0	0	973.3	NA	0.0000		9999	1940	0	0	0
2019/09/19 00:14:01	BASE	3.67	170	5.20	75	-1.1	79	-4.3	0	0	973.3	NA	0.0000		9999	1970	0	0	0
2019/09/19 00:15:00	BASE	3.69	170	4.94	95	-1.1	79	-4.3	0	0	973.3	NA	0.0000		9999	2230	0	0	0
2019/09/19 00:16:01	BASE	2.64	165	4.94	95	-1.2	79	-4.3	0	0	973.4	NA	0.0000		9999	2260	0	0	0
2019/09/19 00:17:00	BASE	1.40	157	4.48	169	-1.2	79	-4.3	0	0	973.4	NA	0.0000		9999	2360	0	0	0
2019/09/19 00:18:01	BASE	1.20	148	4.48	169	-1.2	79	-4.3	0	0	973.4	NA	0.0000		9999	2100	0	0	0
2019/09/19 00:19:00	BASE	2.30	165	4.48	169	-1.2	80	-4.3	0	0	973.3	NA	0.0000		9999	1900	0	0	0
2019/09/19 00:20:00	BASE	3.30	182	4.48	169	-1.3	80	-4.3	0	0	973.3	NA	0.0000		9999	2100	0	0	0
2019/09/19 00:21:00	BASE	3.25	170	4.48	169	-1.3	80	-4.3	0	0	973.4	NA	0.0000		9999	2230	0	0	0
2019/09/19 00:22:00	BASE	2.56	150	4.48	169	-1.3	80	-4.3	0	0	973.4	NA	0.0000		9999	2000	0	0	0
2019/09/19 00:23:01	BASE	2.05	129	4.48	169	-1.3	81	-4.2	0	0	973.4	NA	0.0000		9999	2130	0	0	0
2019/09/19 00:24:00	BASE	1.76	109	4.01	186	-1.3	81	-4.1	0	0	973.4	NA	0.0000		9999	2300	0	0	0
2019/09/19 00:25:00	BASE	3.45	100	6.48	108	-1.3	81	-4.0	0	0	973.4	NA	0.0000		9999	2030	0	0	0
2019/09/19 00:26:00	BASE	5.22	99	6.48	108	-1.2	81	-3.9	0	0	973.4	NA	0.0000		9999	1840	0	0	0
2019/09/19 00:27:00	BASE	5.48	90	6.48	108	-1.1	81	-3.9	0	0	973.4	NA	0.0000		9999	2070	0	0	0
2019/09/19 00:28:01	BASE	6.25	86	7.97	97	-1.1	81	-3.9	0	0	973.4	NA	0.0000		9999	2000	0	0	0
2019/09/19 00:29:00	BASE	7.18	99	8.23	111	-1.0	81	-3.9	0	0	973.3	NA	0.0000		9999	2030	0	0	0
2019/09/19 00:30:00	BASE	7.71	110	8.75	114	-1.1	80	-4.0	0	0	973.3	NA	0.0000		9999	1900	0	0	0
2019/09/19 00:31:00	BASE	7.89	114	9.21	111	-1.1	80	-4.1	0	0	973.3	NA	0.0000		9999	2100	0	0	0
2019/09/19 00:32:01	BASE	9.09	112	10.65	107	-1.1	80	-4.1	0	0	973.3	NA	0.0000		9999	1940	0	0	0
2019/09/19 00:33:00	BASE	10.01	108	10.65	103	-1.1	80	-4.2	0	0	973.3	NA	0.0000		9999	1900	0	0	0
2019/09/19 00:34:01	BASE	9.77	107	11.32	112	-1.1	80	-4.2	0	0	973.3	NA	0.0000		9999	1800	0	0	0
2019/09/19 00:35:00	BASE	10.34	109	12.40	112	-1.1	80	-4.2	0	0	973.2	NA	0.0000		9999	1800	0	0	0
2019/09/19 00:36:01	BASE	9.36	108	12.40	112	-1.1	80	-4.1	0	0	973.3	NA	0.0000		9999	1870	0	0	0
2019/09/19 00:37:01	BASE	8.12	104	12.40	112	-1.1	80	-4.2	0	0	973.3	NA	0.0000		9999	2100	0	0	0
2019/09/19 00:38:01	BASE	8.35	100	12.40	112	-1.1	80	-4.2	0	0	973.2	NA	0.0000		9999	1900	0	0	0
2019/09/19 00:39:00	BASE	8.31	96	12.40	112	-1.1	80	-4.2	0	0	973.2	NA	0.0000		9999	2170	0	0	0
2019/09/19 00:40:00	BASE	7.84	89	12.40	112	-1.2	80	-4.2	0	0	973.3	NA	0.0000		9999	2070	0	0	0
2019/09/19 00:41:01	BASE	7.69	83	12.40	112	-1.2	80	-4.3	0	0	973.3	NA	0.0000		9999	2130	0	0	0
2019/09/19 00:42:01	BASE	8.09	90	12.40	112	-1.3	80	-4.3	0	0	973.3	NA	0.0000		9999	1970	0	0	0
2019/09/19 00:43:00	BASE	7.74	103	12.40	112	-1.3	80	-4.3	0	0	973.3	NA	0.0000		9999	2130	0	0	0
2019/09/19 00:44:00	BASE	6.83	103	12.40	112	-1.2	80	-4.2	0	0	973.4	NA	0.0000		9999	2170	0	0	0
2019/09/19 00:45:00	BASE	6.14	98	9.77	103	-1.1	80	-4.1	0	0	973.4	NA	0.0000		9999	2100	0	0	0
2019/09/19 00:46:01	BASE	5.58	93	9.47	109	-1.1	80	-4.1	0	0	973.5	NA	0.0000		9999	2260	0	0	0
2019/09/19 00:47:01	BASE	5.97	98	9.21	102	-1.1	80	-4.1	0	0	973.4	NA	0.0000		9999	2070	0	0	0
2019/09/19 00:48:01	BASE	6.47	109	9.16	99	-1.1	80	-4.1	0	0	973.4	NA	0.0000		9999	2100	0	0	0
2019/09/19 00:49:00	BASE	6.42	119	9.05	100	-1.1	80	-4.1	0	0	973.3	NA	0.0000		9999	2130	0	0	0
2019/09/19 00:50:00	BASE	6.44	129	9.05	100	-1.1	80	-4.1	0	0	973.4	NA	0.0000		9999	2300	0	0	0
2019/09/19 00:51:00	BASE	6.18	126	8.75	103	-1.1	80	-4.2	0	0	973.4	NA	0.0000		9999	2170	0	0	0
2019/09/19 00:52:01	BASE	6.58	127	8.39	110	-1.1	80	-4.2	0	0	973.5	NA	0.0000		9999	2230	0	0	0
2019/09/19 00:53:00	BASE	6.96	135	7.87	137	-1.1	79	-4.2	0	0	973.4	NA	0.0000		9999	2170	0	0	0
2019/09/19 00:54:01	BASE	7.16	134	8.03	134	-1.1	79	-4.2	0	0	973.4	NA	0.0000		9999	2300	0	0	0
2019/09/19 00:55:00	BASE	7.10	132	8.03	134	-1.1	79	-4.3	0	0	973.5	NA	0.0000		9999	2200	0	0	0
2019/09/19 00:56:01	BASE	6.67	138	8.03	134	-1.2	79	-4.3	0	0	973.4	NA	0.0000		9999	2070	2790	0	0
2019/09/19 00:57:00	BASE	6.30	153	8.03	134	-1.2	79	-4.3	0	0	973.4	NA	0.0000		9999	1900	2590	0	0
2019/09/19 00:58:01	BASE	5.98	156	8.03	134	-1.2	79	-4.4	0	0	973.4	NA	0.0000		9999	1970	0	0	0
2019/09/19 00:59:01	BASE	5.12	140	8.03	134	-1.2	79	-4.3	0	0	973.4	NA	0.0000		9999	2200	0	0	0
2019/09/19 01:00:00	BASE	4.30	120	8.03	134	-1.2	79	-4.3	0	0	973.4	NA	0.0000		9999	2130	0	0	0
2019/09/19 01:01:00	BASE	4.35	110	8.03	134	-1.2	80	-4.3	0	0	973.5	NA	0.0000		9999	2000	0	0	0
2019/09/19 01:02:00	BASE	4.23	117	8.03	134	-1.3	80	-4.3	0	0	973.5	NA	0.0000		9999	2130	0	0	0
2019/09/19 01:03:00	BASE	4.16	138	8.03	134	-1.3	80	-4.3	0	0	973.5	NA	0.0000		9999	1970	0	0	0
2019/09/19 01:04:01	BASE	3.70	158	7.41	154	-1.3	80	-4.2	0	0	973.5	NA	0.0000		9999	1900	0	0	0
2019/09/19 01:05:00	BASE	3.48	156	7.41	154	-1.2	80	-4.2	0	0	973.5	NA	0.0000		9999	1870	0	0	0
2019/09/19 01:06:00	BASE	4.05	134	7.41	154	-1.2	80	-4.2	0	0	973.5	NA	0.0000		9999	2000	0	0	0
2019/09/19 01:07:00	BASE	4.48	122	7.41	154	-1.1	80	-4.1	0	0	973.5	NA	0.0000		9999	2100	0	0	0
2019/09/19 01:08:01	BASE	5.18	133	6.22	146	-1.1	80	-4.1	0	0	973.5	NA	0.0000		9999	2130	0	0	0
2019/09/19 01:09:00	BASE	5.96	142	7.05	138	-1.1	80	-4.1	0	0	973.4	NA	0.0000		9999	1710	0	0	0
2019/09/19 01:10:00	BASE	6.13	148	7.05	138	-1.1	80	-4.1	0	0	973.5	NA	0.0000		9999	1870	0	0	0
2019/09/19 01:11:00	BASE	6.01	146	7.05	138	-1.1	80	-4.1	0	0	973.5	NA	0.0000		9999	1900	0	0	0
2019/09/19 01:12:01	BASE	6.62	134	8.85	133	-1.1	80	-4.1	0	0	973.4	NA	0.0000		9999	1970	0	0	0
2019/09/19 01:13:01	BASE	9.02	130	13.38	132	-1.1	80	-4.1	0	0	973.3	NA	0.0000		9999	2030	0	0	0
2019/09/19 01:14:00	BASE	12.45	133	16.05	121	-1.1	80	-4.1	0	0	972.9	NA	0.0000		9999	1610	3540	0	0
2019/09/19 01:15:00	BASE	13.99	128	16.67	131	-0.9	80	-3.9	0	0	972.9	NA	0.0000		9999	1210	1940	0	0
2019/09/19 01:16:00	BASE	10.80	130	16.67	131	-0.7	80	-3.7	0	0	973.1	NA	0.0000	UP	9999	1970	0	0	0
2019/09/19 01:17:00	BASE	5.42	131	16.67	131	-0.5	80	-3.5	0	0	973.4	NA	0.0000	UP	9999	2100	0	0	0
2019/09/19 01:18:00	BASE	3.71	29	16.67	131	-0.3	80	-3.4	0	0	973.5	NA	0.0000	UP	9999	2100	3640	0	0
2019/09/19 01:19:00	BASE	3.76	289	16.67	131	-0.2	79	-3.4	0	0	973.5	NA	0.0000	UP	9999	1940	3380	0	0
2019/09/19 01:20:00	BASE	4.74	200	16.67	131	-0.3	79	-3.6	0	0	973.3	NA	0.0000	UP	9999	1870	0	0	0
2019/09/19 01:21:00	BASE	6.56	166	16.67	131	-0.5	78	-3.8	0	0	973.3	NA	0.0000	UP	9999	2030	0	0	0
2019/09/19 01:22:01	BASE	6.22	163	16.67	131	-0.7	78	-4.1	0	0	973.4	NA	0.0000	UP	9999	2230	3280	0	0
2019/09/19 01:23:00	BASE	5.03	171	16.67	131	-0.8	78	-4.1	0	0	973.4	NA	0.0000	UP	9999	1940	0	0	0
2019/09/19 01:24:01	BASE	4.22	184	16.67	131	-0.9	79	-4.1	0	0	973.5	NA	0.0000	UP	9999	2170	0	0	0
2019/09/19 01:25:00	BASE	4.09	190	10.24	125	-1.0	79	-4.2	0	0	973.5	NA	0.0000	UP	9999	1970	0	0	0
2019/09/19 01:26:00	BASE	4.43	194	8.03	134	-1.0	79	-4.2	0	0	973.5	NA	0.0000	UP	9999	2030	0	0	0
2019/09/19 01:27:00	BASE	4.35	195	7.72	162	-1.0	79	-4.2	0	0	973.5	NA	0.0000	UP	9999	2130	0	0	0
2019/09/19 01:28:00	BASE	4.78	191	7.72	162	-1.1	80	-4.2	0	0	973.4	NA	0.0000	UP	9999	1770	0	0	0
2019/09/19 01:29:00	BASE	5.38	187	7.72	162	-1.2	80	-4.2	0	0	973.4	NA	0.0000	UP	9999	2070	0	0	0
2019/09/19 01:30:00	BASE	5.98	193	7.61	196	-1.2	80	-4.1	0	0	973.4	NA	0.0000	UP	9999	2360	0	0	0
2019/09/19 01:31:00	BASE	5.74	211	7.87	202	-1.1	81	-4.0	0	0	973.4	NA	0.0000	UP	9999	2260	0	0	0
2019/09/19 01:32:00	BASE	3.75	234	7.87	202	-1.0	81	-3.8	0	0	973.5	NA	0.0000	UP	9999	3250	0	0	0
2019/09/19 01:33:00	BASE	3.08	270	7.87	202	-0.8	81	-3.6	0	0	973.5	NA	0.0000	UP	9999	3310	0	0	0
2019/09/19 01:34:01	BASE	1.83	292	7.87	202	-0.7	81	-3.5	0	0	973.5	NA	0.0000	UP	9999	2100	3540	0	0
2019/09/19 01:35:00	BASE	1.18	157	7.87	202	-0.5	81	-3.3	0	0	973.5	NA	0.0000	UP	9999	2100	0	0	0
2019/09/19 01:36:00	BASE	3.54	141	7.87	202	-0.4	81	-3.2	0	0	973.5	NA	0.0000	UP	9999	2330	0	0	0
2019/09/19 01:37:00	BASE	5.86	151	10.39	175	-0.3	81	-3.2	0	0	973.4	NA	0.0000		9999	2260	0	0	0
2019/09/19 01:38:00	BASE	5.27	171	10.39	175	-0.2	81	-3.1	0	0	973.4	NA	0.0000	UP	9999	1940	0	0	0
2019/09/19 01:39:00	BASE	3.86	204	10.39	175	-0.1	81	-3.0	0	0	973.4	NA	0.0000	UP	9999	2030	0	0	0
2019/09/19 01:40:00	BASE	3.43	239	10.39	175	0.1	80	-2.9	0	0	973.4	NA	0.0000	UP	9999	1970	0	0	0
2019/09/19 01:41:00	BASE	4.08	330	10.39	175	0.2	80	-2.9	0	0	973.5	NA	0.0000	UP	9999	2200	3510	0	0
2019/09/19 01:42:00	BASE	7.21	330	12.81	322	0.4	79	-2.8	0	0	973.3	NA	0.0000	UP	9999	2070	0	0	0
2019/09/19 01:43:01	BASE	9.34	306	12.81	322	0.4	78	-2.9	0	0	973.2	NA	0.0000	UP	9999	2200	3150	0	0
2019/09/19 01:44:01	BASE	9.56	303	12.81	322	0.4	78	-3.0	0	0	973.1	NA	0.0000	UP	9999	2170	3020	0	0
2019/09/19 01:45:00	BASE	9.58	298	12.81	322	0.4	77	-3.1	0	0	973.2	NA	0.0000	UP	9999	2070	0	0	0
2019/09/19 01:46:01	BASE	8.67	301	12.81	322	0.3	77	-3.2	0	0	973.3	NA	0.0000	UP	9999	2200	3350	0	0
2019/09/19 01:47:00	BASE	6.60	310	12.81	322	0.3	77	-3.2	0	0	973.3	NA	0.0000	UP	9999	2330	3510	0	0
2019/09/19 01:48:00	BASE	5.13	298	12.81	322	0.2	77	-3.2	0	0	973.3	NA	0.0000	UP	9999	2130	0	0	0
2019/09/19 01:49:00	BASE	4.64	301	12.81	322	0.2	78	-3.2	0	0	973.4	NA	0.0000		9999	1970	0	0	0
2019/09/19 01:50:00	BASE	4.89	327	12.81	322	0.3	78	-3.2	0	0	973.4	NA	0.0000		9999	2330	3250	0	0
2019/09/19 01:51:00	BASE	3.94	348	12.81	322	0.3	78	-3.2	0	0	973.4	NA	0.0000		9999	3310	0	0	0
2019/09/19 01:52:00	BASE	2.45	324	11.11	294	0.3	78	-3.2	0	0	973.3	NA	0.0000		9999	2000	2890	0	0
2019/09/19 01:53:00	BASE	3.24	265	11.11	294	0.3	78	-3.2	0	0	973.3	NA	0.0000		9999	2330	0	0	0
2019/09/19 01:54:00	BASE	4.38	250	10.39	332	0.3	77	-3.2	0	0	973.3	NA	0.0000		9999	2400	0	0	0
2019/09/19 01:55:00	BASE	3.83	253	10.39	332	0.3	77	-3.2	0	0	973.4	NA	0.0000		9999	3510	0	0	0
2019/09/19 01:56:00	BASE	4.53	254	8.44	246	0.4	77	-3.2	0	0	973.2	NA	0.0000		9999	2130	3410	0	0
2019/09/19 01:57:01	BASE	7.15	243	9.31	245	0.3	77	-3.2	0	0	973.2	NA	0.0000		9999	2070	0	0	0
2019/09/19 01:58:01	BASE	7.43	232	9.31	245	0.3	77	-3.2	0	0	973.3	NA	0.0000		9999	2360	0	0	0
2019/09/19 01:59:00	BASE	4.78	237	9.31	245	0.3	77	-3.2	0	0	973.3	NA	0.0000		9999	2200	0	0	0
2019/09/19 02:00:00	BASE	3.99	254	9.31	245	0.3	77	-3.2	0	0	973.2	NA	0.0000		9999	2200	3540	0	0
2019/09/19 02:01:00	BASE	4.35	255	9.31	245	0.3	77	-3.3	0	0	973.3	NA	0.0000		9999	2330	3310	0	0
2019/09/19 02:02:00	BASE	2.92	247	9.31	245	0.3	77	-3.3	0	0	973.4	NA	0.0000		9999	2330	0	0	0
2019/09/19 02:03:00	BASE	2.89	228	9.31	245	0.3	77	-3.3	0	0	973.4	NA	0.0000		9999	2400	0	0	0
2019/09/19 02:04:00	BASE	4.79	211	9.31	245	0.2	77	-3.4	0	0	973.4	NA	0.0000		9999	2360	0	0	0
2019/09/19 02:05:00	BASE	6.80	205	9.31	245	0.1	77	-3.5	0	0	973.3	NA	0.0000		9999	2300	0	0	0
2019/09/19 02:06:00	BASE	7.43	203	9.31	245	-0.1	77	-3.6	0	0	973.3	NA	0.0000		9999	2230	0	0	0
2019/09/19 02:07:00	BASE	7.63	202	8.90	192	-0.3	77	-3.7	0	0	973.4	NA	0.0000		9999	2360	0	0	0
2019/09/19 02:08:00	BASE	7.77	192	8.90	192	-0.5	78	-3.9	0	0	973.4	NA	0.0000		9999	2330	0	0	0
2019/09/19 02:09:00	BASE	7.31	176	8.90	192	-0.7	79	-3.9	0	0	973.4	NA	0.0000	UP	9999	2130	3450	0	0
2019/09/19 02:10:00	BASE	7.37	161	8.90	192	-0.8	80	-3.9	0	0	973.4	NA	0.0000	UP	9999	2070	0	0	0
2019/09/19 02:11:00	BASE	7.00	155	8.90	150	-0.9	81	-3.8	0	0	973.4	NA	0.0000	UP	9999	2070	0	0	0
2019/09/19 02:12:00	BASE	5.51	176	8.90	150	-0.9	81	-3.7	0	0	973.4	NA	0.0000	UP	9999	2000	0	0	0
2019/09/19 02:13:00	BASE	4.06	197	8.90	150	-0.9	82	-3.6	0	0	973.5	NA	0.0000	UP	9999	2070	0	0	0
2019/09/19 02:14:00	BASE	3.28	193	8.90	150	-0.9	82	-3.5	0	0	973.5	NA	0.0000	UP	9999	2170	0	0	0
2019/09/19 02:15:00	BASE	3.94	196	8.90	150	-0.9	83	-3.5	0	0	973.4	NA	0.0000	UP	9999	3540	0	0	0
2019/09/19 02:16:00	BASE	5.46	208	8.90	150	-0.8	83	-3.3	0	0	973.3	NA	0.0000	UP	9999	1740	3580	0	0
2019/09/19 02:17:00	BASE	6.54	211	8.90	150	-0.8	83	-3.3	0	0	973.3	NA	0.0000	UP	9999	1940	0	0	0
2019/09/19 02:18:00	BASE	7.31	207	8.90	150	-0.8	83	-3.3	0	0	973.3	NA	0.0000	UP	9999	2230	0	0	0
2019/09/19 02:19:00	BASE	7.91	205	9.00	204	-0.9	83	-3.3	0	0	973.3	NA	0.0000	UP	9999	2260	0	0	0
2019/09/19 02:20:00	BASE	9.70	207	12.35	208	-0.9	84	-3.3	0	0	973.1	NA	0.0000	UP	9999	3350	0	0	0
2019/09/19 02:21:00	BASE	10.98	206	12.35	208	-1.0	84	-3.4	0	0	973.2	NA	0.0000	UP	9999	1840	0	0	0
2019/09/19 02:22:00	BASE	9.93	210	12.35	208	-1.0	84	-3.4	0	0	973.2	NA	0.0000	UP	9999	1970	0	0	0
2019/09/19 02:23:00	BASE	8.56	208	12.35	208	-1.1	85	-3.3	0	0	973.4	NA	0.0000		9999	2030	0	0	0
2019/09/19 02:24:00	BASE	7.19	200	12.35	208	-1.1	85	-3.3	0	0	973.4	NA	0.0000	UP	9999	2100	0	0	0
2019/09/19 02:25:00	BASE	6.10	199	12.35	208	-1.1	85	-3.3	0	0	973.4	NA	0.0000	UP	6000	2130	0	0	0
2019/09/19 02:26:01	BASE	6.19	195	12.35	208	-1.1	86	-3.2	0	0	973.4	NA	0.0000	UP	8000	2200	3510	0	0
2019/09/19 02:27:00	BASE	6.67	191	12.35	208	-1.1	86	-3.1	0	0	973.3	NA	0.0000	UP	9999	2130	3050	0	0
2019/09/19 02:28:00	BASE	6.77	181	12.35	208	-1.1	86	-3.1	0	0	973.3	NA	0.0000	UP	9999	2030	0	0	0
2019/09/19 02:29:00	BASE	5.81	161	12.35	208	-1.0	87	-3.0	0	0	973.4	NA	0.0000	UP	9999	2100	0	0	0
2019/09/19 02:30:00	BASE	4.30	152	11.78	211	-1.0	87	-3.0	0	0	973.4	NA	0.0000	UP	9999	2070	0	0	0
2019/09/19 02:31:00	BASE	3.67	169	11.57	215	-1.1	87	-2.9	0	0	973.4	NA	0.0000	UP	9999	2170	3120	0	0
2019/09/19 02:32:00	BASE	3.37	195	9.62	208	-1.0	87	-2.9	0	0	973.4	NA	0.0000	UP	9999	2200	2790	0	0
2019/09/19 02:33:00	BASE	5.04	193	8.64	193	-1.0	88	-2.7	0	0	973.3	NA	0.0000	UP	9999	3410	0	0	0
2019/09/19 02:34:00	BASE	8.03	179	10.13	161	-0.8	88	-2.6	0	0	973.2	NA	0.0000	UP	9999	2130	3350	0	0
2019/09/19 02:35:00	BASE	8.76	175	10.39	174	-0.8	88	-2.4	0	0	973.2	NA	0.0000	UP	9999	2030	0	0	0
2019/09/19 02:36:00	BASE	7.70	182	10.39	174	-0.6	88	-2.3	0	0	973.3	NA	0.0000	UP	9999	2130	0	0	0
2019/09/19 02:37:00	BASE	6.60	186	10.39	174	-0.6	88	-2.3	0	0	973.4	NA	0.0000	UP	9999	2000	0	0	0
2019/09/19 02:38:00	BASE	6.29	184	10.39	174	-0.6	88	-2.4	0	0	973.4	NA	0.0000	UP	9999	2130	2890	0	0
2019/09/19 02:39:00	BASE	7.33	184	10.39	174	-0.7	87	-2.5	0	0	973.3	NA	0.0000	UP	9999	2200	3310	0	0
2019/09/19 02:40:01	BASE	7.45	193	10.39	174	-0.7	87	-2.6	0	0	973.4	NA	0.0000	UP	9999	1970	3380	0	0
2019/09/19 02:41:00	BASE	6.27	204	10.39	174	-0.8	87	-2.6	0	0	973.4	NA	0.0000	UP	9999	3280	0	0	0
2019/09/19 02:42:00	BASE	5.97	203	10.39	174	-0.8	87	-2.6	0	0	973.4	NA	0.0000		9999	2030	0	0	0
2019/09/19 02:43:00	BASE	5.36	193	10.39	174	-0.8	88	-2.6	0	0	973.5	NA	0.0000		9999	2070	0	0	0
2019/09/19 02:44:00	BASE	5.05	182	10.39	174	-0.8	88	-2.6	0	0	973.4	NA	0.0000		9999	2000	3220	0	0
2019/09/19 02:45:00	BASE	6.43	186	9.36	193	-0.8	88	-2.6	0	0	973.3	NA	0.0000		9999	2130	3350	0	0
2019/09/19 02:46:00	BASE	7.52	188	9.36	193	-0.8	88	-2.6	0	0	973.3	NA	0.0000		9999	2130	0	0	0
2019/09/19 02:47:00	BASE	6.47	173	9.36	193	-0.9	88	-2.6	0	0	973.4	NA	0.0000		9999	2170	2990	0	0
2019/09/19 02:48:00	BASE	5.00	154	9.36	193	-1.0	88	-2.6	0	0	973.5	NA	0.0000		9999	2260	3120	0	0
2019/09/19 02:49:00	BASE	4.82	139	8.18	178	-1.1	89	-2.7	0	0	973.5	NA	0.0000		9999	2130	0	0	0
2019/09/19 02:50:00	BASE	4.86	128	8.18	178	-1.2	89	-2.7	0	0	973.5	NA	0.0000		9999	2100	0	0	0
2019/09/19 02:51:00	BASE	4.48	129	8.18	178	-1.2	90	-2.7	0	0	973.4	NA	0.0000		9999	2330	3250	0	0
2019/09/19 02:52:00	BASE	4.73	142	8.18	178	-1.3	90	-2.7	0	0	973.4	NA	0.0000		9999	2130	3180	0	0
2019/09/19 02:53:00	BASE	4.91	147	8.18	178	-1.3	91	-2.6	0	0	973.4	NA	0.0000		9999	2300	0	0	0
2019/09/19 02:54:00	BASE	4.05	146	8.18	178	-1.3	91	-2.5	0	0	973.4	NA	0.0000		9999	2400	0	0	0
2019/09/19 02:55:00	BASE	3.43	146	8.18	178	-1.3	92	-2.5	0	0	973.5	NA	0.0000		9999	2400	0	0	0
2019/09/19 02:56:00	BASE	3.58	153	6.53	167	-1.3	92	-2.5	0	0	973.5	NA	0.0000		9999	2100	0	0	0
2019/09/19 02:57:00	BASE	4.04	165	6.12	150	-1.3	92	-2.4	0	0	973.4	NA	0.0000		9999	2200	0	0	0
2019/09/19 02:58:00	BASE	4.54	171	6.12	150	-1.3	92	-2.4	0	0	973.4	NA	0.0000		9999	2230	0	0	0
2019/09/19 02:59:00	BASE	5.63	171	6.84	164	-1.3	92	-2.4	0	0	973.4	NA	0.0000		9999	2130	0	0	0
2019/09/19 03:00:00	BASE	6.88	166	8.33	166	-1.4	92	-2.4	0	0	973.4	NA	0.0000		9999	2130	0	0	0
2019/09/19 03:01:00	BASE	7.37	166	8.59	157	-1.4	93	-2.4	0	0	973.3	NA	0.0000		9999	2070	0	0	0
2019/09/19 03:02:00	BASE	8.45	165	10.13	170	-1.4	93	-2.3	0	0	973.3	NA	0.0000		9999	2000	0	0	0
2019/09/19 03:03:00	BASE	8.44	170	10.13	170	-1.3	94	-2.2	0	0	973.3	NA	0.0000		9999	2000	0	0	0
2019/09/19 03:04:00	BASE	7.22	162	10.13	170	-1.2	94	-2.0	0	0	973.4	NA	0.0000		9999	2170	0	0	0
2019/09/19 03:05:00	BASE	6.89	147	10.13	170	-1.1	94	-1.9	0	0	973.4	NA	0.0000		9999	1970	0	0	0
2019/09/19 03:06:00	BASE	6.22	144	10.13	170	-1.1	94	-1.9	0	0	973.5	NA	0.0000		9999	1970	0	0	0
2019/09/19 03:07:00	BASE	5.75	143	10.13	170	-1.0	94	-1.8	0	0	973.5	NA	0.0000		9999	2030	0	0	0
2019/09/19 03:08:00	BASE	6.55	133	10.13	170	-1.0	94	-1.9	0	0	973.5	NA	0.0000		9999	2070	0	0	0
2019/09/19 03:09:00	BASE	7.34	125	10.13	170	-1.0	93	-2.0	0	0	973.5	NA	0.0000		9999	2030	0	0	0
2019/09/19 03:10:00	BASE	7.47	129	10.13	170	-1.0	93	-2.0	0	0	973.5	NA	0.0000		9999	1970	0	0	0
2019/09/19 03:11:00	BASE	8.27	135	10.13	170	-1.0	92	-2.1	0	0	973.4	NA	0.0000		9999	2000	0	0	0
2019/09/19 03:12:01	BASE	8.52	141	9.26	141	-1.0	92	-2.2	0	0	973.4	NA	0.0000		9999	2000	0	0	0
2019/09/19 03:13:00	BASE	8.31	139	9.26	141	-1.0	91	-2.3	0	0	973.4	NA	0.0000		9999	1940	0	0	0
2019/09/19 03:14:00	BASE	7.87	134	9.26	141	-1.0	90	-2.5	0	0	973.4	NA	0.0000		9999	2130	0	0	0
2019/09/19 03:15:00	BASE	7.75	134	9.26	141	-1.1	89	-2.6	0	0	973.4	NA	0.0000		9999	2000	0	0	0
2019/09/19 03:16:01	BASE	8.45	138	9.31	138	-1.1	89	-2.7	0	0	973.4	NA	0.0000		9999	1940	0	0	0
2019/09/19 03:17:00	BASE	8.03	133	9.31	138	-1.2	89	-2.7	0	0	973.5	NA	0.0000		9999	2100	0	0	0
2019/09/19 03:18:01	BASE	6.74	126	9.31	138	-1.2	90	-2.7	0	0	973.5	NA	0.0000		9999	1900	0	0	0
2019/09/19 03:19:00	BASE	6.44	130	9.31	138	-1.3	90	-2.7	0	0	973.5	NA	0.0000		9999	2000	0	0	0
2019/09/19 03:20:00	BASE	7.06	142	9.31	138	-1.3	91	-2.6	0	0	973.4	NA	0.0000		9999	2030	0	0	0
2019/09/19 03:21:00	BASE	7.49	153	9.31	138	-1.4	91	-2.6	0	0	973.4	NA	0.0000		9999	2030	0	0	0
2019/09/19 03:22:00	BASE	7.06	160	9.31	138	-1.4	92	-2.5	0	0	973.4	NA	0.0000		9999	2130	0	0	0
2019/09/19 03:23:00	BASE	6.17	161	9.31	138	-1.4	92	-2.5	0	0	973.5	NA	0.0000		9999	2200	0	0	0
2019/09/19 03:24:00	BASE	5.44	153	9.31	138	-1.4	93	-2.4	0	0	973.5	NA	0.0000		9999	2200	0	0	0
2019/09/19 03:25:00	BASE	5.12	143	9.31	138	-1.4	93	-2.4	0	0	973.5	NA	0.0000		9999	2200	0	0	0
2019/09/19 03:26:00	BASE	4.83	141	8.44	133	-1.4	93	-2.4	0	0	973.6	NA	0.0000		9999	2260	0	0	0
2019/09/19 03:27:01	BASE	4.32	139	8.28	151	-1.4	93	-2.4	0	0	973.6	NA	0.0000		9999	2260	0	0	0
2019/09/19 03:28:00	BASE	4.78	139	8.28	151	-1.4	94	-2.3	0	0	973.6	NA	0.0000		9999	2330	0	0	0
2019/09/19 03:29:00	BASE	5.48	148	8.28	151	-1.4	94	-2.3	0	0	973.6	NA	0.0000		9999	2260	0	0	0
2019/09/19 03:30:00	BASE	5.46	156	8.28	151	-1.4	94	-2.3	0	0	973.6	NA	0.0000		9999	2430	0	0	0
2019/09/19 03:31:00	BASE	5.18	157	6.94	162	-1.5	94	-2.3	0	0	973.6	NA	0.0000		9999	2330	0	0	0
2019/09/19 03:32:01	BASE	4.71	158	6.28	162	-1.5	94	-2.4	0	0	973.6	NA	0.0000		9999	2330	0	0	0
2019/09/19 03:33:00	BASE	4.20	163	5.81	153	-1.5	94	-2.4	0	0	973.6	NA	0.0000		9999	2400	0	0	0
2019/09/19 03:34:01	BASE	4.60	169	5.81	153	-1.5	94	-2.3	0	0	973.5	NA	0.0000		9999	3450	0	0	0
2019/09/19 03:35:00	BASE	5.66	173	6.53	174	-1.5	94	-2.3	0	0	973.5	NA	0.0000		9999	2300	0	0	0
2019/09/19 03:36:00	BASE	5.66	168	6.53	174	-1.5	94	-2.3	0	0	973.5	NA	0.0000		9999	2330	0	0	0
2019/09/19 03:37:00	BASE	5.07	166	6.53	174	-1.5	94	-2.3	0	0	973.6	NA	0.0000		9999	2260	0	0	0
2019/09/19 03:38:00	BASE	5.43	174	6.53	174	-1.5	94	-2.3	0	0	973.6	NA	0.0000		9999	2330	0	0	0
2019/09/19 03:39:00	BASE	6.24	181	7.15	179	-1.5	95	-2.3	0	0	973.5	NA	0.0000		9999	2030	0	0	0
2019/09/19 03:40:00	BASE	6.26	180	7.15	179	-1.5	95	-2.2	0	0	973.5	NA	0.0000		9999	1970	0	0	0
2019/09/19 03:41:00	BASE	5.37	177	7.15	179	-1.5	96	-2.2	0	0	973.5	NA	0.0000		9999	2070	0	0	0
2019/09/19 03:42:00	BASE	4.48	177	7.15	179	-1.5	96	-2.1	0	0	973.6	NA	0.0000		9999	2130	0	0	0
2019/09/19 03:43:00	BASE	4.24	176	7.15	179	-1.5	96	-2.0	0	0	973.6	NA	0.0000		9999	2100	3250	0	0
2019/09/19 03:44:00	BASE	3.94	170	7.15	179	-1.5	97	-2.0	0	0	973.6	NA	0.0000		9999	2100	0	0	0
2019/09/19 03:45:00	BASE	3.58	159	7.15	179	-1.5	97	-1.9	0	0	973.6	NA	0.0000		9999	2200	0	0	0
2019/09/19 03:46:00	BASE	3.60	151	7.15	179	-1.5	97	-1.9	0	0	973.6	NA	0.0000		9999	2170	2950	0	0
2019/09/19 03:47:00	BASE	3.67	153	7.15	179	-1.5	98	-1.9	0	0	973.6	NA	0.0000		9999	2170	0	0	0
2019/09/19 03:48:00	BASE	3.77	165	7.15	179	-1.5	98	-1.9	0	0	973.6	NA	0.0000		9999	2100	0	0	0
2019/09/19 03:49:00	BASE	3.66	176	6.58	183	-1.6	98	-1.9	0	0	973.6	NA	0.0000		9999	2030	3220	0	0
2019/09/19 03:50:00	BASE	3.68	176	5.30	174	-1.6	98	-1.9	0	0	973.6	NA	0.0000		9999	2030	0	0	0
2019/09/19 03:51:00	BASE	3.85	177	4.99	184	-1.7	98	-1.9	0	0	973.6	NA	0.0000		9999	2100	0	0	0
2019/09/19 03:52:00	BASE	4.07	182	4.99	184	-1.7	99	-1.9	0	0	973.6	NA	0.0000		9999	2200	0	0	0
2019/09/19 03:53:00	BASE	3.91	184	4.58	179	-1.8	99	-1.9	0	0	973.6	NA	0.0000		9999	2230	0	0	0
2019/09/19 03:54:00	BASE	2.95	180	4.58	179	-1.7	99	-1.8	0	0	973.6	NA	0.0000		9999	2200	3220	0	0
2019/09/19 03:55:00	BASE	2.03	185	4.58	179	-1.7	100	-1.8	0	0	973.6	NA	0.0000		9999	2000	0	0	0
2019/09/19 03:56:00	BASE	1.95	233	4.58	179	-1.7	100	-1.7	0	0	973.6	NA	0.0000		9999	2130	3310	0	0
2019/09/19 03:57:00	BASE	1.98	283	4.58	179	-1.6	100	-1.7	0	0	973.6	NA	0.0000		9999	2230	3350	0	0
2019/09/19 03:58:00	BASE	1.34	290	4.58	179	-1.6	99	-1.7	0	0	973.6	NA	0.0000		9999	2170	3410	0	0
2019/09/19 03:59:00	BASE	0.67	289	4.58	179	-1.7	99	-1.8	0	0	973.6	NA	0.0000		9999	2130	3380	0	0
2019/09/19 04:00:00	BASE	1.06	285	4.58	179	-1.7	99	-1.8	0	0	973.6	NA	0.0000		9999	2200	3450	0	0
2019/09/19 04:03:00	BASE	1.87	273	4.53	190	-1.6	99	-1.8	0	0	973.6	NA	0.0000		9999	2200	3380	0	0
2019/09/19 04:04:00	BASE	2.80	262	4.12	256	-1.5	99	-1.7	0	0	973.6	NA	0.0000		9999	2170	3080	0	0
2019/09/19 04:05:00	BASE	3.26	264	4.12	256	-1.3	99	-1.5	0	0	973.7	NA	0.0000		9999	2070	0	0	0
2019/09/19 04:06:00	BASE	2.66	261	4.12	256	-1.1	99	-1.3	0	0	973.7	NA	0.0000		9999	2130	3280	0	0
2019/09/19 04:07:00	BASE	2.08	241	4.12	256	-0.8	98	-1.2	0	0	973.7	NA	0.0000		9999	1900	0	0	0
2019/09/19 04:08:00	BASE	1.44	218	4.12	256	-0.6	96	-1.1	0	0	973.6	NA	0.0000		9999	2130	3250	0	0
2019/09/19 04:09:00	BASE	0.62	195	4.12	256	-0.4	94	-1.3	0	0	973.6	NA	0.0000		9999	2070	0	0	0
2019/09/19 04:10:00	BASE	2.24	349	5.40	360	-0.3	91	-1.6	0	0	973.7	NA	0.0000		9999	2070	0	0	0
2019/09/19 04:11:00	BASE	4.28	11	5.40	360	-0.5	89	-2.2	0	0	973.7	NA	0.0000		9999	2070	3180	0	0
2019/09/19 04:12:00	BASE	4.38	29	5.40	360	-0.7	87	-2.7	0	0	973.7	NA	0.0000		9999	2030	0	0	0
2019/09/19 04:13:00	BASE	4.31	38	5.40	360	-0.9	86	-3.0	0	0	973.7	NA	0.0000		9999	2000	3350	0	0
2019/09/19 04:14:00	BASE	3.29	28	5.40	360	-1.1	85	-3.2	0	0	973.7	NA	0.0000		9999	3250	0	0	0
2019/09/19 04:15:00	BASE	2.13	12	5.40	360	-1.1	85	-3.3	0	0	973.7	NA	0.0000		9999	1900	3310	0	0
2019/09/19 04:16:00	BASE	1.18	2	5.40	360	-1.0	86	-3.1	0	0	973.7	NA	0.0000		9999	1870	0	0	0
2019/09/19 04:17:00	BASE	0.98	30	5.40	360	-0.8	85	-3.0	0	0	973.7	NA	0.0000		9999	2030	0	0	0
2019/09/19 04:18:00	BASE	1.85	130	5.40	360	-0.7	85	-2.9	0	0	973.7	NA	0.0000		9999	3310	0	0	0
2019/09/19 04:19:00	BASE	2.25	142	5.40	360	-0.5	84	-2.9	0	0	973.7	NA	0.0000		9999	1970	0	0	0
2019/09/19 04:20:00	BASE	1.72	160	5.14	28	-0.4	83	-2.9	0	0	973.7	NA	0.0000		9999	1970	0	0	0
2019/09/19 04:21:00	BASE	0.66	176	5.14	28	-0.4	83	-3.0	0	0	973.7	NA	0.0000		9999	1970	0	0	0
2019/09/19 04:22:00	BASE	1.49	176	5.20	169	-0.3	82	-3.0	0	0	973.6	NA	0.0000		9999	1970	3580	0	0
2019/09/19 04:23:00	BASE	3.59	161	5.50	155	-0.3	82	-3.1	0	0	973.6	NA	0.0000		9999	2070	0	0	0
2019/09/19 04:24:00	BASE	3.69	148	5.50	155	-0.3	81	-3.1	0	0	973.7	NA	0.0000		9999	2030	3610	0	0
2019/09/19 04:25:00	BASE	2.41	152	5.50	155	-0.3	81	-3.2	0	0	973.7	NA	0.0000		9999	1900	0	0	0
2019/09/19 04:26:00	BASE	0.91	144	5.50	155	-0.3	81	-3.3	0	0	973.7	NA	0.0000		9999	2000	0	0	0
2019/09/19 04:27:00	BASE	0.73	108	5.50	155	-0.3	80	-3.3	0	0	973.7	NA	0.0000		9999	1900	3540	0	0
2019/09/19 04:28:00	BASE	2.02	72	5.50	155	-0.4	80	-3.4	0	0	973.7	NA	0.0000		9999	1870	0	0	0
2019/09/19 04:29:00	BASE	2.86	42	5.50	155	-0.5	80	-3.5	0	0	973.7	NA	0.0000		9999	1940	0	0	0
2019/09/19 04:30:00	BASE	2.60	17	5.50	155	-0.6	80	-3.6	0	0	973.7	NA	0.0000		9999	2000	3480	0	0
2019/09/19 04:31:00	BASE	1.31	359	5.50	155	-0.8	81	-3.7	0	0	973.7	NA	0.0000		9999	1840	3380	0	0
2019/09/19 04:32:00	BASE	0.19	33	5.50	155	-0.9	81	-3.7	0	0	973.7	NA	0.0000		9999	1970	3450	0	0
2019/09/19 04:33:00	BASE	1.12	87	4.22	161	-1.0	81	-3.8	0	0	973.7	NA	0.0000		9999	3410	0	0	0
2019/09/19 04:34:00	BASE	2.25	67	3.45	18	-1.0	82	-3.7	0	0	973.7	NA	0.0000		9999	1900	3380	0	0
2019/09/19 04:35:00	BASE	2.26	48	3.45	18	-1.0	82	-3.6	0	0	973.7	NA	0.0000		9999	1840	3350	0	0
2019/09/19 04:36:00	BASE	1.66	30	3.45	18	-1.0	83	-3.5	0	0	973.7	NA	0.0000		9999	3380	0	0	0
2019/09/19 04:37:00	BASE	0.70	58	3.45	18	-0.9	83	-3.4	0	0	973.7	NA	0.0000		9999	3380	0	0	0
2019/09/19 04:38:00	BASE	0.17	144	3.45	18	-0.9	84	-3.3	0	0	973.7	NA	0.0000	UP	9999	2890	0	0	0
2019/09/19 04:39:00	BASE	0.93	224	2.83	61	-0.8	84	-3.2	0	0	973.7	NA	0.0000	UP	9999	3510	0	0	0
2019/09/19 04:40:00	BASE	1.74	244	2.83	61	-0.7	84	-3.0	0	0	973.8	NA	0.0000	UP	9999	3450	0	0	0
2019/09/19 04:41:00	BASE	1.14	248	2.83	61	-0.6	84	-3.0	0	0	973.9	NA	0.0000	UP	9999	3480	0	0	0
2019/09/19 04:42:00	BASE	1.37	276	2.83	61	-0.6	84	-3.0	0	0	973.9	NA	0.0000	UP	9999	3480	0	0	0
2019/09/19 04:43:00	BASE	1.48	263	2.83	61	-0.6	84	-3.0	0	0	973.7	NA	0.0000	UP	9999	3450	0	0	0
2019/09/19 04:44:00	BASE	1.81	220	3.29	219	-0.6	84	-2.9	0	0	973.7	NA	0.0000	UP	9999	3480	0	0	0
2019/09/19 04:45:00	BASE	2.00	183	3.29	219	-0.6	84	-3.0	0	0	973.8	NA	0.0000	UP	9999	3250	0	0	0
2019/09/19 04:46:00	BASE	1.64	94	3.29	219	-0.6	84	-3.0	0	0	973.9	NA	0.0000	UP	9999	3250	0	0	0
2019/09/19 04:47:00	BASE	1.58	83	3.29	219	-0.6	84	-3.0	0	0	973.9	NA	0.0000	UP	9999	3410	0	0	0
2019/09/19 04:48:00	BASE	1.05	80	3.29	219	-0.7	84	-3.1	0	0	973.9	NA	0.0000		9999	3180	0	0	0
2019/09/19 04:49:00	BASE	1.80	27	4.58	11	-0.7	84	-3.1	0	0	973.8	NA	0.0000	UP	9999	3180	0	0	0
2019/09/19 04:50:00	BASE	3.00	358	4.58	11	-0.7	84	-3.1	0	0	973.9	NA	0.0000		9999	3280	0	0	0
2019/09/19 04:51:00	BASE	3.35	9	4.58	11	-0.6	84	-3.0	0	0	973.9	NA	0.0000		9999	3220	0	0	0
2019/09/19 04:52:00	BASE	3.26	12	5.35	25	-0.6	84	-3.0	0	0	973.9	NA	0.0000		9999	3120	0	0	0
2019/09/19 04:53:00	BASE	2.10	318	5.35	25	-0.6	84	-3.0	0	0	973.8	NA	0.0000		9999	3180	0	0	0
2019/09/19 04:54:00	BASE	1.93	279	5.35	25	-0.6	84	-3.0	0	0	973.9	NA	0.0000		9999	3080	0	0	0
2019/09/19 04:55:00	BASE	3.48	346	6.12	34	-0.7	84	-3.1	0	0	973.9	NA	0.0000		9999	3050	0	0	0
2019/09/19 04:56:00	BASE	3.42	43	6.12	34	-0.7	84	-3.1	0	0	973.9	NA	0.0000	UP	9999	3050	0	0	0
2019/09/19 04:57:00	BASE	5.55	43	16.41	28	-0.8	84	-3.1	0	0	973.9	NA	0.0000	UP	9999	3050	0	0	0
2019/09/19 04:58:00	BASE	9.52	34	16.41	28	-0.8	85	-3.1	0	0	973.7	NA	0.0000	UP	9999	5320	0	0	0
2019/09/19 04:59:00	BASE	13.99	31	20.01	21	-0.8	85	-3.1	0	0	973.6	NA	0.0000	UP SQ	9999	5250	0	0	0
2019/09/19 05:00:00	BASE	17.04	27	20.78	34	-0.8	85	-3.0	0	0	973.5	NA	0.0000	UP	9999	5710	0	0	0
2019/09/19 05:01:00	BASE	17.98	29	21.86	41	-0.8	85	-3.0	0	0	973.3	NA	0.0000	UP	9999	5450	0	0	0
2019/09/19 05:02:00	BASE	20.53	26	24.69	23	-0.9	86	-3.0	0	0	973.2	NA	0.0000	UP	9999	4990	0	0	0
2019/09/19 05:03:00	BASE	22.34	22	24.80	22	-0.9	86	-2.9	0	0	973.1	NA	0.0000	UP	9999	4950	0	0	0
2019/09/19 05:04:00	BASE	23.86	22	26.91	23	-0.9	86	-2.9	0	0	973.0	NA	0.0000	UP	9999	5050	0	0	0
2019/09/19 05:05:00	BASE	24.31	22	26.91	23	-1.0	87	-2.9	0	0	973.0	NA	0.0000	UP	9999	4890	0	0	0
2019/09/19 05:06:00	BASE	23.71	22	26.91	23	-1.0	87	-2.9	0	0	973.0	NA	0.0000	UP	9999	5020	0	0	0
2019/09/19 05:07:00	BASE	23.59	21	26.91	23	-1.0	87	-2.9	0	0	972.9	NA	0.0000	UP	9999	5050	0	0	0
2019/09/19 05:08:00	BASE	23.52	20	26.91	23	-1.0	88	-2.8	0	0	972.9	NA	0.0000	UP	9999	5050	0	0	0
2019/09/19 05:09:00	BASE	25.12	20	28.55	22	-1.0	88	-2.8	0	0	972.8	NA	0.0000	UP	9999	4950	0	0	0
2019/09/19 05:10:00	BASE	26.56	21	28.55	22	-1.0	88	-2.7	0	0	972.7	NA	0.0000	UP	9999	4920	0	0	0
2019/09/19 05:11:00	BASE	25.68	22	28.55	22	-1.0	89	-2.7	0	0	972.8	NA	0.0000	UP	9999	4230	0	0	0
2019/09/19 05:12:00	BASE	26.82	21	30.30	24	-1.0	89	-2.6	0	0	972.6	NA	0.0000	UP	9999	4560	0	0	0
2019/09/19 05:13:01	BASE	27.97	20	30.30	24	-1.0	89	-2.5	0	0	972.7	NA	0.0000	UP	9999	4590	0	0	0
2019/09/19 05:14:00	BASE	26.90	20	30.30	24	-1.0	90	-2.5	0	0	972.7	NA	0.0000	UP	9999	4530	0	0	0
2019/09/19 05:15:00	BASE	27.60	21	30.30	24	-1.0	90	-2.5	0	0	972.6	NA	0.0000	UP	9999	4660	0	0	0
2019/09/19 05:16:00	BASE	28.13	22	30.30	24	-1.0	90	-2.4	0	0	972.7	NA	0.0000	UP	9999	4590	0	0	0
2019/09/19 05:17:00	BASE	27.50	21	30.30	24	-1.0	90	-2.3	0	0	972.7	NA	0.0000	UP	9999	4430	0	0	0
2019/09/19 05:18:00	BASE	26.96	21	30.30	24	-0.9	90	-2.3	0	0	972.8	NA	0.0000	UP	9999	4400	0	0	0
2019/09/19 05:19:00	BASE	26.63	21	30.30	24	-0.9	91	-2.3	0	0	972.8	NA	0.0000	UP	9999	4400	0	0	0
2019/09/19 05:20:00	BASE	26.55	21	30.30	24	-0.9	91	-2.2	0	0	972.8	NA	0.0000	UP	9999	4690	0	0	0
2019/09/19 05:21:00	BASE	27.32	21	30.30	24	-0.9	91	-2.2	0	0	972.7	NA	0.0000	UP	9999	4920	0	0	0
2019/09/19 05:22:00	BASE	27.71	21	30.20	20	-0.9	90	-2.3	0	0	972.8	NA	0.0000		9999	5150	0	0	0
2019/09/19 05:23:00	BASE	27.20	21	30.20	20	-0.9	90	-2.2	0	0	972.8	NA	0.0000		9999	5380	0	0	0
2019/09/19 05:24:00	BASE	26.75	19	30.20	20	-0.8	90	-2.3	0	0	972.8	NA	0.0000		9999	5280	0	0	0
2019/09/19 05:25:00	BASE	26.90	19	30.20	20	-0.8	90	-2.3	0	0	972.7	NA	0.0000		9999	5050	0	0	0
2019/09/19 05:26:01	BASE	27.73	20	31.02	17	-0.8	90	-2.2	0	0	972.8	NA	0.0000		9999	4820	0	0	0
2019/09/19 05:27:00	BASE	28.69	20	31.02	17	-0.8	90	-2.3	0	0	972.7	NA	0.0000		9999	4170	0	0	0
2019/09/19 05:28:00	BASE	27.24	20	31.02	17	-0.8	90	-2.3	0	0	972.9	NA	0.0000		9999	4170	4890	0	0
2019/09/19 05:29:00	BASE	25.88	20	31.02	17	-0.9	90	-2.3	0	0	972.8	NA	0.0000		9999	4230	0	0	0
2019/09/19 05:30:00	BASE	27.11	20	31.02	17	-0.9	90	-2.3	0	0	972.8	NA	0.0000		9999	4230	0	0	0
2019/09/19 05:31:00	BASE	27.65	20	31.02	17	-0.9	90	-2.3	0	0	972.8	NA	0.0000		9999	4230	0	0	0
2019/09/19 05:32:00	BASE	27.68	21	31.02	17	-0.9	90	-2.3	0	0	972.9	NA	0.0000		9999	4330	0	0	0
2019/09/19 05:33:00	BASE	27.50	22	31.02	17	-0.9	90	-2.3	0	0	972.9	NA	0.0000		9999	4100	0	0	0
2019/09/19 05:34:01	BASE	27.66	22	31.02	17	-0.9	90	-2.3	0	0	972.9	NA	0.0000		9999	4230	0	0	0
2019/09/19 05:35:01	BASE	28.74	22	31.02	17	-0.9	90	-2.3	0	0	972.8	NA	0.0000		9999	4300	4790	0	0
2019/09/19 05:36:01	BASE	28.87	22	30.87	24	-0.9	90	-2.3	0	0	972.9	NA	0.0000		9999	4790	0	0	0
2019/09/19 05:37:01	BASE	27.51	22	30.87	24	-0.9	90	-2.4	0	0	972.9	NA	0.0000		9999	4760	0	0	0
2019/09/19 05:38:01	BASE	27.06	23	30.87	24	-0.9	90	-2.4	0	0	972.9	NA	0.0000		9999	4270	0	0	0
2019/09/19 05:39:01	BASE	25.66	22	30.87	24	-0.9	90	-2.4	0	0	973.1	NA	0.0000		9999	4200	0	0	0
2019/09/19 05:40:01	BASE	25.33	20	30.87	24	-0.9	90	-2.3	0	0	973.0	NA	0.0000		9999	4040	0	0	0
2019/09/19 05:41:01	BASE	26.23	21	30.87	24	-0.9	90	-2.3	0	0	973.0	NA	0.0000		9999	4000	0	0	0
2019/09/19 05:42:01	BASE	26.84	21	30.87	24	-0.9	90	-2.3	0	0	972.9	NA	0.0000		9999	4000	0	0	0
2019/09/19 05:43:01	BASE	26.64	20	30.87	24	-0.9	90	-2.3	0	0	973.1	NA	0.0000		9999	3870	0	0	0
2019/09/19 05:44:01	BASE	25.38	21	30.87	24	-0.9	90	-2.3	0	0	973.1	NA	0.0000		9999	3970	0	0	0
2019/09/19 05:45:01	BASE	24.37	20	29.89	23	-0.9	90	-2.4	0	0	973.2	NA	0.0000		9999	3810	0	0	0
2019/09/19 05:46:01	BASE	24.27	19	29.89	23	-0.9	90	-2.4	0	0	973.1	NA	0.0000		9999	3970	0	0	0
2019/09/19 05:47:01	BASE	24.49	17	29.63	22	-0.9	89	-2.4	0	0	973.2	NA	0.0000		9999	3380	3810	0	0
2019/09/19 05:48:01	BASE	24.28	18	29.63	22	-0.9	89	-2.4	0	0	973.2	NA	0.0000		9999	3410	3870	0	0
2019/09/19 05:49:01	BASE	24.30	19	29.63	22	-0.9	89	-2.5	0	0	973.2	NA	0.0000		9999	2850	3840	0	0
2019/09/19 05:50:01	BASE	23.37	16	29.63	22	-0.9	89	-2.4	0	0	973.2	NA	0.0000		9999	2990	0	0	0
2019/09/19 05:51:01	BASE	21.99	14	29.63	22	-0.9	89	-2.4	0	0	973.4	NA	0.0000		9999	2950	0	0	0
2019/09/19 05:52:01	BASE	21.33	16	28.96	19	-0.9	89	-2.5	0	0	973.4	NA	0.0000		9999	3410	0	0	0
2019/09/19 05:53:01	BASE	21.46	17	28.40	22	-0.9	89	-2.5	0	0	973.4	NA	0.0000		9999	3380	0	0	0
2019/09/19 05:54:01	BASE	21.98	16	27.78	16	-0.9	88	-2.6	0	0	973.3	NA	0.0000		9999	3580	0	0	0
2019/09/19 05:55:00	BASE	22.96	19	27.78	16	-0.9	88	-2.6	0	0	973.3	NA	0.0000		9999	2920	3410	0	0
2019/09/19 05:56:01	BASE	22.87	20	26.55	20	-0.9	88	-2.6	0	0	973.4	NA	0.0000		9999	2890	0	0	0
2019/09/19 05:57:00	BASE	21.28	19	26.55	20	-0.9	88	-2.6	0	0	973.5	NA	0.0000		9999	2990	0	0	0
2019/09/19 05:58:01	BASE	21.63	22	25.77	21	-0.9	88	-2.6	0	0	973.4	NA	0.0000		9999	2790	0	0	0
2019/09/19 05:59:01	BASE	22.73	23	25.77	21	-0.9	88	-2.6	0	0	973.4	NA	0.0000		9999	3020	0	0	0
2019/09/19 06:00:01	BASE	22.26	21	25.77	21	-0.9	88	-2.6	0	0	973.4	NA	0.0000		9999	3050	0	0	0
2019/09/19 06:01:01	BASE	21.41	20	25.77	21	-0.8	88	-2.6	0	0	973.5	NA	0.0000		9999	3050	0	0	0
2019/09/19 06:02:01	BASE	21.89	20	25.77	21	-0.8	88	-2.6	0	0	973.4	NA	0.0000		9999	3050	0	0	0
2019/09/19 06:03:01	BASE	22.21	20	25.77	21	-0.8	88	-2.6	0	0	973.5	NA	0.0000		9999	3020	0	0	0
2019/09/19 06:04:01	BASE	20.47	23	25.77	21	-0.9	87	-2.7	0	0	973.5	NA	0.0000		9999	3050	3940	0	0
2019/09/19 06:05:01	BASE	22.19	23	26.29	17	-0.9	87	-2.7	0	0	973.3	NA	0.0000		9999	2950	0	0	0
2019/09/19 06:06:01	BASE	24.66	20	27.11	20	-0.9	87	-2.7	0	0	973.3	NA	0.0000		9999	2950	0	0	0
2019/09/19 06:07:01	BASE	23.11	20	27.11	20	-0.9	88	-2.7	0	0	973.4	NA	0.0000		9999	3080	0	0	0
2019/09/19 06:08:01	BASE	21.94	19	27.11	20	-0.9	88	-2.7	0	0	973.4	NA	0.0000		9999	3050	4130	0	0
2019/09/19 06:09:01	BASE	22.70	16	27.11	20	-0.9	88	-2.7	0	0	973.4	NA	0.0000		9999	3020	0	0	0
2019/09/19 06:10:00	BASE	21.71	14	27.11	20	-0.9	87	-2.8	0	0	973.5	NA	0.0000		9999	3050	0	0	0
2019/09/19 06:11:00	BASE	20.47	15	27.11	20	-1.0	87	-2.8	0	0	973.5	NA	0.0000		9999	3080	0	0	0
2019/09/19 06:12:01	BASE	21.95	17	27.11	20	-1.0	87	-2.9	0	0	973.4	NA	0.0000		9999	3280	4200	0	0
2019/09/19 06:13:01	BASE	22.34	17	27.11	20	-1.0	87	-2.9	0	0	973.5	NA	0.0000		9999	3180	0	0	0
2019/09/19 06:14:01	BASE	21.67	17	27.11	20	-1.0	87	-2.9	0	0	973.5	NA	0.0000		9999	3380	4490	0	0
2019/09/19 06:15:00	BASE	22.07	16	27.11	20	-1.0	87	-2.9	0	0	973.5	NA	0.0000		9999	4690	0	0	0
2019/09/19 06:16:00	BASE	22.29	16	24.90	15	-1.0	87	-2.9	0	0	973.5	NA	0.0000		9999	2920	4660	5090	0
2019/09/19 06:17:01	BASE	22.13	16	24.90	15	-1.0	87	-2.9	0	0	973.5	NA	0.0000		9999	2950	5020	0	0
2019/09/19 06:18:01	BASE	21.72	13	24.90	15	-1.0	87	-2.9	0	0	973.6	NA	0.0000		9999	2990	5120	0	0
2019/09/19 06:19:01	BASE	21.22	9	24.74	12	-1.0	87	-2.9	0	0	973.7	NA	0.0000		9999	2950	5090	0	0
2019/09/19 06:20:01	BASE	19.86	1	24.74	12	-1.0	87	-2.9	0	0	973.8	NA	0.0000		9999	2950	5120	0	0
2019/09/19 06:21:01	BASE	17.95	353	24.74	12	-1.1	87	-2.9	0	0	973.9	NA	0.0000		9999	3020	0	0	0
2019/09/19 06:22:01	BASE	16.96	351	24.59	11	-1.1	87	-3.0	0	0	974.0	NA	0.0000		9999	2920	0	0	0
2019/09/19 06:23:01	BASE	16.49	353	24.59	11	-1.1	87	-3.0	0	0	974.0	NA	0.0000		9999	3120	0	0	0
2019/09/19 06:24:01	BASE	15.04	351	24.59	11	-1.1	87	-3.0	0	0	974.1	NA	0.0000		9999	2890	0	0	0
2019/09/19 06:25:01	BASE	13.21	349	24.59	11	-1.2	87	-3.1	0	0	974.2	NA	0.0000		9999	3050	0	0	0
2019/09/19 06:26:01	BASE	12.25	347	24.59	11	-1.2	87	-3.0	0	0	974.2	NA	0.0000		9999	2950	0	0	0
2019/09/19 06:27:01	BASE	10.92	339	23.10	17	-1.2	87	-3.0	0	0	974.3	NA	0.0000		9999	2990	0	0	0
2019/09/19 06:28:01	BASE	10.27	342	21.76	3	-1.3	88	-3.0	0	0	974.2	NA	0.0000		9999	2950	0	0	0
2019/09/19 06:29:00	BASE	12.45	347	20.94	351	-1.3	88	-3.0	0	0	974.2	NA	0.0000		9999	3050	0	0	0
2019/09/19 06:30:00	BASE	15.19	349	19.19	346	-1.3	89	-2.9	0	0	974.1	NA	0.0000		9999	2950	0	0	0
2019/09/19 06:31:01	BASE	16.01	350	19.19	349	-1.3	89	-2.9	0	0	974.1	NA	0.0000		9999	3020	0	0	0
2019/09/19 06:32:01	BASE	15.58	349	19.19	349	-1.3	90	-2.8	0	0	974.1	NA	0.0000		9999	3050	0	0	0
2019/09/19 06:33:00	BASE	14.89	348	19.19	349	-1.3	90	-2.8	0	0	974.1	NA	0.0000		9999	2950	0	0	0
2019/09/19 06:34:01	BASE	14.83	347	19.19	349	-1.3	90	-2.7	0	0	974.2	NA	0.0000		9999	2990	0	0	0
2019/09/19 06:35:00	BASE	14.58	346	19.34	318	-1.3	90	-2.7	0	0	974.2	NA	0.0000		9999	3020	0	0	0
2019/09/19 06:36:01	BASE	14.40	345	19.34	318	-1.3	90	-2.8	0	0	974.1	NA	0.0000		9999	2990	0	0	0
2019/09/19 06:37:01	BASE	14.47	350	19.34	318	-1.4	90	-2.8	0	0	974.2	NA	0.0000		9999	2990	0	0	0
2019/09/19 06:38:01	BASE	13.81	356	19.34	318	-1.4	90	-2.8	0	0	974.3	NA	0.0000		9999	2950	5050	8860	0
2019/09/19 06:39:01	BASE	11.54	350	19.34	318	-1.4	90	-2.8	0	0	974.3	NA	0.0000		9999	2920	4990	0	0
2019/09/19 06:40:01	BASE	8.89	341	19.34	318	-1.4	90	-2.9	0	0	974.4	NA	0.0000		9999	3050	5050	8830	0
2019/09/19 06:41:01	BASE	8.72	334	19.34	318	-1.5	90	-2.9	0	0	974.4	NA	0.0000		9999	2950	8860	0	0
2019/09/19 06:42:01	BASE	9.32	331	19.34	318	-1.6	90	-3.0	0	0	974.4	NA	0.0000		9999	3020	4990	8890	0
2019/09/19 06:43:01	BASE	9.68	334	19.34	318	-1.7	91	-3.0	0	0	974.4	NA	0.0000		9999	3050	4890	8920	0
2019/09/19 06:44:01	BASE	9.82	337	19.34	318	-1.8	91	-3.1	0	0	974.4	NA	0.0000		9999	4890	8860	0	0
2019/09/19 06:45:01	BASE	9.91	339	18.78	353	-1.9	92	-3.0	0	0	974.4	NA	0.0000		9999	8830	0	0	0
2019/09/19 06:46:01	BASE	10.33	339	17.08	345	-2.0	93	-2.9	0	0	974.4	NA	0.0000		9999	8790	0	0	0
2019/09/19 06:47:01	BASE	9.68	341	16.20	8	-2.0	94	-2.8	0	0	974.5	NA	0.0000		9999	8760	9480	0	0
2019/09/19 06:48:01	BASE	9.65	340	12.19	335	-2.0	95	-2.7	0	0	974.5	NA	0.0000		9999	8760	9480	0	0
2019/09/19 06:49:00	BASE	10.70	337	12.19	335	-2.0	96	-2.6	0	0	974.5	NA	0.0000		9999	8790	9510	0	0
2019/09/19 06:50:00	BASE	10.45	338	12.19	335	-2.0	96	-2.6	0	0	974.5	NA	0.0000		9999	8830	9610	0	0
2019/09/19 06:51:01	BASE	10.29	336	12.19	335	-2.0	97	-2.5	0	0	974.5	NA	0.0000		9999	8990	9740	0	0
2019/09/19 06:52:01	BASE	10.50	335	12.19	335	-2.1	97	-2.5	0	0	974.5	NA	0.0000		9999	9740	0	0	0
2019/09/19 06:53:01	BASE	10.45	337	12.19	335	-2.1	97	-2.5	0	0	974.5	NA	0.0000		9999	9780	0	0	0
2019/09/19 06:54:01	BASE	10.06	339	12.19	335	-2.1	98	-2.5	0	0	974.5	NA	0.0000		9999	9780	0	0	0
2019/09/19 06:55:00	BASE	9.31	338	12.19	335	-2.2	98	-2.5	0	0	974.6	NA	0.0000		9999	10110	0	0	0
2019/09/19 06:56:01	BASE	9.43	336	12.19	335	-2.2	98	-2.5	0	0	974.6	NA	0.0000		9999	10170	10660	0	0
2019/09/19 06:57:01	BASE	9.62	336	12.19	335	-2.3	98	-2.5	0	0	974.6	NA	0.0000		9999	10140	0	0	0
2019/09/19 06:58:01	BASE	9.10	335	11.68	338	-2.3	99	-2.5	0	0	974.6	NA	0.0000		9999	10040	0	0	0
2019/09/19 06:59:01	BASE	7.94	335	11.68	338	-2.3	99	-2.5	0	0	974.7	NA	0.0000		9999	10110	0	0	0
2019/09/19 07:00:00	BASE	7.79	338	11.68	338	-2.4	100	-2.5	0	0	974.7	NA	0.0000		9999	10070	0	0	0
2019/09/19 07:01:00	BASE	8.21	340	11.57	340	-2.5	100	-2.5	0	0	974.7	NA	0.0000		9999	3050	10170	0	0
2019/09/19 07:02:01	BASE	7.75	340	11.57	340	-2.5	100	-2.5	0	0	974.7	NA	0.0000		9999	3050	10270	0	0
2019/09/19 07:03:01	BASE	7.65	337	11.42	335	-2.6	100	-2.6	0	0	974.8	NA	0.0000		9999	3180	10240	0	0
2019/09/19 07:04:01	BASE	7.77	337	11.42	335	-2.7	100	-2.7	0	0	974.8	NA	0.0000		9999	4300	10240	0	0
2019/09/19 07:05:00	BASE	7.56	341	10.75	334	-2.7	100	-2.7	0	0	974.8	NA	0.0000		9999	4300	10240	0	0
2019/09/19 07:06:01	BASE	7.51	338	10.65	334	-2.7	100	-2.7	0	0	974.8	NA	0.0000		9999	4360	10240	0	0
2019/09/19 07:07:00	BASE	7.68	336	9.47	331	-2.8	100	-2.8	0	0	974.8	NA	0.0000		9999	4400	10170	0	0
2019/09/19 07:08:00	BASE	7.51	341	8.85	338	-2.7	100	-2.7	0	0	974.8	NA	0.0000		9999	4400	0	0	0
2019/09/19 07:09:00	BASE	7.19	343	8.85	338	-2.7	100	-2.7	0	0	974.8	NA	0.0000		9999	4530	10170	0	0
2019/09/19 07:10:00	BASE	7.39	344	8.59	346	-2.6	100	-2.6	0	0	974.8	NA	0.0000		9999	10200	0	0	0
2019/09/19 07:11:01	BASE	7.75	343	8.33	336	-2.6	100	-2.6	0	0	974.8	NA	0.0000		9999	10240	0	0	0
2019/09/19 07:12:00	BASE	7.91	339	8.59	333	-2.5	100	-2.5	0	0	974.8	NA	0.0000		9999	4330	0	0	0
2019/09/19 07:13:00	BASE	8.13	337	8.95	335	-2.5	100	-2.5	0	0	974.8	NA	0.0000		9999	4230	0	0	0
2019/09/19 07:14:01	BASE	8.16	337	9.21	336	-2.5	100	-2.5	0	0	974.8	NA	0.0000		9999	3540	4130	0	0
2019/09/19 07:15:00	BASE	7.65	338	9.21	336	-2.6	100	-2.6	0	0	974.8	NA	0.0000		9999	3740	4230	0	0
2019/09/19 07:16:00	BASE	7.28	337	9.21	336	-2.7	100	-2.7	0	0	974.8	NA	0.0000		9999	3970	0	0	0
2019/09/19 07:17:00	BASE	6.90	334	9.21	336	-2.7	100	-2.7	0	0	974.9	NA	0.0000		9999	3940	0	0	0
2019/09/19 07:18:00	BASE	6.30	331	9.21	336	-2.8	100	-2.8	0	0	974.9	NA	0.0000		9999	4200	0	0	0
2019/09/19 07:19:00	BASE	6.06	329	9.21	336	-2.9	100	-2.9	0	0	974.9	NA	0.0000		9999	3940	0	0	0
2019/09/19 07:20:00	BASE	5.95	324	9.21	336	-2.9	100	-2.9	0	0	974.9	NA	0.0000		9999	3510	0	0	0
2019/09/19 07:21:00	BASE	5.66	322	9.21	336	-3.0	100	-3.0	0	0	974.9	NA	0.0000		9999	3120	0	0	0
2019/09/19 07:22:01	BASE	5.51	322	9.21	336	-3.0	100	-3.0	0	0	974.9	NA	0.0000		9999	3120	3810	0	0
2019/09/19 07:23:00	BASE	5.92	325	9.21	336	-3.1	100	-3.1	0	0	974.9	NA	0.0000		9999	3610	0	0	0
2019/09/19 07:24:00	BASE	6.11	333	7.97	332	-3.1	100	-3.1	0	0	974.9	NA	0.0000		9999	3900	0	0	0
2019/09/19 07:25:00	BASE	6.09	341	7.97	332	-3.1	100	-3.1	0	0	974.9	NA	0.0000		9999	3870	0	0	0
2019/09/19 07:26:01	BASE	6.34	339	7.46	335	-3.1	100	-3.1	0	0	974.9	NA	0.0000		9999	3670	0	0	0
2019/09/19 07:27:01	BASE	6.66	337	8.08	331	-3.1	100	-3.1	0	0	974.9	NA	0.0000		9999	3610	0	0	0
2019/09/19 07:28:01	BASE	7.15	337	8.08	331	-3.1	100	-3.1	0	0	974.9	NA	0.0000		9999	3740	0	0	0
2019/09/19 07:29:00	BASE	7.86	335	9.05	332	-3.1	100	-3.1	0	0	974.9	NA	0.0000		9999	3740	0	0	0
2019/09/19 07:30:01	BASE	8.06	342	9.05	332	-3.1	100	-3.1	0	0	974.9	NA	0.0000		9999	3670	0	0	0
2019/09/19 07:31:01	BASE	7.57	350	9.05	332	-3.1	100	-3.1	0	0	974.9	NA	0.0000		9999	3580	0	0	0
2019/09/19 07:32:01	BASE	7.03	349	9.05	332	-3.0	100	-3.0	0	0	974.9	NA	0.0000		9999	3610	0	0	0
2019/09/19 07:33:00	BASE	7.42	346	9.05	332	-3.0	100	-3.0	0	0	974.9	NA	0.0000		9999	3770	0	0	0
2019/09/19 07:34:01	BASE	7.58	346	9.05	332	-3.0	100	-3.0	0	0	974.9	NA	0.0000		9999	3580	0	0	0
2019/09/19 07:35:00	BASE	7.00	343	9.05	332	-3.0	100	-3.0	0	0	974.9	NA	0.0000		9999	3120	0	0	0
2019/09/19 07:36:01	BASE	7.10	343	9.05	332	-3.1	100	-3.1	0	0	974.9	NA	0.0000		9999	3380	0	0	0
2019/09/19 07:37:00	BASE	7.59	346	9.05	332	-3.1	100	-3.1	0	0	974.9	NA	0.0000		9999	3670	0	0	0
2019/09/19 07:38:01	BASE	7.67	346	9.05	332	-3.1	100	-3.1	0	0	974.9	NA	0.0000		9999	3810	0	0	0
2019/09/19 07:39:01	BASE	7.45	349	8.95	343	-3.1	100	-3.1	0	0	974.9	NA	0.0000		9999	3870	0	0	0
2019/09/19 07:40:00	BASE	7.24	351	8.90	345	-3.1	100	-3.1	0	0	974.9	NA	0.0000		9999	3840	0	0	0
2019/09/19 07:41:00	BASE	7.06	351	8.90	345	-3.1	100	-3.1	0	0	974.9	NA	0.0000		9999	3710	0	0	0
2019/09/19 07:42:01	BASE	7.28	350	8.90	345	-3.1	100	-3.1	0	0	974.9	NA	0.0000		9999	3670	0	0	0
2019/09/19 07:43:00	BASE	7.49	352	8.64	338	-3.1	100	-3.1	0	0	974.9	NA	0.0000		9999	4000	0	0	0
2019/09/19 07:44:01	BASE	7.29	352	8.64	338	-3.1	100	-3.1	0	0	974.9	NA	0.0000		9999	3640	0	0	0
2019/09/19 07:45:00	BASE	7.17	347	8.64	338	-3.1	100	-3.1	0	0	974.9	NA	0.0000		9999	3610	0	0	0
2019/09/19 07:46:00	BASE	7.17	346	8.64	338	-3.0	100	-3.0	0	0	974.9	NA	0.0000		9999	3670	0	0	0
2019/09/19 07:47:00	BASE	7.18	344	8.39	351	-3.0	100	-3.0	0	0	974.9	NA	0.0000		9999	3710	0	0	0
2019/09/19 07:48:01	BASE	7.20	347	8.39	351	-2.9	100	-2.9	0	0	974.9	NA	0.0000		9999	3640	0	0	0
2019/09/19 07:49:00	BASE	6.85	355	8.39	351	-2.9	100	-2.9	0	0	974.9	NA	0.0000		9999	3640	0	0	0
2019/09/19 07:50:00	BASE	6.43	1	8.39	351	-3.0	100	-3.0	0	0	975.0	NA	0.0000		9999	3540	0	0	0
2019/09/19 07:51:00	BASE	6.57	6	8.39	351	-3.1	100	-3.1	0	0	974.9	NA	0.0000		9999	3540	0	0	0
2019/09/19 07:52:01	BASE	6.86	7	8.08	354	-3.2	100	-3.2	0	0	975.0	NA	0.0000		9999	3510	0	0	0
2019/09/19 07:53:00	BASE	6.97	8	7.82	6	-3.3	100	-3.3	0	0	975.1	NA	0.0000		9999	3410	0	0	0
2019/09/19 07:54:01	BASE	6.73	1	7.82	6	-3.4	100	-3.4	0	0	975.1	NA	0.0000		9999	3310	0	0	0
2019/09/19 07:55:00	BASE	6.43	349	7.82	6	-3.5	100	-3.5	0	0	975.1	NA	0.0000		9999	3450	0	0	0
2019/09/19 07:56:01	BASE	6.43	346	7.82	6	-3.4	100	-3.4	0	0	975.1	NA	0.0000		9999	3080	0	0	0
2019/09/19 07:57:01	BASE	6.46	346	7.82	6	-3.4	100	-3.4	0	0	975.1	NA	0.0000		9999	3250	0	0	0
2019/09/19 07:58:01	BASE	7.16	348	9.11	352	-3.3	100	-3.3	0	0	975.0	NA	0.0000		9999	3280	0	0	0
2019/09/19 07:59:00	BASE	8.45	349	9.98	2	-3.2	100	-3.2	0	0	974.9	NA	0.0000		9999	3450	0	0	0
2019/09/19 08:00:00	BASE	9.01	349	9.98	350	-3.1	100	-3.1	0	0	975.0	NA	0.0000		9999	3310	0	0	0
2019/09/19 08:01:00	BASE	8.95	350	9.98	350	-3.0	100	-3.0	0	0	975.1	NA	0.0000		9999	3540	0	0	0
2019/09/19 08:02:00	BASE	8.78	348	9.98	350	-2.9	100	-2.9	0	0	975.1	NA	0.0000		9999	3350	0	0	0
2019/09/19 08:03:00	BASE	8.40	347	9.98	350	-2.9	100	-2.9	0	0	975.1	NA	0.0000		9999	3410	0	0	0
2019/09/19 08:04:01	BASE	7.63	348	9.98	350	-2.8	100	-2.8	0	0	975.1	NA	0.0000		9999	3150	0	0	0
2019/09/19 08:05:00	BASE	6.94	349	9.98	350	-2.8	100	-2.8	0	0	975.1	NA	0.0000		9999	3080	0	0	0
2019/09/19 08:06:01	BASE	6.65	352	9.98	350	-2.8	100	-2.8	0	0	975.1	NA	0.0000		9999	3180	0	0	0
2019/09/19 08:07:00	BASE	7.38	360	9.98	350	-2.8	100	-2.8	0	0	975.1	NA	0.0000		9999	3150	0	0	0
2019/09/19 08:08:01	BASE	8.66	2	10.08	3	-2.8	100	-2.8	0	0	975.0	NA	0.0000		9999	3280	0	0	0
2019/09/19 08:09:00	BASE	8.78	3	10.08	3	-2.7	100	-2.7	0	0	975.1	NA	0.0000		9999	3280	0	0	0
2019/09/19 08:10:00	BASE	8.78	4	10.08	3	-2.7	100	-2.7	0	0	975.1	NA	0.0000		9999	3410	0	0	0
2019/09/19 08:11:00	BASE	8.67	7	10.08	3	-2.6	100	-2.6	0	0	975.1	NA	0.0000		9999	3410	0	0	0
2019/09/19 08:12:01	BASE	8.71	13	10.44	22	-2.5	100	-2.5	0	0	975.1	NA	0.0000		9999	3180	0	0	0
2019/09/19 08:13:00	BASE	8.83	19	10.44	22	-2.5	100	-2.5	0	0	975.1	NA	0.0000		9999	3080	0	0	0
2019/09/19 08:14:01	BASE	8.77	21	10.91	22	-2.4	100	-2.5	0	0	975.1	NA	0.0000		9999	2950	0	0	0
2019/09/19 08:15:00	BASE	10.12	25	12.35	25	-2.3	99	-2.4	0	0	975.0	NA	0.0000		9999	2790	0	0	0
2019/09/19 08:16:00	BASE	10.91	28	12.35	25	-2.3	99	-2.4	0	0	975.0	NA	0.0000		9999	2790	0	0	0
2019/09/19 08:17:00	BASE	11.10	26	12.35	22	-2.2	98	-2.4	0	0	975.0	NA	0.0000		9999	3150	0	0	0
2019/09/19 08:18:01	BASE	11.27	27	12.35	22	-2.2	98	-2.5	0	0	974.9	NA	0.0000		9999	3180	0	0	0
2019/09/19 08:19:00	BASE	11.28	29	12.55	30	-2.1	97	-2.5	0	0	974.9	NA	0.0000		9999	3120	0	0	0
2019/09/19 08:20:00	BASE	11.25	29	12.55	30	-2.1	97	-2.6	0	0	974.9	NA	0.0000		9999	2990	0	0	0
2019/09/19 08:21:00	BASE	10.65	28	12.55	30	-2.1	96	-2.6	0	0	974.9	NA	0.0000		9999	3120	0	0	0
2019/09/19 08:22:01	BASE	10.57	28	12.55	30	-2.0	96	-2.6	0	0	974.9	NA	0.0000		9999	3080	0	0	0
2019/09/19 08:23:00	BASE	11.13	29	12.76	27	-2.0	95	-2.7	0	0	974.9	NA	0.0000		9999	3050	0	0	0
2019/09/19 08:24:00	BASE	11.36	31	12.81	34	-2.0	95	-2.7	0	0	974.9	NA	0.0000		9999	3020	0	0	0
2019/09/19 08:25:00	BASE	12.23	30	14.56	25	-2.0	94	-2.7	0	0	974.8	NA	0.0000		9999	3020	0	0	0
2019/09/19 08:26:01	BASE	13.26	28	14.56	25	-1.9	94	-2.8	0	0	974.8	NA	0.0000		9999	3120	0	0	0
2019/09/19 08:27:00	BASE	12.65	27	14.56	25	-1.9	94	-2.8	0	0	974.8	NA	0.0000		9999	3150	0	0	0
2019/09/19 08:28:01	BASE	12.50	30	14.56	25	-1.8	93	-2.8	0	0	974.8	NA	0.0000		9999	3480	0	0	0
2019/09/19 08:29:00	BASE	13.02	33	14.87	36	-1.8	93	-2.8	0	0	974.8	NA	0.0000		9999	3150	0	0	0
2019/09/19 08:30:00	BASE	12.84	36	14.87	36	-1.7	92	-2.8	0	0	974.8	NA	0.0000		9999	3220	0	0	0
2019/09/19 08:31:00	BASE	12.80	36	14.92	37	-1.7	92	-2.8	0	0	974.8	NA	0.0000		9999	3280	0	0	0
2019/09/19 08:32:01	BASE	12.75	37	14.92	37	-1.7	92	-2.9	0	0	974.8	NA	0.0000		9999	3180	0	0	0
2019/09/19 08:33:00	BASE	12.60	39	14.92	37	-1.7	91	-2.9	0	0	974.8	NA	0.0000		9999	3080	0	0	0
2019/09/19 08:34:00	BASE	12.61	40	14.92	37	-1.7	91	-3.0	0	0	974.8	NA	0.0000		9999	3180	0	0	0
2019/09/19 08:35:00	BASE	12.13	39	14.92	37	-1.7	90	-3.1	0	0	974.8	NA	0.0000		9999	3180	0	0	0
2019/09/19 08:36:01	BASE	11.77	39	14.92	37	-1.7	90	-3.1	0	0	974.8	NA	0.0000		9999	3150	0	0	0
2019/09/19 08:37:00	BASE	11.31	38	14.92	37	-1.7	90	-3.1	0	0	974.8	NA	0.0000		9999	3150	0	0	0
2019/09/19 08:38:01	BASE	11.62	37	14.92	37	-1.7	90	-3.1	0	0	974.8	NA	0.0000		9999	3280	0	0	0
2019/09/19 08:39:00	BASE	11.96	36	14.92	37	-1.6	90	-3.1	0	0	974.8	NA	0.0000		9999	3180	0	0	0
2019/09/19 08:40:00	BASE	11.61	36	14.92	37	-1.6	89	-3.1	0	0	974.8	NA	0.0000		9999	3280	0	0	0
2019/09/19 08:41:01	BASE	11.58	36	14.51	36	-1.6	89	-3.1	0	0	974.8	NA	0.0000		9999	3250	0	0	0
2019/09/19 08:42:01	BASE	11.84	36	14.51	36	-1.6	89	-3.2	0	0	974.8	NA	0.0000		9999	3250	0	0	0
2019/09/19 08:43:00	BASE	12.27	40	14.51	36	-1.5	89	-3.2	0	0	974.8	NA	0.0000		9999	3220	0	0	0
2019/09/19 08:44:01	BASE	11.99	43	14.20	42	-1.5	88	-3.1	0	0	974.9	NA	0.0000		9999	3150	0	0	0
2019/09/19 08:45:00	BASE	11.85	43	14.20	42	-1.4	88	-3.2	0	0	974.9	NA	0.0000		9999	3310	0	0	0
2019/09/19 08:46:01	BASE	12.89	40	14.92	35	-1.4	87	-3.2	0	0	974.8	NA	0.0000		9999	3410	0	0	0
2019/09/19 08:47:00	BASE	13.60	40	14.92	35	-1.4	87	-3.3	0	0	974.8	NA	0.0000		9999	3280	0	0	0
2019/09/19 08:48:01	BASE	12.54	42	14.92	35	-1.4	87	-3.3	0	0	974.9	NA	0.0000		9999	3280	0	0	0
2019/09/19 08:49:00	BASE	11.84	42	14.92	35	-1.4	86	-3.4	0	0	974.9	NA	0.0000		9999	3220	0	0	0
2019/09/19 08:50:00	BASE	11.70	40	14.92	35	-1.4	86	-3.4	0	0	974.9	NA	0.0000		9999	3310	0	0	0
2019/09/19 08:51:00	BASE	11.65	40	14.92	35	-1.3	86	-3.4	0	0	975.0	NA	0.0000		9999	3380	0	0	0
2019/09/19 08:52:01	BASE	11.42	40	14.92	35	-1.3	86	-3.4	0	0	975.0	NA	0.0000		9999	3380	0	0	0
2019/09/19 08:53:00	BASE	11.15	38	14.92	35	-1.3	86	-3.4	0	0	975.0	NA	0.0000		9999	3310	0	0	0
2019/09/19 08:54:01	BASE	11.15	38	14.92	35	-1.3	85	-3.4	0	0	975.1	NA	0.0000		9999	3280	0	0	0
2019/09/19 08:55:00	BASE	10.92	38	14.92	35	-1.3	85	-3.5	0	0	975.1	NA	0.0000		9999	3350	0	0	0
2019/09/19 08:56:01	BASE	11.11	36	14.46	42	-1.2	85	-3.5	0	0	975.1	NA	0.0000		9999	3250	0	0	0
2019/09/19 08:57:00	BASE	10.77	33	13.68	49	-1.2	84	-3.6	0	0	975.1	NA	0.0000		9999	3050	0	0	0
2019/09/19 08:58:01	BASE	10.37	32	13.68	49	-1.2	84	-3.6	0	0	975.1	NA	0.0000		9999	3310	0	0	0
2019/09/19 08:59:00	BASE	10.76	32	12.86	43	-1.2	83	-3.7	0	0	975.1	NA	0.0000		9999	3220	0	0	0
2019/09/19 09:00:00	BASE	11.15	31	12.86	43	-1.2	83	-3.7	0	0	975.1	NA	0.0000		9999	3280	0	0	0
2019/09/19 09:01:00	BASE	10.42	32	12.55	38	-1.2	83	-3.7	0	0	975.1	NA	0.0000		9999	3280	0	0	0
2019/09/19 09:02:01	BASE	9.56	36	12.55	38	-1.2	83	-3.8	0	0	975.2	NA	0.0000		9999	3180	0	0	0
2019/09/19 09:03:00	BASE	9.40	36	12.24	32	-1.3	83	-3.8	0	0	975.2	NA	0.0000		9999	3250	0	0	0
2019/09/19 09:04:00	BASE	8.76	36	12.24	32	-1.3	83	-3.8	0	0	975.2	NA	0.0000		9999	3310	0	0	0
2019/09/19 09:05:00	BASE	8.30	36	12.24	32	-1.3	83	-3.9	0	0	975.2	NA	0.0000		9999	3280	0	0	0
2019/09/19 09:06:00	BASE	8.67	39	12.14	28	-1.4	83	-3.9	0	0	975.2	NA	0.0000		9999	3510	0	0	0
2019/09/19 09:07:00	BASE	9.57	41	12.14	28	-1.4	83	-3.9	0	0	975.2	NA	0.0000		9999	3450	0	0	0
2019/09/19 09:08:00	BASE	10.06	38	12.14	28	-1.4	84	-3.8	0	0	975.2	NA	0.0000		9999	3350	0	0	0
2019/09/19 09:09:00	BASE	10.80	33	13.32	31	-1.5	84	-3.8	0	0	975.1	NA	0.0000		9999	3220	0	0	0
2019/09/19 09:10:00	BASE	11.96	33	13.48	34	-1.5	84	-3.8	0	0	975.1	NA	0.0000		9999	3080	0	0	0
2019/09/19 09:11:00	BASE	12.18	34	13.58	36	-1.5	84	-3.8	0	0	975.1	NA	0.0000		9999	2850	0	0	0
2019/09/19 09:12:00	BASE	12.12	34	13.58	36	-1.5	85	-3.8	0	0	975.1	NA	0.0000		9999	2790	0	0	0
2019/09/19 09:13:00	BASE	11.53	35	13.58	36	-1.6	85	-3.7	0	0	975.1	NA	0.0000		9999	2820	0	0	0
2019/09/19 09:14:00	BASE	11.19	34	13.58	36	-1.6	86	-3.7	0	0	975.2	NA	0.0000		9999	2890	0	0	0
2019/09/19 09:15:00	BASE	11.11	34	13.58	36	-1.6	86	-3.7	0	0	975.2	NA	0.0000		9999	2920	0	0	0
2019/09/19 09:16:00	BASE	10.47	36	13.58	36	-1.6	86	-3.6	0	0	975.2	NA	0.0000		9999	3580	0	0	0
2019/09/19 09:17:00	BASE	10.50	39	13.58	36	-1.7	87	-3.6	0	0	975.2	NA	0.0000		9999	3120	0	0	0
2019/09/19 09:18:00	BASE	10.72	40	13.58	36	-1.7	87	-3.6	0	0	975.2	NA	0.0000		9999	2950	0	0	0
2019/09/19 09:19:00	BASE	10.37	40	13.58	36	-1.7	87	-3.5	0	0	975.2	NA	0.0000		9999	3180	3770	0	0
2019/09/19 09:20:00	BASE	9.86	41	13.58	36	-1.7	87	-3.5	0	0	975.2	NA	0.0000		9999	3510	0	0	0
2019/09/19 09:21:00	BASE	9.52	39	12.81	35	-1.7	88	-3.5	0	0	975.2	NA	0.0000		9999	3450	0	0	0
2019/09/19 09:22:01	BASE	9.39	34	12.24	43	-1.7	88	-3.4	0	0	975.2	NA	0.0000		9999	3480	0	0	0
2019/09/19 09:23:00	BASE	9.29	31	12.24	43	-1.7	88	-3.4	0	0	975.2	NA	0.0000		9999	3280	0	0	0
2019/09/19 09:24:01	BASE	9.64	30	12.24	43	-1.7	88	-3.4	0	0	975.2	NA	0.0000		9999	2990	0	0	0
2019/09/19 09:25:00	BASE	9.71	30	12.24	43	-1.7	88	-3.4	0	0	975.2	NA	0.0000		9999	2990	0	0	0
2019/09/19 09:26:01	BASE	9.43	30	12.24	43	-1.7	88	-3.3	0	0	975.2	NA	0.0000		9999	2760	0	0	0
2019/09/19 09:27:00	BASE	9.24	31	11.57	41	-1.7	89	-3.3	0	0	975.2	NA	0.0000		9999	2920	0	0	0
2019/09/19 09:28:01	BASE	8.56	35	11.11	43	-1.6	89	-3.2	0	0	975.2	NA	0.0000		9999	2920	0	0	0
2019/09/19 09:29:00	BASE	8.04	35	11.06	25	-1.6	89	-3.2	0	0	975.2	NA	0.0000		9999	2920	0	0	0
2019/09/19 09:30:00	BASE	7.66	37	11.06	25	-1.7	89	-3.2	0	0	975.2	NA	0.0000		9999	2720	0	0	0
2019/09/19 09:31:00	BASE	6.95	39	11.06	25	-1.7	89	-3.3	0	0	975.3	NA	0.0000		9999	2720	3510	0	0
2019/09/19 09:32:00	BASE	6.40	36	11.06	25	-1.8	89	-3.3	0	0	975.3	NA	0.0000		9999	3410	0	0	0
2019/09/19 09:33:00	BASE	6.36	37	11.06	25	-1.8	89	-3.4	0	0	975.2	NA	0.0000		9999	3640	0	0	0
2019/09/19 09:34:00	BASE	6.30	40	10.19	29	-1.9	89	-3.4	0	0	975.3	NA	0.0000		9999	3510	0	0	0
2019/09/19 09:35:00	BASE	6.07	37	10.19	29	-1.9	90	-3.4	0	0	975.3	NA	0.0000		9999	3540	0	0	0
2019/09/19 09:36:00	BASE	6.06	37	9.47	34	-2.0	90	-3.4	0	0	975.3	NA	0.0000		9999	3510	0	0	0
2019/09/19 09:37:00	BASE	6.43	39	9.00	27	-2.0	90	-3.3	0	0	975.3	NA	0.0000		9999	3610	0	0	0
2019/09/19 09:38:00	BASE	6.37	37	8.75	32	-2.0	91	-3.3	0	0	975.3	NA	0.0000		9999	3610	0	0	0
2019/09/19 09:39:00	BASE	6.26	39	7.97	40	-2.0	91	-3.3	0	0	975.3	NA	0.0000		9999	3350	3810	0	0
2019/09/19 09:40:00	BASE	6.58	38	7.72	25	-1.9	91	-3.2	0	0	975.3	NA	0.0000		9999	3220	0	0	0
2019/09/19 09:41:01	BASE	6.62	37	7.72	25	-1.9	91	-3.2	0	0	975.3	NA	0.0000		9999	3180	0	0	0
2019/09/19 09:42:00	BASE	6.76	38	7.97	31	-1.9	91	-3.2	0	0	975.3	NA	0.0000		9999	3180	0	0	0
2019/09/19 09:43:00	BASE	6.73	39	7.97	31	-1.9	91	-3.1	0	0	975.3	NA	0.0000		9999	3180	0	0	0
2019/09/19 09:44:00	BASE	7.02	44	8.49	49	-1.8	91	-3.1	0	0	975.3	NA	0.0000		9999	3250	0	0	0
2019/09/19 09:45:01	BASE	8.36	47	9.77	41	-1.8	91	-3.2	0	0	975.2	NA	0.0000		9999	3410	0	0	0
2019/09/19 09:46:01	BASE	8.67	47	9.77	41	-1.8	90	-3.2	0	0	975.3	NA	0.0000		9999	3510	0	0	0
2019/09/19 09:47:00	BASE	8.29	50	9.77	41	-1.8	90	-3.2	0	0	975.3	NA	0.0000		9999	3480	0	0	0
2019/09/19 09:48:00	BASE	8.52	52	9.88	43	-1.8	90	-3.3	0	0	975.3	NA	0.0000		9999	3050	3610	0	0
2019/09/19 09:49:00	BASE	9.19	47	11.57	39	-1.8	90	-3.3	0	0	975.2	NA	0.0000		9999	3080	0	0	0
2019/09/19 09:50:00	BASE	9.14	42	11.57	39	-1.8	89	-3.4	0	0	975.3	NA	0.0000		9999	3120	0	0	0
2019/09/19 09:51:00	BASE	8.65	46	11.57	39	-1.8	89	-3.4	0	0	975.3	NA	0.0000		9999	2990	0	0	0
2019/09/19 09:52:00	BASE	8.30	50	11.57	39	-1.9	89	-3.4	0	0	975.3	NA	0.0000		9999	3020	0	0	0
2019/09/19 09:53:00	BASE	7.85	45	11.57	39	-1.9	89	-3.4	0	0	975.3	NA	0.0000		9999	3080	0	0	0
2019/09/19 09:54:01	BASE	7.65	39	11.57	39	-1.9	89	-3.4	0	0	975.3	NA	0.0000		9999	2950	0	0	0
2019/09/19 09:55:00	BASE	7.97	42	11.57	39	-1.9	89	-3.5	1	0	975.3	NA	0.0000		9999	2920	0	0	0
2019/09/19 09:56:00	BASE	8.33	39	11.57	39	-1.9	89	-3.5	1	0	975.3	NA	0.0000		9999	3050	0	0	0
2019/09/19 09:57:00	BASE	8.75	35	11.57	39	-1.9	89	-3.6	1	0	975.3	NA	0.0000		9999	2850	0	0	0
2019/09/19 09:58:00	BASE	8.90	37	11.57	39	-1.9	89	-3.6	1	0	975.3	NA	0.0000		9999	2850	0	0	0
2019/09/19 09:59:00	BASE	8.58	35	10.49	38	-1.9	89	-3.6	1	0	975.3	NA	0.0000		9999	2850	0	0	0
2019/09/19 10:00:00	BASE	8.07	35	10.49	38	-1.9	89	-3.5	1	0	975.3	NA	0.0000		9999	2920	0	0	0
2019/09/19 10:01:00	BASE	6.95	40	10.49	38	-1.9	88	-3.5	1	0	975.4	NA	0.0000		9999	2920	0	0	0
2019/09/19 10:02:00	BASE	6.47	40	10.49	38	-1.9	88	-3.5	1	0	975.4	NA	0.0000		9999	3080	0	0	0
2019/09/19 10:03:00	BASE	6.32	35	10.49	38	-1.9	88	-3.6	1	0	975.4	NA	0.0000		9999	2990	0	0	0
2019/09/19 10:04:00	BASE	6.27	33	10.49	38	-1.9	88	-3.6	2	0	975.3	NA	0.0000		9999	2760	0	0	0
2019/09/19 10:05:00	BASE	6.82	33	10.49	38	-1.9	88	-3.6	2	0	975.3	NA	0.0000		9999	2850	0	0	0
2019/09/19 10:06:00	BASE	6.74	36	10.49	38	-1.9	88	-3.6	2	0	975.3	NA	0.0000		9999	2890	0	0	0
2019/09/19 10:07:00	BASE	6.51	44	9.62	29	-1.9	88	-3.7	2	0	975.3	NA	0.0000		9999	2990	0	0	0
2019/09/19 10:08:00	BASE	7.70	43	10.19	39	-1.9	87	-3.7	2	0	975.3	NA	0.0000		9999	3050	0	0	0
2019/09/19 10:09:00	BASE	8.05	42	10.19	39	-1.9	87	-3.8	2	0	975.3	NA	0.0000		9999	3080	3640	0	0
2019/09/19 10:10:00	BASE	7.85	44	10.19	39	-2.0	87	-3.9	2	0	975.3	NA	0.0000		9999	3180	3610	0	0
2019/09/19 10:11:00	BASE	8.12	44	10.19	39	-2.2	87	-4.1	3	0	975.3	NA	0.0000		9999	3080	4430	0	0
2019/09/19 10:12:00	BASE	8.10	43	10.19	39	-2.3	86	-4.3	3	0	975.3	NA	0.0000		9999	3510	0	0	0
2019/09/19 10:13:00	BASE	8.10	41	10.19	39	-2.5	86	-4.5	3	0	975.3	NA	0.0000		9999	2760	3510	0	0
2019/09/19 10:14:00	BASE	7.99	38	10.19	39	-2.7	86	-4.6	3	0	975.3	NA	0.0000		9999	2890	0	0	0
2019/09/19 10:15:00	BASE	7.71	32	10.19	39	-2.8	87	-4.7	3	0	975.3	NA	0.0000		9999	2920	6560	0	0
2019/09/19 10:16:00	BASE	7.43	30	10.19	39	-2.9	87	-4.8	4	0	975.3	NA	0.0000		9999	6500	0	0	0
2019/09/19 10:17:00	BASE	7.41	28	10.19	39	-2.9	87	-4.8	4	0	975.3	NA	0.0000		9999	6430	0	0	0
2019/09/19 10:18:00	BASE	7.22	26	9.52	31	-2.9	87	-4.8	4	0	975.3	NA	0.0000		9999	6400	0	0	0
2019/09/19 10:19:00	BASE	6.82	28	9.52	31	-2.9	87	-4.8	5	0	975.3	NA	0.0000		9999	6430	0	0	0
2019/09/19 10:20:00	BASE	6.81	27	9.52	31	-3.0	87	-4.9	5	0	975.3	NA	0.0000		9999	6400	0	0	0
2019/09/19 10:21:00	BASE	6.42	31	9.52	31	-3.1	87	-4.9	5	0	975.3	NA	0.0000		9999	6330	0	0	0
2019/09/19 10:22:00	BASE	5.87	36	9.52	31	-3.1	87	-4.9	6	0	975.3	NA	0.0000		9999	6300	0	0	0
2019/09/19 10:23:00	BASE	5.90	43	9.52	31	-3.2	88	-5.0	6	0	975.3	NA	0.0000		9999	6300	0	0	0
2019/09/19 10:24:01	BASE	5.68	53	8.28	22	-3.2	88	-4.9	6	0	975.3	NA	0.0000		9999	6300	0	0	0
2019/09/19 10:25:00	BASE	6.62	59	9.67	60	-3.2	88	-4.8	6	0	975.3	NA	0.0000		9999	6760	9710	0	0
2019/09/19 10:26:00	BASE	8.69	54	10.91	46	-3.1	89	-4.7	7	0	975.3	NA	0.0000		9999	6920	9680	0	0
2019/09/19 10:27:00	BASE	8.60	53	10.91	46	-3.0	89	-4.5	7	0	975.3	NA	0.0000		9999	6860	9650	0	0
2019/09/19 10:28:00	BASE	7.18	55	10.91	46	-2.9	89	-4.4	7	0	975.3	NA	0.0000		9999	6890	9650	0	0
2019/09/19 10:29:00	BASE	6.95	52	10.91	46	-2.8	89	-4.4	8	0	975.4	NA	0.0000		9999	7090	9610	0	0
2019/09/19 10:30:00	BASE	7.16	64	10.91	46	-2.8	89	-4.4	8	0	975.4	NA	0.0000		9999	9510	0	0	0
2019/09/19 10:31:00	BASE	7.01	75	10.91	46	-2.9	88	-4.6	9	0	975.4	NA	0.0000		9999	9550	0	0	0
2019/09/19 10:32:00	BASE	6.69	70	10.91	46	-3.0	88	-4.7	9	0	975.4	NA	0.0000		9999	9480	0	0	0
2019/09/19 10:33:00	BASE	5.63	65	10.91	46	-3.0	87	-4.9	10	0	975.3	NA	0.0000		9999	9450	0	0	0
2019/09/19 10:34:00	BASE	6.81	74	10.91	46	-3.0	87	-4.9	11	0	975.2	NA	0.0000		9999	9420	0	0	0
2019/09/19 10:35:00	BASE	9.54	76	11.57	55	-3.0	87	-4.9	14	0	975.3	NA	0.0000		9999	5450	9380	0	0
2019/09/19 10:36:00	BASE	9.48	67	11.57	55	-2.9	86	-4.8	16	0	975.3	NA	0.0000		9999	9380	0	0	0
2019/09/19 10:37:00	BASE	8.19	61	11.57	55	-2.8	86	-4.9	20	0	975.4	NA	0.0000		9999	9350	0	0	0
2019/09/19 10:38:01	BASE	8.86	55	11.57	55	-2.8	85	-4.9	23	0	975.3	NA	0.0000		9999	5280	9320	0	0
2019/09/19 10:39:01	BASE	10.12	54	11.83	53	-2.9	85	-5.1	25	0	975.3	NA	0.0000		9999	9350	0	0	0
2019/09/19 10:40:00	BASE	10.23	50	12.60	47	-2.9	84	-5.1	26	0	975.3	NA	0.0000		9999	5020	9680	0	0
2019/09/19 10:41:00	BASE	9.58	46	12.60	47	-2.9	84	-5.2	26	0	975.3	NA	0.0000		9999	5090	0	0	0
2019/09/19 10:42:00	BASE	8.85	44	12.60	47	-2.9	84	-5.2	26	0	975.3	NA	0.0000		9999	5150	9450	0	0
2019/09/19 10:43:00	BASE	9.07	47	12.60	47	-2.8	83	-5.2	26	0	975.3	NA	0.0000		9999	4920	9450	0	0
2019/09/19 10:44:00	BASE	9.29	51	12.60	47	-2.8	83	-5.3	26	0	975.3	NA	0.0000		9999	4860	0	0	0
2019/09/19 10:45:00	BASE	9.67	49	12.60	47	-2.9	82	-5.5	27	0	975.3	NA	0.0000		9999	4890	9550	0	0
2019/09/19 10:46:00	BASE	9.92	50	12.60	47	-2.9	82	-5.6	28	0	975.3	NA	0.0000		9999	4860	0	0	0
2019/09/19 10:47:00	BASE	10.21	53	12.60	47	-3.0	81	-5.7	30	0	975.3	NA	0.0000		9999	4860	0	0	0
2019/09/19 10:48:00	BASE	10.75	51	12.60	47	-3.0	81	-5.7	31	0	975.3	NA	0.0000		9999	4860	0	0	0
2019/09/19 10:49:00	BASE	10.81	49	12.60	47	-3.0	82	-5.7	31	0	975.4	NA	0.0000		9999	4890	9350	0	0
2019/09/19 10:50:00	BASE	10.87	51	11.94	49	-3.0	82	-5.7	33	0	975.4	NA	0.0000		9999	4890	9350	0	0
2019/09/19 10:51:00	BASE	11.00	51	11.99	48	-3.1	82	-5.8	36	0	975.4	NA	0.0000		9999	4790	9380	0	0
2019/09/19 10:52:00	BASE	10.64	48	11.99	48	-3.2	82	-5.9	46	0	975.4	NA	0.0000		9999	4920	9350	0	0
2019/09/19 10:53:00	BASE	10.28	47	11.99	48	-3.4	82	-6.0	48	0	975.4	NA	0.0000		9999	4950	9450	12830	0
2019/09/19 10:54:01	BASE	9.87	47	11.99	48	-3.4	82	-6.0	45	0	975.4	NA	0.0000		9999	9380	12730	0	0
2019/09/19 10:55:00	BASE	9.27	43	11.99	48	-3.4	82	-6.0	50	0	975.4	NA	0.0000		9999	9320	12760	0	0
2019/09/19 10:56:00	BASE	9.17	41	11.99	48	-3.3	82	-5.9	59	0	975.4	NA	0.0000		9999	9350	12760	0	0
2019/09/19 10:57:00	BASE	9.55	43	12.60	42	-3.3	82	-5.9	65	0	975.4	NA	0.0000		9999	9350	12830	0	0
2019/09/19 10:58:00	BASE	11.39	42	13.79	39	-3.2	82	-5.8	71	0	975.3	NA	0.0000		9999	4820	0	0	0
2019/09/19 10:59:00	BASE	12.52	39	13.79	39	-3.1	82	-5.8	79	0	975.3	NA	0.0000		9999	4790	0	0	0
2019/09/19 11:00:00	BASE	12.20	38	13.79	39	-3.1	82	-5.8	76	0	975.3	NA	0.0000		9999	4860	9350	12860	0
2019/09/19 11:01:00	BASE	12.48	39	13.79	39	-3.1	82	-5.8	62	0	975.3	NA	0.0000		9999	9350	12760	0	0
2019/09/19 11:02:00	BASE	13.30	35	14.92	35	-3.0	81	-5.7	65	0	975.3	NA	0.0000		9999	4920	9380	0	0
2019/09/19 11:03:00	BASE	13.42	33	14.92	35	-2.9	81	-5.7	99	0	975.3	NA	0.0000		9999	9290	12830	0	0
2019/09/19 11:04:00	BASE	12.71	32	14.92	35	-2.8	80	-5.8	63	0	975.2	NA	0.0000		9999	5020	9290	0	0
2019/09/19 11:05:00	BASE	12.67	35	15.69	46	-2.8	80	-5.8	70	0	975.2	NA	0.0000		9999	4950	9350	0	0
2019/09/19 11:06:00	BASE	13.36	39	15.84	39	-2.7	79	-5.8	64	0	975.2	NA	0.0000		9999	4950	9350	0	0
2019/09/19 11:07:00	BASE	13.14	34	15.84	39	-2.7	79	-5.9	57	0	975.2	NA	0.0000		9999	4950	9320	0	0
2019/09/19 11:08:00	BASE	12.94	33	15.84	39	-2.7	78	-5.9	99	0	975.2	NA	0.0000		9999	5050	9290	0	0
2019/09/19 11:09:00	BASE	13.22	32	15.84	39	-2.6	78	-5.9	102	0	975.2	NA	0.0000		9999	9250	0	0	0
2019/09/19 11:10:00	BASE	12.87	30	15.84	39	-2.5	78	-5.9	104	0	975.2	NA	0.0000		9999	9320	0	0	0
2019/09/19 11:11:00	BASE	12.78	25	15.84	39	-2.5	77	-5.9	100	0	975.2	NA	0.0000		9999	9250	0	0	0
2019/09/19 11:12:00	BASE	12.50	18	15.84	39	-2.4	77	-5.9	106	0	975.2	NA	0.0000		9999	9220	0	0	0
2019/09/19 11:13:00	BASE	13.04	18	15.84	39	-2.3	76	-6.0	98	0	975.1	NA	0.0000		9999	9220	0	0	0
2019/09/19 11:14:00	BASE	13.96	17	15.84	39	-2.3	76	-6.0	110	0	975.0	NA	0.0000		9999	9150	12210	0	0
2019/09/19 11:15:00	BASE	13.78	13	15.84	39	-2.2	75	-6.0	112	0	974.9	NA	0.0000		9999	11980	0	0	0
2019/09/19 11:16:00	BASE	14.62	12	18.11	14	-2.1	75	-6.0	115	0	974.9	NA	0.0000		9999	12110	0	0	0
2019/09/19 11:17:00	BASE	14.81	15	18.11	14	-1.9	74	-5.9	119	0	974.9	NA	0.0000		9999	12340	0	0	0
2019/09/19 11:18:00	BASE	12.95	18	18.11	14	-1.8	74	-5.8	122	0	975.1	NA	0.0000		9999	12300	0	0	0
2019/09/19 11:19:00	BASE	10.73	25	18.11	14	-1.7	74	-5.7	125	0	975.2	NA	0.0000		9999	12240	0	0	0
2019/09/19 11:20:00	BASE	8.43	45	18.11	14	-1.7	75	-5.6	130	0	975.3	NA	0.0000		9999	12140	0	0	0
2019/09/19 11:21:00	BASE	6.42	65	18.11	14	-1.7	75	-5.6	133	0	975.3	NA	0.0000		9999	9120	12270	0	0
2019/09/19 11:22:00	BASE	6.19	67	18.11	14	-1.9	76	-5.6	135	0	975.3	NA	0.0000		9999	9120	12140	0	0
2019/09/19 11:23:00	BASE	6.62	70	18.11	14	-2.0	76	-5.6	136	0	975.3	NA	0.0000		9999	3250	9090	0	0
2019/09/19 11:24:00	BASE	5.60	78	18.11	14	-2.1	77	-5.7	103	0	975.3	NA	0.0000		9999	9150	11420	0	0
2019/09/19 11:25:00	BASE	4.85	91	18.11	14	-2.2	77	-5.7	139	0	975.3	NA	0.0000		9999	9060	12270	0	0
2019/09/19 11:26:00	BASE	5.42	105	15.48	21	-2.3	77	-5.8	85	0	975.3	NA	0.0000		9999	9060	12210	0	0
2019/09/19 11:27:00	BASE	5.59	98	13.63	18	-2.3	77	-5.8	112	0	975.3	NA	0.0000		9999	9020	12010	0	0
2019/09/19 11:28:00	BASE	4.87	78	11.11	19	-2.4	77	-5.8	106	0	975.3	NA	0.0000		9999	9090	0	0	0
2019/09/19 11:29:00	BASE	5.72	57	9.41	58	-2.3	77	-5.7	93	0	975.3	NA	0.0000		9999	9090	0	0	0
2019/09/19 11:30:00	BASE	7.82	40	10.60	34	-2.2	77	-5.6	135	0	975.2	NA	0.0000		9999	9120	0	0	0
2019/09/19 11:31:00	BASE	10.47	37	14.40	34	-2.1	77	-5.5	120	0	975.1	NA	0.0000		9999	9060	0	0	0
2019/09/19 11:32:00	BASE	12.72	39	14.40	34	-1.9	77	-5.4	162	0	975.1	NA	0.0000		9999	9060	0	0	0
2019/09/19 11:33:00	BASE	12.23	41	14.40	34	-1.7	76	-5.4	86	0	975.1	NA	0.0000		9999	9190	0	0	0
2019/09/19 11:34:00	BASE	10.82	58	15.07	56	-1.5	75	-5.4	120	0	975.2	NA	0.0000		9999	9190	0	0	0
2019/09/19 11:35:00	BASE	8.22	86	15.07	56	-1.5	74	-5.5	160	0	975.2	NA	0.0000		9999	9190	0	0	0
2019/09/19 11:36:00	BASE	5.28	109	15.07	56	-1.5	74	-5.5	171	0	975.2	NA	0.0000		9999	9190	0	0	0
2019/09/19 11:37:00	BASE	4.20	118	15.07	56	-1.5	74	-5.5	176	0	975.2	NA	0.0000		9999	9190	0	0	0
2019/09/19 11:38:00	BASE	4.88	108	15.07	56	-1.5	74	-5.6	184	0	975.2	NA	0.0000		9999	9220	0	0	0
2019/09/19 11:39:00	BASE	7.08	95	15.07	56	-1.6	74	-5.6	188	0	975.2	NA	0.0000		9999	9190	0	0	0
2019/09/19 11:40:00	BASE	8.51	89	15.07	56	-1.5	74	-5.5	192	0	975.2	NA	0.0000		9999	9220	0	0	0
2019/09/19 11:41:00	BASE	7.81	96	15.07	56	-1.5	74	-5.6	187	0	975.2	NA	0.0000		9999	5350	9250	0	0
2019/09/19 11:42:00	BASE	6.74	122	15.07	56	-1.5	73	-5.7	162	0	975.2	NA	0.0000		9999	5350	9320	0	0
2019/09/19 11:43:00	BASE	5.67	151	15.07	56	-1.6	72	-5.9	159	0	975.2	NA	0.0000		9999	9290	0	0	0
2019/09/19 11:44:00	BASE	3.96	171	10.91	76	-1.8	72	-6.1	197	0	975.2	NA	0.0000		9999	9320	0	0	0
2019/09/19 11:45:00	BASE	2.95	177	10.91	76	-2.0	73	-6.2	213	0	975.3	NA	0.0000		9999	5350	9350	0	0
2019/09/19 11:46:00	BASE	2.50	176	10.91	76	-2.3	74	-6.3	221	0	975.3	NA	0.0000		9999	5380	9350	0	0
2019/09/19 11:47:00	BASE	2.12	182	10.91	76	-2.5	75	-6.3	228	0	975.3	NA	0.0000		9999	5380	9380	0	0
2019/09/19 11:48:00	BASE	1.76	210	10.91	76	-2.7	77	-6.3	229	0	975.3	NA	0.0000		9999	5350	9350	0	0
2019/09/19 11:49:00	BASE	1.33	234	10.91	76	-2.8	78	-6.2	215	0	975.3	NA	0.0000		9999	4660	5350	0	0
2019/09/19 11:50:00	BASE	1.59	224	9.21	96	-2.9	78	-6.1	184	0	975.3	NA	0.0000		9999	5280	0	0	0
2019/09/19 11:51:00	BASE	2.13	213	7.56	133	-3.0	79	-6.1	159	0	975.3	NA	0.0000		9999	4690	5220	22410	0
2019/09/19 11:52:00	BASE	2.60	217	6.94	168	-3.0	80	-6.0	130	0	975.3	NA	0.0000		9999	5280	0	0	0
2019/09/19 11:53:00	BASE	2.82	216	3.76	179	-3.0	81	-5.8	119	0	975.3	NA	0.0000		9999	5150	0	0	0
2019/09/19 11:54:00	BASE	2.81	218	3.81	209	-3.0	82	-5.7	119	0	975.3	NA	0.0000		9999	5090	0	0	0
2019/09/19 11:55:00	BASE	3.02	218	3.81	209	-2.9	82	-5.6	119	0	975.3	NA	0.0000		9999	5150	0	0	0
2019/09/19 11:56:00	BASE	2.72	215	3.81	209	-2.9	83	-5.5	134	0	975.3	NA	0.0000		9999	4890	0	0	0
2019/09/19 11:57:00	BASE	2.54	217	3.81	209	-2.9	83	-5.4	133	0	975.3	NA	0.0000		9999	5320	0	0	0
2019/09/19 11:58:00	BASE	2.55	218	3.81	209	-2.9	83	-5.3	151	0	975.3	NA	0.0000		9999	5450	0	0	0
2019/09/19 11:59:00	BASE	2.20	228	3.81	209	-2.8	84	-5.2	144	0	975.3	NA	0.0000		9999	5510	0	0	0
2019/09/19 12:00:00	BASE	1.96	242	3.81	209	-2.8	84	-5.1	131	0	975.3	NA	0.0000		9999	5510	0	0	0
2019/09/19 12:01:00	BASE	2.17	254	3.81	209	-2.8	84	-5.0	124	0	975.3	NA	0.0000		9999	4860	0	0	0
2019/09/19 12:02:00	BASE	2.33	271	3.81	209	-2.7	85	-4.9	119	0	975.3	NA	0.0000		9999	4790	0	0	0
2019/09/19 12:03:00	BASE	2.28	279	3.81	209	-2.6	85	-4.8	117	0	975.3	NA	0.0000		9999	4820	0	0	0
2019/09/19 12:04:00	BASE	2.24	282	3.29	225	-2.6	85	-4.8	112	0	975.3	NA	0.0000		9999	4790	0	0	0
2019/09/19 12:05:00	BASE	2.02	288	2.88	218	-2.5	85	-4.8	110	0	975.3	NA	0.0000		9999	4720	0	0	0
2019/09/19 12:06:00	BASE	2.31	296	3.70	301	-2.5	84	-4.8	104	0	975.3	NA	0.0000		9999	4720	0	0	0
2019/09/19 12:07:00	BASE	2.72	307	4.17	318	-2.4	84	-4.8	98	0	975.4	NA	0.0000		9999	4690	20380	0	0
2019/09/19 12:08:00	BASE	2.56	318	4.17	318	-2.4	83	-4.9	93	0	975.4	NA	0.0000		9999	4760	0	0	0
2019/09/19 12:09:00	BASE	2.60	326	4.17	318	-2.4	82	-5.0	88	0	975.3	NA	0.0000		9999	4690	0	0	0
2019/09/19 12:10:00	BASE	2.37	343	4.17	318	-2.4	81	-5.2	83	0	975.4	NA	0.0000		9999	4690	0	0	0
2019/09/19 12:11:00	BASE	2.13	1	4.17	318	-2.4	81	-5.3	79	0	975.4	NA	0.0000		9999	4720	0	0	0
2019/09/19 12:12:00	BASE	2.21	2	4.17	318	-2.5	80	-5.4	76	0	975.3	NA	0.0000		9999	4820	0	0	0
2019/09/19 12:13:00	BASE	1.95	9	4.17	318	-2.5	80	-5.5	73	0	975.3	NA	0.0000		9999	4820	0	0	0
2019/09/19 12:14:00	BASE	1.99	14	4.17	318	-2.6	80	-5.5	71	0	975.3	NA	0.0000		9999	4760	0	0	0
2019/09/19 12:15:00	BASE	2.25	15	4.17	318	-2.6	80	-5.6	70	0	975.3	NA	0.0000		9999	4690	0	0	0
2019/09/19 12:16:00	BASE	2.36	19	4.17	318	-2.6	80	-5.6	70	0	975.4	NA	0.0000		9999	4690	0	0	0
2019/09/19 12:17:00	BASE	2.71	24	3.34	23	-2.6	80	-5.6	71	0	975.4	NA	0.0000		9999	4630	0	0	0
2019/09/19 12:18:00	BASE	3.19	24	3.65	13	-2.6	80	-5.6	72	0	975.4	NA	0.0000		9999	4760	0	0	0
2019/09/19 12:19:00	BASE	3.06	21	3.65	13	-2.6	80	-5.6	73	0	975.4	NA	0.0000		9999	4760	0	0	0
2019/09/19 12:20:00	BASE	2.78	20	3.65	13	-2.5	80	-5.5	74	0	975.4	NA	0.0000		9999	4790	0	0	0
2019/09/19 12:21:00	BASE	2.93	24	3.65	13	-2.5	80	-5.5	75	0	975.4	NA	0.0000		9999	4630	0	0	0
2019/09/19 12:22:00	BASE	2.93	30	3.65	13	-2.5	79	-5.6	76	0	975.4	NA	0.0000		9999	4630	0	0	0
2019/09/19 12:23:00	BASE	3.01	30	3.65	13	-2.5	79	-5.6	78	0	975.4	NA	0.0000		9999	4490	0	0	0
2019/09/19 12:24:00	BASE	3.04	26	3.65	13	-2.5	78	-5.7	80	0	975.4	NA	0.0000		9999	4630	8500	0	0
2019/09/19 12:25:00	BASE	2.59	23	3.65	13	-2.5	78	-5.8	82	0	975.4	NA	0.0000		9999	4430	0	0	0
2019/09/19 12:26:00	BASE	2.24	26	3.65	13	-2.6	78	-5.8	83	0	975.4	NA	0.0000		9999	4430	0	0	0
2019/09/19 12:27:00	BASE	1.86	26	3.65	13	-2.6	78	-5.8	85	0	975.4	NA	0.0000		9999	4430	0	0	0
2019/09/19 12:28:00	BASE	1.56	29	3.55	23	-2.6	79	-5.8	87	0	975.4	NA	0.0000		9999	4400	0	0	0
2019/09/19 12:29:00	BASE	1.61	38	3.55	23	-2.6	79	-5.8	89	0	975.4	NA	0.0000		9999	4430	0	0	0
2019/09/19 12:30:00	BASE	1.59	52	3.55	23	-2.6	79	-5.8	92	0	975.4	NA	0.0000		9999	4430	0	0	0
2019/09/19 12:31:00	BASE	1.22	68	3.55	23	-2.5	79	-5.7	95	0	975.4	NA	0.0000		9999	4400	0	0	0
2019/09/19 12:32:00	BASE	0.42	95	3.55	23	-2.5	79	-5.7	98	0	975.4	NA	0.0000		9999	4360	0	0	0
2019/09/19 12:33:00	BASE	1.00	187	3.24	19	-2.5	79	-5.7	102	0	975.4	NA	0.0000		9999	4360	0	0	0
2019/09/19 12:34:00	BASE	1.92	231	2.68	9	-2.5	79	-5.7	106	0	975.4	NA	0.0000		9999	4100	0	0	0
2019/09/19 12:35:00	BASE	1.26	225	2.52	233	-2.5	79	-5.7	112	0	975.4	NA	0.0000		9999	4070	0	0	0
2019/09/19 12:36:00	BASE	0.59	233	2.52	233	-2.6	79	-5.6	119	0	975.4	NA	0.0000		9999	4040	0	0	0
2019/09/19 12:37:00	BASE	0.96	252	2.52	233	-2.6	80	-5.6	125	0	975.4	NA	0.0000		9999	4000	0	0	0
2019/09/19 12:38:00	BASE	1.99	265	3.45	272	-2.7	81	-5.5	130	0	975.3	NA	0.0000		9999	4360	0	0	0
2019/09/19 12:39:00	BASE	2.88	270	3.65	265	-2.8	82	-5.4	134	0	975.3	NA	0.0000		9999	4070	0	0	0
2019/09/19 12:40:00	BASE	3.14	271	3.65	265	-2.8	83	-5.3	136	0	975.3	NA	0.0000		9999	4230	0	0	0
2019/09/19 12:41:00	BASE	3.08	274	3.65	265	-2.8	84	-5.1	136	0	975.3	NA	0.0000		9999	4070	0	0	0
2019/09/19 12:42:00	BASE	3.19	274	3.65	265	-2.7	85	-4.9	136	0	975.3	NA	0.0000		9999	3940	0	0	0
2019/09/19 12:43:00	BASE	3.26	275	3.65	265	-2.7	86	-4.7	138	0	975.3	NA	0.0000		9999	4270	0	0	0
2019/09/19 12:44:00	BASE	3.39	278	3.91	284	-2.7	87	-4.6	139	0	975.3	NA	0.0000		9999	4270	0	0	0
2019/09/19 12:45:00	BASE	3.16	279	3.91	284	-2.7	88	-4.4	138	0	975.2	NA	0.0000		9999	4200	0	0	0
2019/09/19 12:46:00	BASE	2.27	288	3.91	284	-2.7	89	-4.2	132	0	975.3	NA	0.0000		9999	4200	0	0	0
2019/09/19 12:47:00	BASE	1.75	293	3.91	284	-2.7	91	-4.0	126	0	975.2	NA	0.0000		9999	4200	0	0	0
2019/09/19 12:48:00	BASE	2.16	284	3.91	284	-2.7	92	-3.9	121	0	975.2	NA	0.0000		9999	4330	4890	0	0
2019/09/19 12:49:00	BASE	2.88	278	3.91	284	-2.8	93	-3.7	119	0	975.2	NA	0.0000		9999	4230	4720	6630	0
2019/09/19 12:50:00	BASE	3.19	280	3.91	284	-2.8	94	-3.6	118	0	975.1	NA	0.0000		9999	5020	0	0	0
2019/09/19 12:51:00	BASE	3.21	281	3.91	284	-2.8	95	-3.5	119	0	975.2	NA	0.0000		9999	4760	0	0	0
2019/09/19 12:52:00	BASE	2.90	278	3.91	284	-2.8	96	-3.4	122	0	975.2	NA	0.0000		9999	4630	0	0	0
2019/09/19 12:53:00	BASE	2.54	277	3.91	284	-2.8	97	-3.2	125	0	975.2	NA	0.0000		9999	4430	0	0	0
2019/09/19 12:54:00	BASE	2.55	279	3.76	288	-2.8	98	-3.1	129	0	975.1	NA	0.0000		9999	4070	0	0	0
2019/09/19 12:55:00	BASE	2.52	275	3.76	288	-2.8	99	-3.0	132	0	975.1	NA	0.0000		9999	4100	0	0	0
2019/09/19 12:56:00	BASE	2.22	277	3.76	288	-2.8	99	-2.9	136	0	975.1	NA	0.0000		9999	3870	0	0	0
2019/09/19 12:57:00	BASE	1.75	282	3.76	288	-2.8	100	-2.8	139	0	975.1	NA	0.0000		9999	3610	0	0	0
2019/09/19 12:58:00	BASE	1.20	286	3.76	288	-2.8	100	-2.8	140	0	975.1	NA	0.0000		9999	5020	0	0	0
2019/09/19 12:59:00	BASE	1.06	286	3.76	288	-2.8	100	-2.8	138	0	975.1	NA	0.0000		9999	4920	0	0	0
2019/09/19 13:00:00	BASE	1.23	282	3.70	283	-2.8	100	-2.8	134	0	975.1	NA	0.0000		9999	4820	0	0	0
2019/09/19 13:01:00	BASE	0.61	274	3.19	284	-2.8	100	-2.8	128	0	975.1	NA	0.0000		9999	4990	0	0	0
2019/09/19 13:02:00	BASE	0.00	254	2.78	280	-2.8	100	-2.8	124	0	975.1	NA	0.0000		9999	4130	0	0	0
2019/09/19 13:03:00	BASE	0.13	223	2.68	273	-2.9	100	-2.9	123	0	975.1	NA	0.0000		9999	3280	4790	0	0
2019/09/19 13:04:00	BASE	0.13	239	2.68	273	-3.0	100	-3.0	126	0	975.1	NA	0.0000		9999	4860	0	0	0
2019/09/19 13:05:00	BASE	0.19	295	2.42	276	-3.0	100	-3.0	131	0	975.1	NA	0.0000		9999	3940	0	0	0
2019/09/19 13:06:00	BASE	0.45	308	1.75	278	-3.0	100	-3.0	134	0	975.1	NA	0.0000		9999	3900	0	0	0
2019/09/19 13:07:00	BASE	0.27	302	1.39	275	-3.0	100	-3.0	136	0	975.1	NA	0.0000		9999	4300	0	0	0
2019/09/19 13:08:00	BASE	0.00	280	1.39	275	-3.0	100	-3.0	138	0	975.1	NA	0.0000		9999	4270	0	0	0
2019/09/19 13:09:00	BASE	0.05	199	1.39	275	-3.0	100	-3.0	141	0	975.1	NA	0.0000		9999	4330	0	0	0
2019/09/19 13:10:00	BASE	0.23	162	1.18	151	-3.0	100	-3.0	145	0	975.1	NA	0.0000		9999	4300	0	0	0
2019/09/19 13:11:00	BASE	0.75	165	1.44	167	-3.0	100	-3.0	148	0	975.1	NA	0.0000		9999	4200	0	0	0
2019/09/19 13:12:00	BASE	1.42	168	2.11	159	-3.0	100	-3.0	149	0	975.1	NA	0.0000		9999	4070	0	0	0
2019/09/19 13:13:00	BASE	1.85	169	2.21	174	-3.0	100	-3.0	150	0	975.1	NA	0.0000		9999	4230	0	0	0
2019/09/19 13:14:00	BASE	2.04	170	2.42	175	-3.0	100	-3.0	152	0	975.1	NA	0.0000		9999	3580	0	0	0
2019/09/19 13:15:00	BASE	1.95	159	2.42	175	-3.0	100	-3.0	154	0	975.1	NA	0.0000		9999	3770	0	0	0
2019/09/19 13:16:00	BASE	1.59	144	2.42	175	-3.0	100	-3.0	156	0	975.1	NA	0.0000		9999	3380	0	0	0
2019/09/19 13:17:00	BASE	0.78	126	2.42	175	-3.1	100	-3.1	157	0	975.1	NA	0.0000		9999	3480	4560	0	0
2019/09/19 13:18:00	BASE	0.38	99	2.42	175	-3.2	100	-3.2	159	0	975.1	NA	0.0000		9999	3640	4530	0	0
2019/09/19 13:19:00	BASE	0.28	76	2.42	175	-3.2	100	-3.2	161	0	975.1	NA	0.0000		9999	4530	0	0	0
2019/09/19 13:20:00	BASE	0.00	65	2.42	175	-3.2	100	-3.2	163	0	975.1	NA	0.0000		9999	4490	0	0	0
2019/09/19 13:21:00	BASE	0.00	67	2.42	175	-3.2	100	-3.2	166	0	975.1	NA	0.0000		9999	4530	0	0	0
2019/09/19 13:22:00	BASE	0.00	69	2.42	175	-3.1	100	-3.1	170	0	975.1	NA	0.0000		9999	4560	0	0	0
2019/09/19 13:23:00	BASE	0.00	74	2.42	175	-3.0	100	-3.0	172	0	975.0	NA	0.0000		9999	4630	0	0	0
2019/09/19 13:24:00	BASE	0.00	95	2.21	150	-3.0	100	-3.0	173	0	974.9	NA	0.0000		9999	4630	0	0	0
2019/09/19 13:25:00	BASE	0.00	110	1.44	139	-2.9	100	-2.9	175	0	974.9	NA	0.0000		9999	4690	0	0	0
2019/09/19 13:26:00	BASE	0.00	103	1.18	95	-2.9	100	-2.9	175	0	974.9	NA	0.0000		9999	4760	0	0	0
2019/09/19 13:27:00	BASE	0.00	97	1.18	95	-2.8	100	-2.8	174	0	974.9	NA	0.0000		9999	4720	0	0	0
2019/09/19 13:28:00	BASE	0.00	115	M	M	-2.8	100	-2.8	172	0	974.9	NA	0.0000		9999	4760	0	0	0
2019/09/19 13:29:00	BASE	0.00	139	M	M	-2.8	100	-2.8	170	0	974.9	NA	0.0000		9999	4720	0	0	0
2019/09/19 13:30:00	BASE	0.62	152	1.59	157	-2.8	100	-2.8	170	0	974.9	NA	0.0000		9999	4760	0	0	0
2019/09/19 13:31:00	BASE	1.37	157	1.65	163	-2.8	100	-2.8	169	0	974.9	NA	0.0000		9999	4660	0	0	0
2019/09/19 13:32:00	BASE	1.13	156	1.65	163	-2.8	100	-2.8	166	0	974.9	NA	0.0000		9999	4690	0	0	0
2019/09/19 13:33:00	BASE	0.60	158	1.65	163	-2.8	100	-2.8	162	0	974.9	NA	0.0000		9999	4760	0	0	0
2019/09/19 13:34:00	BASE	0.22	149	1.65	163	-2.8	100	-2.8	161	0	974.9	NA	0.0000		9999	4920	0	0	0
2019/09/19 13:35:00	BASE	0.00	129	1.65	163	-2.8	100	-2.8	162	0	974.9	NA	0.0000		9999	5020	0	0	0
2019/09/19 13:36:00	BASE	0.38	97	1.65	72	-2.8	100	-2.8	162	0	974.9	NA	0.0000		9999	4820	0	0	0
2019/09/19 13:37:00	BASE	1.36	73	2.31	83	-2.8	100	-2.8	162	0	974.9	NA	0.0000		9999	4400	0	0	0
2019/09/19 13:38:00	BASE	1.75	71	2.31	83	-2.9	100	-2.9	163	0	974.9	NA	0.0000		9999	4590	0	0	0
2019/09/19 13:39:00	BASE	1.26	72	2.31	83	-2.9	100	-2.9	164	0	974.9	NA	0.0000		9999	4590	0	0	0
2019/09/19 13:40:00	BASE	1.33	79	2.31	83	-2.8	100	-2.8	165	0	974.8	NA	0.0000		9999	4630	0	0	0
2019/09/19 13:41:00	BASE	1.79	92	2.31	83	-2.8	100	-2.8	167	0	974.8	NA	0.0000		9999	1870	4530	0	0
2019/09/19 13:42:00	BASE	2.19	101	2.88	96	-2.7	100	-2.7	168	0	974.8	NA	0.0000		9999	1740	4720	0	0
2019/09/19 13:43:00	BASE	2.25	123	2.88	96	-2.7	100	-2.7	169	0	974.8	NA	0.0000		9999	1610	0	0	0
2019/09/19 13:44:00	BASE	2.18	152	2.88	96	-2.7	100	-2.7	170	0	974.8	NA	0.0000		9999	4130	0	0	0
2019/09/19 13:45:00	BASE	2.84	157	4.12	154	-2.7	100	-2.7	170	0	974.8	NA	0.0000		9999	1180	4130	0	0
2019/09/19 13:46:00	BASE	3.62	160	4.22	169	-2.8	100	-2.8	170	0	974.8	NA	0.0000		9999	4170	0	0	0
2019/09/19 13:47:00	BASE	4.05	166	4.53	163	-2.8	100	-2.8	172	0	974.8	NA	0.0000		9999	4200	0	0	0
2019/09/19 13:48:00	BASE	4.08	164	4.53	163	-2.8	100	-2.8	174	0	974.8	NA	0.0000		9999	4300	0	0	0
2019/09/19 13:49:00	BASE	4.04	157	4.53	163	-2.8	100	-2.8	176	0	974.8	NA	0.0000		9999	1640	3280	4690	0
2019/09/19 13:50:00	BASE	4.06	155	4.53	163	-2.8	100	-2.8	178	0	974.8	NA	0.0000		9999	4720	0	0	0
2019/09/19 13:51:00	BASE	4.19	155	4.78	156	-2.8	100	-2.8	180	0	974.8	NA	0.0000		9999	2660	0	0	0
2019/09/19 13:52:00	BASE	4.23	148	4.89	133	-2.8	100	-2.8	183	0	974.8	NA	0.0000		9999	2360	4760	0	0
2019/09/19 13:53:00	BASE	4.20	132	5.09	118	-2.8	100	-2.8	186	0	974.8	NA	0.0000		9999	4690	0	0	0
2019/09/19 13:54:00	BASE	4.16	125	5.09	118	-2.7	100	-2.7	188	0	974.8	NA	0.0000		9999	2300	4660	0	0
2019/09/19 13:55:00	BASE	4.02	131	5.25	138	-2.7	100	-2.7	189	0	974.7	NA	0.0000		9999	2230	4720	0	0
2019/09/19 13:56:00	BASE	4.30	136	5.25	138	-2.6	100	-2.6	191	0	974.7	NA	0.0000		9999	2530	4630	0	0
2019/09/19 13:57:00	BASE	3.96	131	5.25	138	-2.6	100	-2.6	194	0	974.8	NA	0.0000		9999	4590	0	0	0
2019/09/19 13:58:00	BASE	3.43	124	5.25	138	-2.6	100	-2.6	199	0	974.8	NA	0.0000		9999	4690	0	0	0
2019/09/19 13:59:00	BASE	3.24	116	5.25	138	-2.6	100	-2.6	205	0	974.8	NA	0.0000		9999	4690	0	0	0
2019/09/19 14:00:00	BASE	2.68	96	5.25	138	-2.6	100	-2.6	209	0	974.8	NA	0.0000		9999	4690	0	0	0
2019/09/19 14:01:00	BASE	2.26	95	5.25	138	-2.6	100	-2.6	209	0	974.8	NA	0.0000		9999	4720	0	0	0
2019/09/19 14:02:00	BASE	2.96	106	5.25	138	-2.6	100	-2.6	205	0	974.8	NA	0.0000		9999	4820	0	0	0
2019/09/19 14:03:00	BASE	4.52	105	6.22	105	-2.5	100	-2.5	200	0	974.8	NA	0.0000		9999	2890	4860	0	0
2019/09/19 14:04:00	BASE	5.25	110	6.22	105	-2.5	100	-2.5	194	0	974.8	NA	0.0000		9999	2720	3640	0	0
2019/09/19 14:05:00	BASE	5.35	114	6.22	105	-2.5	100	-2.5	187	0	974.7	NA	0.0000		9999	2690	0	0	0
2019/09/19 14:06:00	BASE	5.56	116	6.22	105	-2.5	100	-2.5	181	0	974.7	NA	0.0000		9999	2720	0	0	0
2019/09/19 14:07:00	BASE	5.82	116	6.64	115	-2.5	100	-2.5	177	0	974.7	NA	0.0000		9999	2790	4590	0	0
2019/09/19 14:08:00	BASE	6.10	114	6.79	105	-2.5	100	-2.5	174	0	974.7	NA	0.0000		9999	2850	0	0	0
2019/09/19 14:09:00	BASE	5.80	111	6.79	105	-2.5	100	-2.5	171	0	974.7	NA	0.0000		9999	2890	0	0	0
2019/09/19 14:10:00	BASE	5.36	114	7.31	112	-2.5	100	-2.5	168	0	974.7	NA	0.0000		9999	2920	0	0	0
2019/09/19 14:11:00	BASE	6.30	116	8.49	115	-2.5	100	-2.5	165	0	974.7	NA	0.0000		9999	2990	0	0	0
2019/09/19 14:12:00	BASE	7.75	115	8.59	113	-2.4	100	-2.4	165	0	974.7	NA	0.0000		9999	2990	0	0	0
2019/09/19 14:13:00	BASE	7.70	117	8.59	113	-2.4	100	-2.4	164	0	974.7	NA	0.0000		9999	3020	0	0	0
2019/09/19 14:14:00	BASE	6.43	115	8.59	113	-2.4	100	-2.4	165	0	974.7	NA	0.0000	UP	9999	3150	4360	0	0
2019/09/19 14:15:00	BASE	6.12	110	8.59	113	-2.4	100	-2.4	166	0	974.7	NA	0.0000	UP	9999	3220	0	0	0
2019/09/19 14:16:00	BASE	6.32	106	8.59	113	-2.5	100	-2.5	168	0	974.7	NA	0.0000	UP	9999	3050	3940	0	0
2019/09/19 14:17:00	BASE	5.61	104	8.59	113	-2.5	100	-2.5	172	0	974.7	NA	0.0000	UP	9999	3580	0	0	0
2019/09/19 14:18:00	BASE	5.70	107	8.59	113	-2.5	100	-2.5	177	0	974.7	NA	0.0000	UP	9999	3410	4330	0	0
2019/09/19 14:19:00	BASE	6.50	110	8.59	113	-2.5	100	-2.5	178	0	974.6	NA	0.0000	UP	9999	3310	0	0	0
2019/09/19 14:20:00	BASE	6.80	112	8.59	113	-2.5	100	-2.5	177	0	974.6	NA	0.0000	UP	9999	3310	0	0	0
2019/09/19 14:21:00	BASE	6.84	112	8.59	113	-2.5	100	-2.5	176	0	974.6	NA	0.0000	UP	9999	2990	0	0	0
2019/09/19 14:22:00	BASE	6.35	112	7.82	120	-2.4	100	-2.4	175	0	974.7	NA	0.0000	UP	9999	3280	0	0	0
2019/09/19 14:23:00	BASE	5.66	115	7.20	112	-2.4	100	-2.4	172	0	974.7	NA	0.0000	UP	9999	3150	0	0	0
2019/09/19 14:24:00	BASE	5.95	116	7.20	118	-2.4	100	-2.4	170	0	974.6	NA	0.0000	UP	9999	3540	0	0	0
2019/09/19 14:25:00	BASE	6.91	116	7.82	116	-2.4	100	-2.4	168	0	974.6	NA	0.0000	UP	9999	3050	0	0	0
2019/09/19 14:26:00	BASE	6.97	117	7.82	116	-2.4	100	-2.4	168	0	974.6	NA	0.0000	UP	9999	3180	0	0	0
2019/09/19 14:27:00	BASE	6.27	118	7.82	116	-2.4	100	-2.4	169	0	974.6	NA	0.0000	UP	9999	3150	0	0	0
2019/09/19 14:28:00	BASE	6.17	119	7.82	116	-2.4	100	-2.4	171	0	974.6	NA	0.0000	UP	9999	3220	0	0	0
2019/09/19 14:29:00	BASE	6.45	121	7.82	116	-2.4	100	-2.4	173	0	974.6	NA	0.0000	UP	9000	3120	0	0	0
2019/09/19 14:30:00	BASE	6.47	122	7.82	116	-2.3	100	-2.3	176	0	974.6	NA	0.0000	UP	9000	3020	23360	0	0
2019/09/19 14:31:00	BASE	6.97	120	7.92	118	-2.3	100	-2.3	179	0	974.6	NA	0.0000	UP BR	9000	3250	0	0	0
2019/09/19 14:32:00	BASE	7.49	117	7.92	118	-2.3	100	-2.3	181	0	974.5	NA	0.0000	UP BR	9000	0	0	0	4820
2019/09/19 14:33:00	BASE	7.17	114	7.92	118	-2.3	100	-2.3	183	0	974.5	NA	0.0000	UP BR	9999	2660	23100	0	0
2019/09/19 14:34:00	BASE	6.51	115	7.92	118	-2.3	100	-2.3	186	0	974.5	NA	0.0000	UP BR	9999	2620	0	0	0
2019/09/19 14:35:00	BASE	6.25	116	7.92	118	-2.3	100	-2.3	187	0	974.5	NA	0.0000	UP BR	9999	2760	20640	0	0
2019/09/19 14:36:00	BASE	6.50	114	7.92	118	-2.3	100	-2.3	187	0	974.5	NA	0.0000	UP BR	9999	2790	0	0	0
2019/09/19 14:37:00	BASE	6.83	111	7.92	118	-2.3	100	-2.3	187	0	974.5	NA	0.0000	UP BR	9999	0	0	0	5150
2019/09/19 14:38:00	BASE	6.30	112	7.92	118	-2.3	100	-2.3	187	0	974.5	NA	0.0000	UP BR	9999	0	0	0	4920
2019/09/19 14:39:00	BASE	5.18	113	7.92	118	-2.3	100	-2.3	189	0	974.5	NA	0.0000	UP	9999	2990	0	0	0
2019/09/19 14:40:00	BASE	5.14	111	7.92	118	-2.3	100	-2.3	191	0	974.5	NA	0.0000	UP	9999	820	0	0	0
2019/09/19 14:41:00	BASE	5.79	113	7.82	113	-2.2	100	-2.2	193	0	974.5	NA	0.0000	UP	9999	0	0	0	4400
2019/09/19 14:42:00	BASE	5.86	116	7.41	110	-2.2	100	-2.2	194	0	974.5	NA	0.0000	UP	9999	980	0	0	0
2019/09/19 14:43:00	BASE	5.57	111	7.41	110	-2.2	100	-2.2	195	0	974.5	NA	0.0000	UP	9999	1570	0	0	0
2019/09/19 14:44:00	BASE	5.68	103	7.41	110	-2.2	100	-2.2	197	0	974.5	NA	0.0000	UP	9999	980	0	0	0
2019/09/19 14:45:00	BASE	5.76	97	7.41	110	-2.3	100	-2.3	200	0	974.5	NA	0.0000	UP	9999	2690	0	0	0
2019/09/19 14:46:00	BASE	5.62	92	7.41	110	-2.3	100	-2.3	202	0	974.5	NA	0.0000	UP	8000	590	0	0	0
2019/09/19 14:47:00	BASE	5.47	90	6.53	118	-2.3	100	-2.3	203	0	974.5	NA	0.0000	UP	6000	2690	0	0	0
2019/09/19 14:48:00	BASE	5.12	93	6.53	118	-2.4	100	-2.4	203	0	974.5	NA	0.0000	UP BR	6000	3610	0	0	0
2019/09/19 14:49:00	BASE	4.89	100	6.53	118	-2.4	100	-2.4	203	0	974.5	NA	0.0000	UP BR	5000	2690	0	0	0
2019/09/19 14:50:00	BASE	5.08	105	6.53	118	-2.4	100	-2.4	203	0	974.5	NA	0.0000	UP BR	6000	2560	0	0	0
2019/09/19 14:51:00	BASE	5.24	111	6.28	112	-2.4	100	-2.4	203	0	974.5	NA	0.0000	UP BR	6000	2620	3640	0	0
2019/09/19 14:52:00	BASE	5.13	116	6.02	105	-2.4	100	-2.4	201	0	974.4	NA	0.0000	UP BR	6000	3480	0	0	0
2019/09/19 14:53:00	BASE	5.16	118	6.02	105	-2.3	100	-2.3	198	0	974.4	NA	0.0000	UP BR	7000	3050	0	0	0
2019/09/19 14:54:00	BASE	5.35	118	5.76	96	-2.3	100	-2.3	195	0	974.4	NA	0.0000	UP BR	8000	2790	0	0	0
2019/09/19 14:55:00	BASE	5.60	120	5.97	121	-2.2	100	-2.2	192	0	974.4	NA	0.0000	UP BR	8000	1840	0	0	0
2019/09/19 14:56:00	BASE	5.78	121	5.97	122	-2.2	100	-2.2	190	0	974.3	NA	0.0000	UP BR	8000	1770	0	0	0
2019/09/19 14:57:00	BASE	5.67	124	5.97	122	-2.2	100	-2.2	188	0	974.3	NA	0.0000	UP BR	8000	2660	0	0	0
2019/09/19 14:58:00	BASE	5.36	129	5.97	122	-2.2	100	-2.2	185	0	974.3	NA	0.0000	UP BR	8000	2620	0	0	0
2019/09/19 14:59:00	BASE	5.14	132	5.97	122	-2.2	100	-2.2	180	0	974.3	NA	0.0000	UP BR	8000	2990	3740	0	0
2019/09/19 15:00:00	BASE	5.13	134	5.97	122	-2.2	100	-2.2	177	0	974.3	NA	0.0000	UP BR	8000	2790	0	0	0
2019/09/19 15:01:00	BASE	5.13	137	5.97	122	-2.2	100	-2.2	178	0	974.2	NA	0.0000	UP BR	8000	2690	0	0	0
2019/09/19 15:02:00	BASE	4.73	142	5.97	122	-2.2	100	-2.2	180	0	974.2	NA	0.0000	BR	8000	2590	0	0	0
2019/09/19 15:03:00	BASE	4.23	145	5.97	122	-2.2	100	-2.2	181	0	974.2	NA	0.0000	BR	8000	2460	0	0	0
2019/09/19 15:04:00	BASE	4.31	148	5.97	122	-2.2	100	-2.2	183	0	974.2	NA	0.0000	BR	8000	2490	0	0	0
2019/09/19 15:05:00	BASE	4.08	151	5.97	122	-2.2	100	-2.2	188	0	974.2	NA	0.0000	UP BR	8000	2430	0	0	0
2019/09/19 15:06:00	BASE	3.50	149	5.81	135	-2.2	100	-2.2	194	0	974.2	NA	0.0000	UP BR	8000	2260	0	0	0
2019/09/19 15:07:00	BASE	3.12	144	5.81	135	-2.2	100	-2.2	200	0	974.2	NA	0.0000	UP BR	8000	3770	0	0	0
2019/09/19 15:08:00	BASE	2.96	148	5.81	135	-2.3	100	-2.3	205	0	974.2	NA	0.0000	UP BR	8000	3710	0	0	0
2019/09/19 15:09:00	BASE	3.00	164	5.81	135	-2.3	100	-2.3	211	0	974.2	NA	0.0000	UP BR	8000	2560	0	0	0
2019/09/19 15:10:00	BASE	3.07	177	5.61	137	-2.3	100	-2.3	215	0	974.2	NA	0.0000	UP BR	8000	2400	3810	0	0
2019/09/19 15:11:00	BASE	2.97	180	4.89	150	-2.4	100	-2.4	219	0	974.2	NA	0.0000	UP BR	9000	2360	0	0	0
2019/09/19 15:12:00	BASE	2.60	185	4.89	150	-2.4	100	-2.4	221	0	974.2	NA	0.0000	UP BR	9999	3810	0	0	0
2019/09/19 15:13:00	BASE	2.23	196	4.89	150	-2.5	100	-2.5	220	0	974.2	NA	0.0000	UP BR	9999	3710	0	0	0
2019/09/19 15:14:00	BASE	2.17	207	4.22	153	-2.5	100	-2.5	221	0	974.2	NA	0.0000	BR	9999	3480	0	0	0
2019/09/19 15:15:00	BASE	2.34	222	3.60	140	-2.5	100	-2.5	221	0	974.2	NA	0.0000	BR	9999	3480	0	0	0
2019/09/19 15:16:00	BASE	2.47	233	3.55	148	-2.5	100	-2.5	223	0	974.2	NA	0.0000		9999	3410	0	0	0
2019/09/19 15:17:00	BASE	2.49	234	3.55	148	-2.5	100	-2.5	226	0	974.2	NA	0.0000		9999	3450	0	0	0
2019/09/19 15:18:00	BASE	2.37	235	3.34	174	-2.5	100	-2.5	230	0	974.1	NA	0.0000		9999	3310	0	0	0
2019/09/19 15:19:00	BASE	2.10	236	3.34	174	-2.5	100	-2.5	233	0	974.1	NA	0.0000		9999	3450	0	0	0
2019/09/19 15:20:00	BASE	1.87	237	3.24	183	-2.5	100	-2.5	234	0	974.1	NA	0.0000		9999	4530	0	0	0
2019/09/19 15:21:00	BASE	1.89	239	2.88	234	-2.5	100	-2.5	234	0	974.1	NA	0.0000		9999	3280	4460	0	0
2019/09/19 15:22:00	BASE	1.66	224	2.88	234	-2.6	100	-2.6	233	0	974.1	NA	0.0000		9999	2530	3450	0	0
2019/09/19 15:23:00	BASE	1.09	202	2.88	234	-2.6	100	-2.6	233	0	974.1	NA	0.0000		9999	2560	4400	0	0
2019/09/19 15:24:00	BASE	0.93	200	2.88	234	-2.7	100	-2.7	232	0	974.1	NA	0.0000		9999	2530	0	0	0
2019/09/19 15:25:00	BASE	1.36	201	2.88	234	-2.7	100	-2.7	233	0	974.0	NA	0.0000		9999	2560	3080	0	0
2019/09/19 15:26:00	BASE	2.76	178	4.73	148	-2.7	100	-2.7	230	0	974.0	NA	0.0000		9999	3050	4070	0	0
2019/09/19 15:27:00	BASE	4.25	148	5.14	147	-2.7	100	-2.7	228	0	974.0	NA	0.0000		9999	2490	3080	0	0
2019/09/19 15:28:00	BASE	4.94	135	5.66	131	-2.7	100	-2.7	227	0	974.0	NA	0.0000		9000	2530	0	0	0
2019/09/19 15:29:00	BASE	5.08	133	5.66	131	-2.6	100	-2.6	224	0	974.0	NA	0.0000		9000	3020	4000	0	0
2019/09/19 15:30:00	BASE	4.65	129	5.66	131	-2.5	100	-2.5	222	0	974.0	NA	0.0000		9000	2720	4950	0	0
2019/09/19 15:31:00	BASE	4.78	126	5.97	130	-2.4	100	-2.4	223	0	974.0	NA	0.0000	UP	9000	2590	3870	0	0
2019/09/19 15:32:00	BASE	5.58	129	6.94	134	-2.3	100	-2.3	224	0	973.9	NA	0.0000	UP	9000	2560	0	0	0
2019/09/19 15:33:00	BASE	6.32	134	7.25	135	-2.3	100	-2.3	225	0	973.9	NA	0.0000	UP	9999	2820	0	0	0
2019/09/19 15:34:00	BASE	6.39	134	7.25	135	-2.3	100	-2.3	225	0	973.9	NA	0.0000	UP BR	9999	2620	0	0	0
2019/09/19 15:35:00	BASE	6.04	135	7.25	135	-2.3	100	-2.3	223	0	973.9	NA	0.0000	UP BR	9999	2920	3840	0	0
2019/09/19 15:36:00	BASE	5.67	142	7.25	135	-2.3	100	-2.3	218	0	973.9	NA	0.0000	UP BR	9999	2530	5090	0	0
2019/09/19 15:37:00	BASE	5.81	145	7.31	146	-2.3	100	-2.3	213	0	973.8	NA	0.0000	UP BR	9000	2920	5050	0	0
2019/09/19 15:38:00	BASE	6.50	144	7.36	142	-2.3	100	-2.3	210	0	973.8	NA	0.0000	UP BR	9000	2760	3540	0	0
2019/09/19 15:39:00	BASE	6.74	137	7.51	130	-2.3	100	-2.3	209	0	973.8	NA	0.0000	UP BR	9000	3350	0	0	0
2019/09/19 15:40:00	BASE	6.85	134	7.92	134	-2.3	100	-2.3	209	0	973.7	NA	0.0000	UP BR	9000	2790	0	0	0
2019/09/19 15:41:00	BASE	6.22	139	7.92	134	-2.3	100	-2.3	209	0	973.7	NA	0.0000	UP BR	9000	2400	4270	0	0
2019/09/19 15:42:00	BASE	5.21	150	7.92	134	-2.3	100	-2.3	209	0	973.7	NA	0.0000	UP BR	9000	2760	0	0	0
2019/09/19 15:43:00	BASE	4.46	157	7.92	134	-2.3	100	-2.3	208	0	973.7	NA	0.0000	UP BR	9000	4130	0	0	0
2019/09/19 15:44:00	BASE	4.26	150	7.92	134	-2.3	100	-2.3	207	0	973.7	NA	0.0000	UP BR	9999	2400	0	0	0
2019/09/19 15:45:00	BASE	4.87	148	7.92	134	-2.3	100	-2.3	207	0	973.7	NA	0.0000	UP BR	9999	4130	0	0	0
2019/09/19 15:46:00	BASE	4.98	150	7.92	134	-2.3	100	-2.3	207	0	973.7	NA	0.0000	UP BR	9999	2850	0	0	0
2019/09/19 15:47:00	BASE	4.60	138	7.92	134	-2.3	100	-2.3	208	0	973.7	NA	0.0000	UP BR	9999	2790	0	0	0
2019/09/19 15:48:00	BASE	4.40	129	7.92	134	-2.3	100	-2.3	207	0	973.7	NA	0.0000	UP	9999	2400	0	0	0
2019/09/19 15:49:00	BASE	3.65	121	7.92	134	-2.3	100	-2.3	204	0	973.7	NA	0.0000	UP	9999	2400	0	0	0
2019/09/19 15:50:00	BASE	2.83	72	6.17	139	-2.3	100	-2.3	202	0	973.7	NA	0.0000	UP	9999	2920	0	0	0
2019/09/19 15:51:00	BASE	2.49	88	5.86	161	-2.3	100	-2.3	200	0	973.7	NA	0.0000	UP	9999	2690	4100	0	0
2019/09/19 15:52:00	BASE	2.66	143	5.76	157	-2.2	100	-2.2	198	0	973.7	NA	0.0000	UP	9999	2890	4000	0	0
2019/09/19 15:53:00	BASE	3.27	143	5.76	157	-2.2	100	-2.2	198	0	973.6	NA	0.0000	UP	9999	2200	0	0	0
2019/09/19 15:54:00	BASE	3.76	140	5.76	157	-2.2	100	-2.2	198	0	973.6	NA	0.0000	UP	9999	2790	0	0	0
2019/09/19 15:55:00	BASE	5.20	136	7.56	123	-2.2	100	-2.2	197	0	973.6	NA	0.0000		9999	2760	17000	21130	0
2019/09/19 15:56:00	BASE	5.69	132	7.56	123	-2.2	100	-2.2	194	0	973.6	NA	0.0000		9999	3740	0	0	0
2019/09/19 15:57:00	BASE	4.46	133	7.56	123	-2.2	100	-2.2	192	0	973.6	NA	0.0000		9999	3670	0	0	0
2019/09/19 15:58:00	BASE	4.46	132	7.56	123	-2.3	100	-2.3	189	0	973.6	NA	0.0000		9999	2590	0	0	0
2019/09/19 15:59:00	BASE	4.47	122	7.56	123	-2.3	100	-2.3	186	0	973.6	NA	0.0000		9999	2590	0	0	0
2019/09/19 16:00:00	BASE	3.28	120	7.56	123	-2.3	100	-2.3	183	0	973.6	NA	0.0000		9999	2530	0	0	0
2019/09/19 16:01:00	BASE	1.67	142	7.56	123	-2.2	100	-2.2	182	0	973.6	NA	0.0000		9999	2130	20050	0	0
2019/09/19 16:02:00	BASE	1.21	189	7.56	123	-2.2	100	-2.2	180	0	973.6	NA	0.0000		9999	0	0	0	4270
2019/09/19 16:03:00	BASE	1.16	237	7.56	123	-2.2	100	-2.2	177	0	973.6	NA	0.0000		9999	0	0	0	4040
2019/09/19 16:04:00	BASE	0.38	212	7.56	123	-2.3	100	-2.3	176	0	973.6	NA	0.0000		9999	1940	0	0	0
2019/09/19 16:05:00	BASE	0.14	125	6.48	138	-2.3	100	-2.3	175	0	973.6	NA	0.0000	UP	9000	2170	3250	0	0
2019/09/19 16:06:00	BASE	0.73	74	5.56	132	-2.3	100	-2.3	174	0	973.6	NA	0.0000	UP	9000	3280	0	0	0
2019/09/19 16:07:00	BASE	1.15	43	5.14	129	-2.2	100	-2.2	174	0	973.7	NA	0.0000	UP	9000	2170	0	0	0
2019/09/19 16:08:00	BASE	1.12	73	5.09	119	-2.2	100	-2.2	175	0	973.6	NA	0.0000	UP	9000	1870	0	0	0
2019/09/19 16:09:00	BASE	2.34	110	5.45	152	-2.2	100	-2.2	177	0	973.6	NA	0.0000	UP	9000	2000	3180	0	0
2019/09/19 16:10:00	BASE	4.31	132	6.12	126	-2.2	100	-2.2	179	0	973.5	NA	0.0000	UP	9999	2260	3180	0	0
2019/09/19 16:11:00	BASE	5.17	136	6.12	126	-2.2	100	-2.2	181	0	973.5	NA	0.0000	UP	9000	2690	0	0	0
2019/09/19 16:12:00	BASE	4.94	134	6.12	126	-2.3	100	-2.3	182	0	973.6	NA	0.0000	UP BR	9000	2890	0	0	0
2019/09/19 16:13:00	BASE	5.28	127	6.17	130	-2.3	100	-2.3	182	0	973.5	NA	0.0000	UP BR	9000	3050	0	0	0
2019/09/19 16:14:00	BASE	5.57	126	6.17	130	-2.3	100	-2.3	182	0	973.5	NA	0.0000	UP BR	9000	2530	0	0	0
2019/09/19 16:15:00	BASE	5.17	130	6.28	137	-2.3	100	-2.3	183	0	973.5	NA	0.0000	UP BR	9000	2920	0	0	0
2019/09/19 16:16:00	BASE	5.35	139	6.28	137	-2.3	100	-2.3	184	0	973.5	NA	0.0000	UP BR	9000	2950	0	0	0
2019/09/19 16:17:00	BASE	5.70	150	6.33	159	-2.3	100	-2.3	185	0	973.5	NA	0.0000	UP BR	8000	2890	20180	0	0
2019/09/19 16:18:00	BASE	5.92	158	6.48	157	-2.3	100	-2.3	186	0	973.4	NA	0.0000	UP BR	7000	430	0	0	0
2019/09/19 16:19:00	BASE	5.65	162	6.48	157	-2.3	100	-2.3	187	0	973.5	NA	0.0000	UP BR	7000	2920	0	0	0
2019/09/19 16:20:00	BASE	5.30	162	6.48	157	-2.3	100	-2.3	187	0	973.4	NA	0.0000	UP BR	7000	1870	0	0	0
2019/09/19 16:21:00	BASE	5.22	163	6.48	157	-2.3	100	-2.3	186	0	973.4	NA	0.0000	UP BR	6000	2760	0	0	0
2019/09/19 16:22:00	BASE	5.24	165	6.48	157	-2.4	100	-2.4	185	0	973.4	NA	0.0000	UP BR	5000	690	0	0	0
2019/09/19 16:23:00	BASE	5.39	161	6.48	157	-2.4	100	-2.4	185	0	973.4	NA	0.0000	UP BR	5000	430	0	0	0
2019/09/19 16:24:00	BASE	5.56	160	6.48	157	-2.4	100	-2.4	187	0	973.4	NA	0.0000	UP BR	4800	390	0	0	0
2019/09/19 16:25:00	BASE	5.79	161	6.48	157	-2.5	100	-2.5	191	0	973.3	NA	0.0000	UP BR	4500	390	0	0	0
2019/09/19 16:26:00	BASE	5.91	156	6.48	157	-2.5	100	-2.5	193	0	973.3	NA	0.0000	UP BR	5000	430	0	0	0
2019/09/19 16:27:00	BASE	5.61	149	6.48	157	-2.5	100	-2.5	194	0	973.4	NA	0.0000	UP BR	4200	430	0	0	0
2019/09/19 16:28:00	BASE	5.80	146	7.25	148	-2.5	100	-2.5	195	0	973.4	NA	0.0000	UP BR	4200	430	0	0	0
2019/09/19 16:29:00	BASE	6.39	146	7.25	147	-2.5	100	-2.5	197	0	973.4	NA	0.0000	UP BR	4600	390	0	0	0
2019/09/19 16:30:00	BASE	6.61	141	7.36	131	-2.5	100	-2.5	199	0	973.4	NA	0.0000	UP BR	5000	390	0	0	0
2019/09/19 16:31:00	BASE	6.97	136	8.08	132	-2.5	100	-2.5	203	0	973.4	NA	0.0000	UP BR	6000	390	19390	0	0
2019/09/19 16:32:00	BASE	6.27	139	8.08	132	-2.5	100	-2.5	206	0	973.3	NA	0.0000	UP BR	5000	360	0	0	0
2019/09/19 16:33:00	BASE	6.16	140	8.08	132	-2.5	100	-2.5	206	0	973.3	NA	0.0000	UP BR	4800	2720	0	0	0
2019/09/19 16:34:00	BASE	6.76	134	8.08	132	-2.5	100	-2.5	206	0	973.3	NA	0.0000	UP BR	4900	2030	2760	0	0
2019/09/19 16:35:00	BASE	6.13	126	8.08	132	-2.5	100	-2.5	205	0	973.3	NA	0.0000	UP BR	6000	1940	2790	0	0
2019/09/19 16:36:00	BASE	6.12	119	8.08	132	-2.5	100	-2.5	203	0	973.3	NA	0.0000	UP BR	6000	3020	0	0	0
2019/09/19 16:37:00	BASE	6.11	119	8.08	132	-2.5	100	-2.5	200	0	973.3	NA	0.0000	UP BR	8000	3480	0	0	0
2019/09/19 16:38:00	BASE	5.24	126	8.08	132	-2.5	100	-2.5	198	0	973.3	NA	0.0000	UP BR	9000	1870	0	0	0
2019/09/19 16:39:00	BASE	5.18	119	8.08	132	-2.5	100	-2.5	198	0	973.4	NA	0.0000	UP BR	8000	2530	0	0	0
2019/09/19 16:40:00	BASE	5.76	108	8.08	132	-2.5	100	-2.5	196	0	973.4	NA	0.0000	UP BR	9000	2990	0	0	0
2019/09/19 16:41:00	BASE	5.43	114	7.31	122	-2.4	100	-2.4	191	0	973.4	NA	0.0000	UP BR	9000	3050	0	0	0
2019/09/19 16:42:00	BASE	5.04	140	7.31	122	-2.4	100	-2.4	185	0	973.2	NA	0.0000	UP BR	9000	3120	0	0	0
2019/09/19 16:43:00	BASE	5.30	165	7.31	122	-2.4	100	-2.4	180	0	973.2	NA	0.0000	UP BR	8000	1770	3380	0	0
2019/09/19 16:44:00	BASE	4.86	156	7.31	122	-2.5	100	-2.5	176	0	973.3	NA	0.0000	UP BR	7000	1710	0	0	0
2019/09/19 16:45:00	BASE	5.03	123	7.31	122	-2.5	100	-2.5	173	0	973.3	NA	0.0000	UP BR	7000	1710	0	0	0
2019/09/19 16:46:00	BASE	5.21	111	6.84	110	-2.5	100	-2.5	170	0	973.3	NA	0.0000	UP BR	8000	1640	18930	0	0
2019/09/19 16:47:00	BASE	4.23	121	6.84	110	-2.4	100	-2.4	168	0	973.3	NA	0.0000	UP BR	5000	1800	0	0	0
2019/09/19 16:48:00	BASE	3.62	127	6.84	110	-2.4	100	-2.4	166	0	973.3	NA	0.0000	-SN BR	3800	690	3480	0	0
2019/09/19 16:49:00	BASE	4.37	127	6.84	110	-2.3	100	-2.3	162	0	973.3	NA	0.0000	-SN BR	6000	430	0	0	0
2019/09/19 16:50:00	BASE	5.62	126	6.84	110	-2.3	100	-2.3	157	0	973.3	NA	0.0000	-SN BR	6000	430	0	0	0
2019/09/19 16:51:00	BASE	5.43	126	6.69	121	-2.3	100	-2.3	154	0	973.3	NA	0.0000	-SN BR	4700	390	0	0	0
2019/09/19 16:52:00	BASE	5.40	121	6.74	119	-2.3	100	-2.3	156	0	973.3	NA	0.0000	-SN BR	4900	390	0	0	0
2019/09/19 16:53:00	BASE	6.15	121	7.51	116	-2.4	100	-2.4	157	0	973.2	NA	0.0000	-SN BR	4400	390	0	0	0
2019/09/19 16:54:00	BASE	6.32	130	7.51	116	-2.4	100	-2.4	163	0	973.1	NA	0.0000	-SN BR	3700	260	0	0	0
2019/09/19 16:55:00	BASE	5.89	136	7.51	116	-2.4	100	-2.4	174	0	973.0	NA	0.0000	-SN BR	2400	0	0	0	1480
2019/09/19 16:56:00	BASE	5.36	139	7.51	116	-2.3	100	-2.3	187	0	973.1	NA	0.0000	-SN BR	1100	0	0	0	1940
2019/09/19 16:57:00	BASE	5.43	137	7.51	116	-2.3	100	-2.3	200	0	973.1	NA	0.0000	-SN BR	0550	0	0	0	2590
2019/09/19 16:58:00	BASE	6.02	136	7.51	116	-2.3	100	-2.3	211	0	973.0	NA	0.0000	-SN BR	0450	0	0	0	3180
2019/09/19 16:59:00	BASE	5.93	142	7.51	116	-2.3	100	-2.3	220	0	973.0	NA	0.0000	-SN BR	0550	0	0	0	2790
2019/09/19 17:00:00	BASE	5.49	141	7.51	116	-2.3	100	-2.3	229	0	973.0	NA	0.0000	-SN BR	0900	0	0	0	2950
2019/09/19 17:01:00	BASE	4.87	135	7.51	116	-2.3	100	-2.3	233	0	973.0	NA	0.0000	+SN BR	1500	300	0	0	0
2019/09/19 17:02:00	BASE	4.14	126	7.51	116	-2.2	100	-2.2	234	0	972.9	NA	0.0000	-SN BR	2200	3310	0	0	0
2019/09/19 17:03:00	BASE	4.57	125	6.94	129	-2.2	100	-2.2	233	0	972.9	NA	0.0000	-SN BR	2500	430	0	0	0
2019/09/19 17:04:00	BASE	6.36	130	8.90	130	-2.1	100	-2.1	235	0	972.9	NA	0.0000	-SN BR	3100	2660	3410	0	0
2019/09/19 17:05:00	BASE	6.85	131	8.90	130	-2.1	100	-2.1	237	0	972.9	NA	0.0000	-SN BR	4100	0	0	0	5410
2019/09/19 17:06:00	BASE	6.62	130	8.90	130	-2.2	100	-2.2	239	0	972.9	NA	0.0000	-SN BR	4100	390	0	0	0
2019/09/19 17:07:00	BASE	7.40	133	8.90	130	-2.2	100	-2.2	244	0	972.8	NA	0.0000	-SN BR	4300	0	0	0	4820
2019/09/19 17:08:00	BASE	7.31	137	8.90	130	-2.3	100	-2.3	248	0	972.8	NA	0.0000	-SN BR	3700	2490	0	0	0
2019/09/19 17:09:00	BASE	6.79	141	8.90	130	-2.4	100	-2.4	249	0	972.8	NA	0.0000	-SN BR	4600	0	0	0	4820
2019/09/19 17:10:00	BASE	6.73	149	8.90	130	-2.4	100	-2.4	249	0	972.8	NA	0.0000	-SN BR	5000	390	0	0	0
2019/09/19 17:11:00	BASE	6.48	147	8.90	130	-2.4	100	-2.4	247	0	972.8	NA	0.0000	-SN BR	3900	3380	0	0	0
2019/09/19 17:12:00	BASE	6.67	134	8.90	130	-2.4	100	-2.4	243	0	972.8	NA	0.0000	-SN BR	4100	2660	0	0	0
2019/09/19 17:13:00	BASE	7.45	128	8.90	130	-2.4	100	-2.4	238	0	972.8	NA	0.0000	-SN BR	3800	1710	2720	0	0
2019/09/19 17:14:00	BASE	7.56	127	8.90	130	-2.4	100	-2.4	235	0	972.9	NA	0.0000	-SN BR	5000	2690	0	0	0
2019/09/19 17:15:00	BASE	6.96	128	8.90	130	-2.3	100	-2.3	232	0	972.9	NA	0.0000	-SN BR	8000	2620	21260	0	0
2019/09/19 17:16:00	BASE	6.31	125	8.90	130	-2.3	100	-2.3	230	0	972.9	NA	0.0000	-SN BR	8000	2590	0	0	0
2019/09/19 17:17:00	BASE	6.27	124	8.90	130	-2.3	100	-2.3	229	0	972.9	NA	0.0000	-SN BR	6000	2360	0	0	0
2019/09/19 17:18:00	BASE	6.81	138	8.90	130	-2.3	100	-2.3	228	0	972.8	NA	0.0000	-SN BR	4500	2330	22210	0	0
2019/09/19 17:19:00	BASE	7.39	146	8.90	130	-2.3	100	-2.3	231	0	972.8	NA	0.0000	-SN BR	2400	2300	0	0	0
2019/09/19 17:20:00	BASE	7.74	147	8.90	130	-2.3	100	-2.3	237	0	972.8	NA	0.0000	-SN BR	2600	2690	0	0	0
2019/09/19 17:21:00	BASE	7.31	146	8.90	130	-2.3	100	-2.3	241	0	972.8	NA	0.0000	-SN BR	2700	3220	0	0	0
2019/09/19 17:22:00	BASE	6.81	147	8.90	130	-2.3	100	-2.3	241	0	972.8	NA	0.0000	-SN BR	2800	3020	0	0	0
2019/09/19 17:23:00	BASE	6.44	144	8.39	151	-2.3	100	-2.3	241	0	972.8	NA	0.0000	-SN BR	2800	390	0	0	0
2019/09/19 17:24:00	BASE	5.58	140	8.39	151	-2.3	100	-2.3	245	0	972.8	NA	0.0000	-SN BR	3800	3050	0	0	0
2019/09/19 17:25:00	BASE	5.21	146	8.39	151	-2.3	100	-2.3	254	0	972.8	NA	0.0000	-SN BR	6000	390	0	0	0
2019/09/19 17:26:00	BASE	5.38	155	8.39	151	-2.3	100	-2.3	264	0	972.8	NA	0.0000	-SN BR	9999	3380	3900	0	0
2019/09/19 17:27:00	BASE	6.09	154	8.39	151	-2.3	100	-2.3	276	0	972.7	NA	0.0000	-SN BR	9999	3180	0	0	0
2019/09/19 17:28:00	BASE	6.32	140	8.39	151	-2.3	100	-2.3	286	0	972.8	NA	0.0000	-SN BR	9999	3150	0	0	0
2019/09/19 17:29:00	BASE	5.84	132	8.39	151	-2.2	100	-2.2	291	0	972.7	NA	0.0000	-SN BR	9999	2850	4130	0	0
2019/09/19 17:30:00	BASE	5.59	137	7.72	149	-2.2	100	-2.2	296	0	972.7	NA	0.0000	-SN BR	9999	2690	21560	0	0
2019/09/19 17:31:01	BASE	5.73	143	7.25	144	-2.2	100	-2.2	297	0	972.7	NA	0.0000	-SN BR	9999	2820	0	0	0
2019/09/19 17:32:00	BASE	6.66	143	7.72	135	-2.2	100	-2.2	297	0	972.6	NA	0.0000	-SN BR	7000	2490	0	0	0
2019/09/19 17:33:00	BASE	7.17	138	7.72	135	-2.2	100	-2.2	294	0	972.7	NA	0.0000	-SN BR	4500	2530	0	0	0
2019/09/19 17:34:00	BASE	6.93	138	7.72	135	-2.2	100	-2.2	297	0	972.6	NA	0.0000	-SN BR	6000	2690	0	0	0
2019/09/19 17:35:00	BASE	6.91	152	7.72	135	-2.2	100	-2.2	303	0	972.6	NA	0.0000	-SN BR	5000	2760	22510	0	0
2019/09/19 17:36:00	BASE	6.98	156	7.77	146	-2.2	100	-2.2	307	0	972.6	NA	0.0000	-SN BR	6000	2850	0	0	0
2019/09/19 17:37:00	BASE	7.25	152	8.08	153	-2.1	100	-2.1	314	0	972.6	NA	0.0000	-SN BR	6000	2890	0	0	0
2019/09/19 17:38:00	BASE	7.31	152	8.08	153	-2.1	100	-2.1	318	0	972.6	NA	0.0000	-SN BR	9999	2920	0	0	0
2019/09/19 17:39:00	BASE	6.04	147	8.08	153	-2.1	100	-2.1	316	0	972.7	NA	0.0000	-SN BR	9999	2890	0	0	0
2019/09/19 17:40:00	BASE	5.04	146	8.08	153	-2.1	100	-2.1	315	0	972.6	NA	0.0000	-SN BR	9999	3120	0	0	0
2019/09/19 17:41:00	BASE	5.29	147	8.08	153	-2.0	100	-2.0	311	0	972.6	NA	0.0000	-SN BR	8000	3080	7120	0	0
2019/09/19 17:42:00	BASE	5.13	142	8.08	153	-2.0	100	-2.0	310	0	972.6	NA	0.0000	-SN BR	4200	2850	0	0	0
2019/09/19 17:43:00	BASE	5.65	143	8.08	153	-1.9	100	-1.9	308	0	972.5	NA	0.0000	-SN BR	3000	3020	6100	0	0
2019/09/19 17:44:00	BASE	6.63	142	8.08	153	-1.9	100	-1.9	308	0	972.4	NA	0.0000	-SN BR	2600	5970	0	0	0
2019/09/19 17:45:00	BASE	6.43	131	8.08	153	-1.8	100	-1.8	312	0	972.5	NA	0.0000	-SN BR	4300	5810	0	0	0
2019/09/19 17:46:00	BASE	4.93	133	8.08	153	-1.8	100	-1.8	352	0	972.6	NA	0.0000	-SN BR	6000	5350	21750	0	0
2019/09/19 17:47:00	BASE	3.17	149	7.92	154	-1.7	100	-1.7	328	0	972.4	NA	0.0000	-SN BR	6000	6430	0	0	0
2019/09/19 17:48:00	BASE	2.98	151	7.56	132	-1.7	100	-1.7	312	0	972.5	NA	0.0000	-SN BR	8000	6330	0	0	0
2019/09/19 17:49:00	BASE	3.06	143	7.56	132	-1.7	100	-1.7	295	0	972.5	NA	0.0000	-SN BR	9999	6230	0	0	0
2019/09/19 17:50:00	BASE	3.38	134	7.56	132	-1.7	100	-1.7	287	0	972.5	NA	0.0000	-SN BR	6000	6300	0	0	0
2019/09/19 17:51:00	BASE	3.24	134	7.56	132	-1.7	100	-1.7	271	0	972.4	NA	0.0000	-SN BR	2800	390	6170	0	0
2019/09/19 17:52:00	BASE	2.84	136	7.56	132	-1.7	100	-1.7	265	0	972.4	NA	0.0000	-SN BR	2700	0	0	0	1480
2019/09/19 17:53:00	BASE	2.23	120	7.56	132	-1.7	100	-1.7	257	0	972.5	NA	0.0000	-SN BR	3100	300	0	0	0
2019/09/19 17:54:00	BASE	1.36	82	7.56	132	-1.6	100	-1.6	267	0	972.4	NA	0.0000	-SN BR	9000	0	0	0	1080
2019/09/19 17:55:00	BASE	4.41	35	9.05	12	-1.5	100	-1.5	285	0	972.4	NA	0.0000	-SN BR	5000	0	0	0	980
2019/09/19 17:56:00	BASE	7.41	357	9.41	354	-1.4	100	-1.4	341	0	972.3	NA	0.0000	-SN BR	4500	0	0	0	820
2019/09/19 17:57:00	BASE	6.50	347	9.41	354	-1.2	100	-1.2	331	0	972.3	NA	0.0000	-SN BR	9999	0	0	0	1120
2019/09/19 17:58:00	BASE	5.29	342	9.41	354	-1.1	100	-1.1	323	0	972.3	NA	0.0000	-SN BR	9999	0	0	0	3480
2019/09/19 17:59:00	BASE	5.52	355	9.41	354	-1.0	100	-1.0	324	0	972.3	NA	0.0000	-SN BR	9999	5810	0	0	0
2019/09/19 18:00:00	BASE	8.47	17	12.86	24	-0.9	100	-0.9	347	0	972.3	NA	0.0000	-SN BR	9999	5740	6460	0	0
2019/09/19 18:01:00	BASE	10.42	20	12.86	24	-0.7	100	-0.7	346	0	972.3	NA	0.0000	-SN BR	9999	5640	0	0	0
2019/09/19 18:02:00	BASE	9.45	17	12.86	24	-0.6	100	-0.6	339	0	972.3	NA	0.0000	-SN BR	9999	5640	0	0	0
2019/09/19 18:03:00	BASE	9.00	1	12.86	24	-0.4	100	-0.4	390	0	972.3	NA	0.0000	-SN BR	9999	6400	0	0	0
2019/09/19 18:04:00	BASE	8.03	344	12.86	24	-0.3	100	-0.3	410	0	972.3	NA	0.0000	-SN	9999	4860	5810	0	0
2019/09/19 18:05:00	BASE	7.18	341	12.86	24	-0.3	100	-0.3	396	0	972.3	NA	0.0000	-SN	9999	5250	6820	0	0
2019/09/19 18:06:00	BASE	7.55	349	12.86	24	-0.3	100	-0.3	350	0	972.3	NA	0.0000	-SN	9999	5050	6960	0	0
2019/09/19 18:07:00	BASE	8.49	4	12.86	24	-0.3	100	-0.3	346	0	972.2	NA	0.0000	-SN	9999	4660	0	0	0
2019/09/19 18:08:00	BASE	8.95	13	12.86	24	-0.3	100	-0.3	311	0	972.2	NA	0.0000	-SN	9999	4360	0	0	0
2019/09/19 18:09:00	BASE	8.81	12	12.86	24	-0.2	100	-0.2	302	0	972.2	NA	0.0000		9999	5120	0	0	0
2019/09/19 18:10:00	BASE	9.41	14	11.63	26	-0.1	100	-0.1	299	0	972.1	NA	0.0000		9999	4890	0	0	0
2019/09/19 18:11:00	BASE	9.71	18	11.11	26	-0.0	100	-0.0	288	0	972.1	NA	0.0000		9999	5250	0	0	0
2019/09/19 18:12:00	BASE	8.46	20	11.11	26	0.0	100	0.0	281	0	972.1	NA	0.0000		9999	5220	0	0	0
2019/09/19 18:13:00	BASE	8.56	23	11.11	26	0.1	100	0.1	273	0	972.1	NA	0.0000		9999	5320	0	0	0
2019/09/19 18:14:00	BASE	9.98	24	12.81	28	0.1	100	0.1	268	0	972.1	NA	0.0000		9999	4820	0	0	0
2019/09/19 18:15:00	BASE	10.18	23	12.81	28	0.1	100	0.1	266	0	972.1	NA	0.0000		9999	4990	0	0	0
2019/09/19 18:16:00	BASE	9.91	24	12.81	28	0.2	100	0.2	268	0	972.1	NA	0.0000		9999	5180	0	0	0
2019/09/19 18:17:00	BASE	9.92	27	12.81	28	0.2	100	0.2	278	0	972.0	NA	0.0000		9999	5150	19420	0	0
2019/09/19 18:18:00	BASE	11.32	32	14.92	30	0.2	99	0.1	299	0	971.9	NA	0.0000		9999	0	0	0	3840
2019/09/19 18:19:00	BASE	11.70	32	14.92	30	0.2	99	0.1	306	0	971.9	NA	0.0000		9999	0	0	0	4200
2019/09/19 18:20:00	BASE	11.42	29	14.97	31	0.2	98	-0.0	303	0	971.8	NA	0.0000	-SN	9999	21230	22510	0	0
2019/09/19 18:21:00	BASE	12.55	28	15.38	19	0.2	98	-0.1	330	0	971.8	NA	0.0000	-SN	9999	0	0	0	5090
2019/09/19 18:22:00	BASE	14.91	32	18.67	39	0.2	97	-0.2	451	0	971.7	NA	0.0000	-SN	9999	0	0	0	5090
2019/09/19 18:23:00	BASE	15.68	30	18.67	39	0.3	97	-0.2	440	0	971.7	NA	0.0000	-SN	6000	6660	0	0	0
2019/09/19 18:24:00	BASE	15.30	27	18.67	39	0.3	96	-0.2	313	0	971.6	NA	0.0000	-SN	8000	6590	0	0	0
2019/09/19 18:25:00	BASE	15.51	29	18.67	39	0.4	95	-0.3	322	0	971.6	NA	0.0000	-SN	9000	6630	0	0	0
2019/09/19 18:26:00	BASE	16.07	29	18.93	30	0.4	95	-0.4	399	0	971.6	NA	0.0000	-SN	9999	5540	6660	0	0
2019/09/19 18:27:00	BASE	16.04	27	18.93	30	0.5	94	-0.4	418	0	971.6	NA	0.0000	-SN	9999	5220	6590	0	0
2019/09/19 18:28:00	BASE	15.50	28	18.93	30	0.5	93	-0.5	333	0	971.6	NA	0.0000	-SN	9999	5250	0	0	0
2019/09/19 18:29:00	BASE	16.00	28	18.93	30	0.5	93	-0.5	435	0	971.5	NA	0.0000	-SN	9999	5250	0	0	0
2019/09/19 18:30:00	BASE	16.90	27	19.19	26	0.6	92	-0.6	352	0	971.5	NA	0.0000	-SN	9999	4950	0	0	0
2019/09/19 18:31:00	BASE	17.22	29	19.19	26	0.6	91	-0.7	341	0	971.5	NA	0.0000	-SN	9999	4760	0	0	0
2019/09/19 18:32:00	BASE	17.37	27	19.86	27	0.6	90	-0.8	307	0	971.5	NA	0.0000	-SN	9999	0	0	0	5320
2019/09/19 18:33:00	BASE	18.38	28	20.68	33	0.6	89	-0.9	433	0	971.4	NA	0.0000	-SN	9999	4400	0	0	0
2019/09/19 18:34:00	BASE	17.83	31	20.68	33	0.6	88	-1.1	377	0	971.5	NA	0.0000	-SN	7000	0	0	0	5350
2019/09/19 18:35:00	BASE	17.48	30	20.73	35	0.7	88	-1.1	316	0	971.5	NA	0.0000	-SN	7000	390	0	0	0
2019/09/19 18:36:00	BASE	16.98	30	20.73	35	0.7	87	-1.2	382	0	971.5	NA	0.0000	-SN	7000	22470	0	0	0
2019/09/19 18:37:00	BASE	16.06	31	20.73	35	0.7	87	-1.2	375	0	971.5	NA	0.0000	-SN BR	6000	6760	0	0	0
2019/09/19 18:38:00	BASE	17.16	30	20.73	35	0.7	87	-1.2	359	0	971.5	NA	0.0000	-SN BR	6000	6820	0	0	0
2019/09/19 18:39:00	BASE	17.07	30	20.73	35	0.7	87	-1.3	304	0	971.5	NA	0.0000	-SN BR	5000	4330	0	0	0
2019/09/19 18:40:00	BASE	16.45	29	20.73	35	0.6	87	-1.3	256	0	971.5	NA	0.0000	-SN BR	4600	0	0	0	5050
2019/09/19 18:41:00	BASE	16.96	30	20.73	35	0.6	87	-1.4	252	0	971.5	NA	0.0000	-SN BR	9000	5280	0	0	0
2019/09/19 18:42:00	BASE	16.60	35	20.73	35	0.6	86	-1.4	295	0	971.5	NA	0.0000	-SN BR	9999	6460	0	0	0
2019/09/19 18:43:00	BASE	17.05	34	20.73	35	0.6	86	-1.5	355	0	971.4	NA	0.0000	-SN BR	9999	6500	0	0	0
2019/09/19 18:44:00	BASE	17.82	31	20.73	35	0.6	86	-1.5	317	0	971.4	NA	0.0000	-SN BR	9999	6370	0	0	0
2019/09/19 18:45:00	BASE	17.87	34	21.76	33	0.6	86	-1.5	262	0	971.3	NA	0.0000	-SN BR	9999	6170	0	0	0
2019/09/19 18:46:00	BASE	17.93	34	21.76	33	0.6	86	-1.5	251	0	971.3	NA	0.0000	-SN BR	9999	6270	0	0	0
2019/09/19 18:47:00	BASE	18.84	33	22.74	40	0.6	86	-1.5	244	0	971.2	NA	0.0000	-SN BR	9999	6460	0	0	0
2019/09/19 18:48:00	BASE	20.36	33	22.94	32	0.5	86	-1.5	236	0	971.2	NA	0.0000	-SN BR	9000	6370	0	0	0
2019/09/19 18:49:00	BASE	20.12	32	22.94	32	0.5	86	-1.6	228	0	971.2	NA	0.0000	-SN	9999	6500	0	0	0
2019/09/19 18:50:00	BASE	19.71	31	23.30	27	0.5	86	-1.6	223	0	971.2	NA	0.0000	-SN	9999	6400	0	0	0
2019/09/19 18:51:00	BASE	19.61	31	23.30	27	0.5	86	-1.6	220	0	971.2	NA	0.0000	-SN	7000	6430	0	0	0
2019/09/19 18:52:00	BASE	19.24	31	23.30	27	0.4	86	-1.6	217	0	971.1	NA	0.0000	-SN	6000	6400	0	0	0
2019/09/19 18:53:00	BASE	20.10	32	23.30	27	0.4	86	-1.6	217	0	971.1	NA	0.0000	-SN BR	7000	6530	0	0	0
2019/09/19 18:54:00	BASE	21.11	33	23.30	30	0.4	86	-1.6	233	0	971.1	NA	0.0000	-SN BR	6000	6820	0	0	0
2019/09/19 18:55:00	BASE	20.74	32	23.87	26	0.4	87	-1.5	244	0	971.1	NA	0.0000	-SN BR	7000	6860	0	0	0
2019/09/19 18:56:00	BASE	19.93	32	23.87	26	0.5	87	-1.5	248	0	971.1	NA	0.0000	-SN BR	9999	7050	0	0	0
2019/09/19 18:57:00	BASE	19.75	33	23.87	26	0.5	87	-1.5	285	0	971.1	NA	0.0000	-SN BR	9999	6430	6990	0	0
2019/09/19 18:58:00	BASE	19.66	32	23.87	26	0.5	86	-1.5	255	0	971.1	NA	0.0000	-SN BR	9999	6960	0	0	0
2019/09/19 18:59:00	BASE	19.38	28	23.87	26	0.5	86	-1.5	240	0	971.1	NA	0.0000	-SN BR	9999	7020	0	0	0
2019/09/19 19:00:00	BASE	19.91	28	23.87	26	0.5	86	-1.5	224	0	971.0	NA	0.0000	-SN BR	9999	7280	0	0	0
2019/09/19 19:01:00	BASE	20.33	27	23.87	26	0.6	86	-1.5	208	0	971.0	NA	0.0000	-SN BR	9999	7420	0	0	0
2019/09/19 19:02:00	BASE	19.76	30	23.87	26	0.6	86	-1.5	203	0	971.0	NA	0.0000	-SN	9999	7710	0	0	0
2019/09/19 19:03:00	BASE	20.42	33	23.87	26	0.5	86	-1.5	209	0	971.0	NA	0.0000	-SN	9999	7420	0	0	0
2019/09/19 19:04:00	BASE	21.85	29	25.67	27	0.5	86	-1.5	212	0	971.0	NA	0.0000	-SN	9999	590	0	0	0
2019/09/19 19:05:00	BASE	22.02	28	25.67	27	0.5	86	-1.6	221	0	970.9	NA	0.0000	-SN	9000	520	0	0	0
2019/09/19 19:06:00	BASE	20.82	30	25.67	27	0.5	86	-1.6	250	0	971.0	NA	0.0000	-SN	6000	820	0	0	0
2019/09/19 19:07:00	BASE	19.53	30	25.67	27	0.5	86	-1.6	224	0	971.1	NA	0.0000	-SN	9999	0	0	0	4300
2019/09/19 19:08:00	BASE	19.49	30	25.67	27	0.5	86	-1.6	224	0	971.0	NA	0.0000	-SN	9999	0	0	0	2620
2019/09/19 19:09:00	BASE	19.94	30	25.67	27	0.5	86	-1.5	209	0	971.0	NA	0.0000	-SN	9000	0	0	0	5050
2019/09/19 19:10:00	BASE	20.98	31	25.67	27	0.4	87	-1.5	205	0	971.0	NA	0.0000	-SN BR	5000	0	0	0	3770
2019/09/19 19:11:00	BASE	22.24	33	25.67	27	0.4	87	-1.5	199	0	971.0	NA	0.0000	-SN BR	2900	0	0	0	5710
2019/09/19 19:12:00	BASE	22.22	34	25.67	27	0.4	87	-1.5	199	0	971.0	NA	0.0000	-SN BR	1600	0	0	0	5510
2019/09/19 19:13:00	BASE	22.31	33	25.67	27	0.3	87	-1.5	196	0	971.0	NA	0.0000	-SN BR	1600	260	0	0	0
2019/09/19 19:14:00	BASE	21.02	34	25.21	33	0.3	87	-1.6	189	0	971.0	NA	0.0000	-SN BR	1700	0	0	0	3970
2019/09/19 19:15:00	BASE	19.81	34	25.21	33	0.3	88	-1.5	181	0	971.0	NA	0.0000	-SN BR	2500	0	0	0	4130
2019/09/19 19:16:00	BASE	20.21	34	25.21	33	0.2	88	-1.5	176	0	971.0	NA	0.0000	-SN BR	3700	0	0	0	5770
2019/09/19 19:17:00	BASE	19.02	30	25.21	33	0.2	89	-1.5	188	0	971.0	NA	0.0000	-SN BR	4300	330	0	0	0
2019/09/19 19:18:00	BASE	18.06	30	25.21	33	0.2	89	-1.4	193	0	971.1	NA	0.0000	-SN BR	8000	750	0	0	0
2019/09/19 19:19:00	BASE	18.32	30	25.21	33	0.2	89	-1.4	192	0	971.0	NA	0.0000	-SN BR	9999	5710	0	0	0
2019/09/19 19:20:00	BASE	18.82	29	25.21	33	0.2	89	-1.4	199	0	971.0	NA	0.0000	-SN BR	9999	4790	0	0	0
2019/09/19 19:21:00	BASE	19.02	30	25.21	33	0.2	89	-1.4	204	0	970.9	NA	0.0000	-SN BR	9999	4920	0	0	0
2019/09/19 19:22:00	BASE	19.17	29	24.54	33	0.2	89	-1.3	206	0	970.9	NA	0.0000	-SN BR	9999	4820	0	0	0
2019/09/19 19:23:00	BASE	19.58	29	22.48	42	0.2	90	-1.3	260	0	970.9	NA	0.0000	-SN BR	9999	5220	24310	0	0
2019/09/19 19:24:00	BASE	19.28	27	21.71	29	0.2	90	-1.3	250	0	970.9	NA	0.0000	-SN BR	9999	5050	0	0	0
2019/09/19 19:25:00	BASE	18.69	25	21.66	31	0.3	90	-1.2	351	0	970.9	NA	0.0000	-SN BR	9999	0	0	0	4690
2019/09/19 19:26:00	BASE	18.71	23	21.61	25	0.3	90	-1.2	350	0	970.9	NA	0.0000	-SN	9999	0	0	0	5020
2019/09/19 19:27:00	BASE	20.80	22	26.13	25	0.4	89	-1.2	349	0	970.8	NA	0.0000	-SN	9999	7350	0	0	0
2019/09/19 19:28:00	BASE	21.75	23	26.13	25	0.5	89	-1.1	298	0	970.8	NA	0.0000	-SN	9999	6990	8600	0	0
2019/09/19 19:29:00	BASE	21.21	23	26.13	25	0.5	89	-1.1	228	0	970.7	NA	0.0000		9999	7090	8760	0	0
2019/09/19 19:30:00	BASE	21.42	24	26.13	25	0.6	88	-1.2	209	0	970.7	NA	0.0000		9999	7120	8140	0	0
2019/09/19 19:31:00	BASE	20.55	26	26.13	25	0.6	88	-1.2	193	0	970.8	NA	0.0000		9999	8860	0	0	0
2019/09/19 19:32:00	BASE	19.92	27	26.13	25	0.6	87	-1.3	184	0	970.7	NA	0.0000		9999	9380	0	0	0
2019/09/19 19:33:00	BASE	20.46	25	26.13	25	0.6	87	-1.4	166	0	970.6	NA	0.0000		9999	9710	0	0	0
2019/09/19 19:34:00	BASE	21.05	23	26.13	25	0.5	87	-1.4	152	0	970.6	NA	0.0000		9999	7510	10010	0	0
2019/09/19 19:35:00	BASE	21.57	23	26.13	25	0.5	87	-1.5	150	0	970.6	NA	0.0000		9999	7480	0	0	0
2019/09/19 19:36:00	BASE	22.34	24	26.13	25	0.5	87	-1.5	147	0	970.5	NA	0.0000		9999	7580	0	0	0
2019/09/19 19:37:00	BASE	22.55	24	25.77	25	0.5	87	-1.5	145	0	970.5	NA	0.0000	-SN	7000	7580	0	0	0
2019/09/19 19:38:00	BASE	21.33	24	25.77	25	0.5	87	-1.5	142	0	970.6	NA	0.0000	-SN	9000	0	0	0	3050
2019/09/19 19:39:00	BASE	20.10	22	25.77	25	0.5	87	-1.5	136	0	970.6	NA	0.0000	-SN	9000	9350	0	0	0
2019/09/19 19:40:00	BASE	20.65	22	25.77	25	0.5	87	-1.5	132	0	970.5	NA	0.0000	-SN	9999	8960	0	0	0
2019/09/19 19:41:00	BASE	20.84	23	25.77	25	0.5	87	-1.4	129	0	970.6	NA	0.0000	-SN	9999	8400	0	0	0
2019/09/19 19:42:00	BASE	20.40	23	25.77	25	0.4	87	-1.4	125	0	970.5	NA	0.0000	-SN	7000	7810	0	0	0
2019/09/19 19:43:00	BASE	21.65	21	25.77	25	0.4	88	-1.4	125	0	970.4	NA	0.0000	-SN BR	5000	7840	0	0	0
2019/09/19 19:44:00	BASE	22.46	23	25.77	25	0.4	88	-1.4	123	0	970.4	NA	0.0000	-SN BR	9000	8040	0	0	0
2019/09/19 19:45:00	BASE	22.49	22	25.77	25	0.4	88	-1.4	123	0	970.4	NA	0.0000	-SN BR	8000	7970	0	0	0
2019/09/19 19:46:00	BASE	22.67	21	25.57	23	0.4	88	-1.4	126	0	970.4	NA	0.0000	-SN BR	9999	7910	0	0	0
2019/09/19 19:47:00	BASE	22.53	22	25.83	17	0.4	88	-1.4	129	0	970.3	NA	0.0000	-SN BR	9999	7840	0	0	0
2019/09/19 19:48:00	BASE	21.89	22	25.83	17	0.4	88	-1.3	131	0	970.4	NA	0.0000	-SN BR	9999	0	0	0	5350
2019/09/19 19:49:00	BASE	21.01	22	25.83	17	0.4	88	-1.4	129	0	970.4	NA	0.0000	-SN BR	9999	0	0	0	6530
2019/09/19 19:50:00	BASE	20.67	23	25.83	17	0.4	88	-1.4	124	0	970.5	NA	0.0000	-SN BR	9999	5910	0	0	0
2019/09/19 19:51:00	BASE	19.55	25	25.83	17	0.4	87	-1.4	121	0	970.5	NA	0.0000	-SN BR	9999	0	0	0	3350
2019/09/19 19:52:00	BASE	18.61	27	25.83	17	0.4	87	-1.4	118	0	970.5	NA	0.0000	-SN BR	9999	0	0	0	2890
2019/09/19 19:53:00	BASE	20.09	29	25.83	17	0.4	87	-1.5	116	0	970.4	NA	0.0000	-SN	9999	6530	0	0	0
2019/09/19 19:54:00	BASE	20.93	29	25.83	17	0.4	87	-1.5	114	0	970.4	NA	0.0000	-SN	9999	6890	0	0	0
2019/09/19 19:55:00	BASE	21.07	25	25.83	17	0.4	87	-1.5	113	0	970.3	NA	0.0000	-SN	9999	7250	0	0	0
2019/09/19 19:56:00	BASE	21.14	25	25.83	17	0.4	87	-1.5	112	0	970.3	NA	0.0000	-SN	9000	7190	0	0	0
2019/09/19 19:57:00	BASE	21.56	25	25.52	11	0.4	87	-1.5	113	0	970.3	NA	0.0000	-SN	9999	7280	0	0	0
2019/09/19 19:58:00	BASE	22.93	26	25.46	32	0.4	87	-1.5	117	0	970.2	NA	0.0000	-SN	9999	7420	0	0	0
2019/09/19 19:59:00	BASE	22.25	28	25.46	32	0.4	87	-1.5	122	0	970.3	NA	0.0000	-SN	9000	7780	0	0	0
2019/09/19 20:00:00	BASE	21.72	27	25.46	32	0.4	87	-1.5	124	0	970.3	NA	0.0000	-SN	8000	0	0	0	6040
2019/09/19 20:01:00	BASE	21.53	25	25.46	32	0.4	87	-1.5	122	0	970.3	NA	0.0000	-SN	8000	0	0	0	8500
2019/09/19 20:02:00	BASE	20.68	26	25.46	32	0.4	87	-1.5	118	0	970.4	NA	0.0000	-SN	9999	7450	0	0	0
2019/09/19 20:03:00	BASE	20.88	27	25.46	32	0.4	87	-1.5	114	0	970.3	NA	0.0000	-SN	9999	7480	0	0	0
2019/09/19 20:04:00	BASE	21.09	25	25.46	32	0.4	87	-1.5	110	0	970.3	NA	0.0000	-SN	9999	7870	0	0	0
2019/09/19 20:05:00	BASE	21.61	23	26.65	23	0.4	87	-1.5	107	0	970.3	NA	0.0000	-SN	9999	8660	0	0	0
2019/09/19 20:06:00	BASE	22.01	24	26.65	23	0.4	87	-1.5	106	0	970.3	NA	0.0000	-SN	9999	8630	0	0	0
2019/09/19 20:07:00	BASE	22.39	22	26.65	23	0.4	87	-1.5	104	0	970.3	NA	0.0000	-SN	9999	8630	0	0	0
2019/09/19 20:08:00	BASE	22.40	20	26.65	23	0.4	87	-1.5	104	0	970.3	NA	0.0000	-SN	9999	9090	0	0	0
2019/09/19 20:09:00	BASE	21.59	22	26.65	23	0.4	87	-1.6	105	0	970.3	NA	0.0000	-SN	9999	11020	0	0	0
2019/09/19 20:10:00	BASE	20.95	24	26.65	23	0.4	86	-1.6	107	0	970.4	NA	0.0000	-SN	9999	9150	0	0	0
2019/09/19 20:11:00	BASE	19.74	25	26.65	23	0.4	86	-1.6	106	0	970.4	NA	0.0000		9999	9150	0	0	0
2019/09/19 20:12:00	BASE	19.85	27	26.65	23	0.4	86	-1.7	107	0	970.3	NA	0.0000		9999	8890	9610	0	0
2019/09/19 20:13:00	BASE	19.65	29	26.65	23	0.4	86	-1.7	101	0	970.4	NA	0.0000		9999	8830	0	0	0
2019/09/19 20:14:00	BASE	19.36	28	26.65	23	0.4	86	-1.7	101	0	970.3	NA	0.0000		9999	9090	0	0	0
2019/09/19 20:15:00	BASE	20.37	26	26.44	23	0.4	86	-1.7	99	0	970.3	NA	0.0000		9999	8600	0	0	0
2019/09/19 20:16:00	BASE	20.38	27	26.44	23	0.3	86	-1.7	97	0	970.4	NA	0.0000		9999	8630	10760	0	0
2019/09/19 20:17:00	BASE	20.90	25	25.21	16	0.3	86	-1.8	98	0	970.3	NA	0.0000		9999	10660	0	0	0
2019/09/19 20:18:00	BASE	22.04	24	25.21	16	0.3	86	-1.8	98	0	970.2	NA	0.0000		9999	10600	0	0	0
2019/09/19 20:19:00	BASE	23.11	27	25.52	22	0.3	86	-1.8	97	0	970.2	NA	0.0000		9999	10370	0	0	0
2019/09/19 20:20:00	BASE	23.17	25	25.52	22	0.3	86	-1.8	92	0	970.3	NA	0.0000		9999	8760	10600	0	0
2019/09/19 20:21:00	BASE	22.23	24	25.52	22	0.3	85	-1.9	89	0	970.3	NA	0.0000		9999	8660	0	0	0
2019/09/19 20:22:00	BASE	21.89	23	27.16	22	0.3	85	-1.9	87	0	970.3	NA	0.0000		9999	9020	0	0	0
2019/09/19 20:23:00	BASE	22.28	23	27.16	22	0.3	85	-1.9	87	0	970.3	NA	0.0000		9999	9090	23160	0	0
2019/09/19 20:24:00	BASE	21.76	23	27.16	22	0.3	85	-1.9	88	0	970.4	NA	0.0000		9999	10860	0	0	0
2019/09/19 20:25:00	BASE	21.26	24	27.16	22	0.3	85	-1.9	86	0	970.3	NA	0.0000		9999	10860	0	0	0
2019/09/19 20:26:00	BASE	21.82	24	27.16	22	0.3	85	-1.9	84	0	970.3	NA	0.0000		9999	9380	10890	0	0
2019/09/19 20:27:00	BASE	21.69	21	27.16	22	0.3	85	-1.9	85	0	970.3	NA	0.0000		9999	9020	0	0	0
2019/09/19 20:28:00	BASE	22.42	21	27.57	18	0.3	85	-1.9	84	0	970.2	NA	0.0000		9999	6560	7220	0	0
2019/09/19 20:29:00	BASE	23.25	21	27.57	18	0.3	85	-1.9	82	0	970.2	NA	0.0000	-SN	9999	6560	0	0	0
2019/09/19 20:30:00	BASE	23.60	22	27.57	18	0.3	85	-1.9	80	0	970.1	NA	0.0000	-SN	9999	6370	0	0	0
2019/09/19 20:31:00	BASE	24.83	22	28.04	26	0.3	85	-1.9	77	0	970.0	NA	0.0000	-SN	9999	6200	0	0	0
2019/09/19 20:32:00	BASE	25.71	22	28.04	26	0.3	85	-1.9	75	0	970.0	NA	0.0000	-SN	9999	6170	0	0	0
2019/09/19 20:33:00	BASE	24.50	22	28.04	26	0.3	86	-1.8	73	0	970.1	NA	0.0000	-SN	9999	6300	0	0	0
2019/09/19 20:34:00	BASE	23.60	22	28.04	26	0.3	86	-1.8	71	0	970.1	NA	0.0000	-SN	9999	6330	0	0	0
2019/09/19 20:35:00	BASE	24.84	22	28.71	22	0.3	86	-1.8	68	0	970.0	NA	0.0000	-SN	9999	4690	0	0	0
2019/09/19 20:36:00	BASE	24.78	23	28.71	22	0.2	86	-1.8	68	0	970.1	NA	0.0000	-SN	9999	4690	6530	0	0
2019/09/19 20:37:00	BASE	23.88	23	28.71	22	0.2	86	-1.8	69	0	970.1	NA	0.0000	-SN	9999	6530	0	0	0
2019/09/19 20:38:00	BASE	23.00	23	28.71	22	0.2	87	-1.8	69	0	970.2	NA	0.0000	-SN	9999	9250	10300	0	0
2019/09/19 20:39:00	BASE	22.48	22	28.71	22	0.2	87	-1.7	67	0	970.1	NA	0.0000	-SN	9999	9350	0	0	0
2019/09/19 20:40:00	BASE	22.88	21	28.71	22	0.2	87	-1.7	69	0	970.1	NA	0.0000	-SN	9999	0	0	0	3480
2019/09/19 20:41:00	BASE	22.44	24	28.71	22	0.1	88	-1.7	69	0	970.2	NA	0.0000	-SN	9999	0	0	0	3770
2019/09/19 20:42:00	BASE	22.66	25	28.71	22	0.1	88	-1.7	67	0	970.1	NA	0.0000	-SN	9999	9550	0	0	0
2019/09/19 20:43:00	BASE	22.93	23	28.71	22	0.1	88	-1.6	65	0	970.1	NA	0.0000	-SN	9999	9840	0	0	0
2019/09/19 20:44:00	BASE	22.68	23	28.71	22	0.1	88	-1.6	61	0	970.1	NA	0.0000	-SN	9000	3510	9910	0	0
2019/09/19 20:45:00	BASE	22.41	22	25.77	24	0.1	89	-1.6	55	0	970.1	NA	0.0000	-SN	8000	6460	0	0	0
2019/09/19 20:46:00	BASE	22.10	23	25.77	24	0.1	89	-1.5	50	0	970.1	NA	0.0000	-SN	7000	330	0	0	0
2019/09/19 20:47:00	BASE	22.09	25	25.67	23	0.1	89	-1.5	48	0	970.2	NA	0.0000	-SN BR	4400	0	0	0	3640
2019/09/19 20:48:00	BASE	21.70	25	25.67	23	0.1	89	-1.5	47	0	970.2	NA	0.0000	-SN BR	3000	0	0	0	4490
2019/09/19 20:49:00	BASE	21.64	25	25.67	23	0.1	89	-1.5	47	0	970.2	NA	0.0000	-SN BR	3200	0	0	0	5380
2019/09/19 20:50:00	BASE	21.30	26	25.67	23	0.1	89	-1.5	46	0	970.2	NA	0.0000	-SN BR	3600	0	0	0	6170
2019/09/19 20:51:00	BASE	20.44	28	25.67	23	0.0	89	-1.5	42	0	970.3	NA	0.0000	-SN BR	8000	0	0	0	4920
2019/09/19 20:52:00	BASE	19.27	27	25.67	23	0.0	90	-1.5	35	0	970.3	NA	0.0000	-SN BR	9000	390	0	0	0
2019/09/19 20:53:00	BASE	19.49	27	25.67	23	-0.0	90	-1.5	30	0	970.3	NA	0.0000	-SN BR	6000	0	0	0	3450
2019/09/19 20:54:00	BASE	19.90	26	25.67	23	-0.0	90	-1.5	27	0	970.3	NA	0.0000	-SN BR	4300	0	0	0	3180
2019/09/19 20:55:00	BASE	21.02	22	25.67	23	-0.1	90	-1.5	26	0	970.2	NA	0.0000	-SN BR	4100	300	0	0	0
2019/09/19 20:56:00	BASE	21.30	24	25.41	16	-0.1	90	-1.5	27	0	970.3	NA	0.0000	-SN BR	5000	330	0	0	0
2019/09/19 20:57:00	BASE	19.71	24	25.41	16	-0.1	90	-1.5	28	0	970.3	NA	0.0000	-SN BR	8000	0	0	0	3450
2019/09/19 20:58:00	BASE	19.96	24	25.41	16	-0.1	91	-1.5	29	0	970.3	NA	0.0000	-SN BR	9000	330	0	0	0
2019/09/19 20:59:00	BASE	20.82	25	25.41	16	-0.1	91	-1.4	26	0	970.3	NA	0.0000	-SN BR	5000	360	0	0	0
2019/09/19 21:00:00	BASE	21.99	21	25.41	16	-0.1	91	-1.4	22	0	970.3	NA	0.0000	-SN BR	1500	0	0	0	1480
2019/09/19 21:01:00	BASE	21.78	20	25.41	16	-0.1	91	-1.4	19	0	970.4	NA	0.0000	-SN BR	0650	0	0	0	1310
2019/09/19 21:02:00	BASE	20.01	22	25.41	16	-0.1	91	-1.4	18	0	970.4	NA	0.0000	-SN BR	0600	0	0	0	1080
2019/09/19 21:03:00	BASE	19.30	24	25.41	16	-0.2	91	-1.4	19	0	970.5	NA	0.0000	-SN BR	0600	0	0	0	750
2019/09/19 21:04:00	BASE	19.53	27	25.41	16	-0.2	91	-1.5	18	0	970.4	NA	0.0000	-SN BR	0550	0	0	0	890
2019/09/19 21:05:00	BASE	18.47	26	24.49	19	-0.3	92	-1.5	18	0	970.5	NA	0.0000	+SN BR	0500	0	0	0	820
2019/09/19 21:06:00	BASE	17.40	26	24.49	19	-0.4	92	-1.5	18	0	970.4	NA	0.0000	SN FZFG	0500	0	0	0	850
2019/09/19 21:07:00	BASE	17.77	28	24.49	19	-0.5	93	-1.5	18	0	970.4	NA	0.0000	SN FZFG	0450	0	0	0	950
2019/09/19 21:08:00	BASE	17.48	31	24.49	19	-0.5	94	-1.4	19	0	970.4	NA	0.0000	+SN FZFG	0400	0	0	0	1020
2019/09/19 21:09:00	BASE	17.72	32	24.49	19	-0.6	95	-1.3	19	0	970.4	NA	0.0000	+SN FZFG	0500	0	0	0	1210
2019/09/19 21:10:00	BASE	17.39	32	24.49	19	-0.6	96	-1.2	20	0	970.4	NA	0.0000	+SN FZFG	0500	0	0	0	1480
2019/09/19 21:11:00	BASE	16.34	33	22.58	24	-0.6	97	-1.1	19	0	970.4	NA	0.0000	+SN FZFG	0600	0	0	0	1250
2019/09/19 21:12:00	BASE	16.17	35	22.58	24	-0.6	98	-1.0	19	0	970.4	NA	0.0000	+SN FZFG	0550	0	0	0	1280
2019/09/19 21:13:00	BASE	16.73	34	22.58	24	-0.7	98	-0.9	18	0	970.3	NA	0.0000	+SN FZFG	0600	0	0	0	1380
2019/09/19 21:14:00	BASE	17.30	31	22.07	38	-0.7	99	-0.8	17	0	970.3	NA	0.0000	+SN FZFG	0600	0	0	0	1380
2019/09/19 21:15:00	BASE	17.62	31	22.07	38	-0.7	99	-0.8	16	0	970.3	NA	0.0000	+SN FZFG	0600	0	0	0	1280
2019/09/19 21:16:00	BASE	18.26	31	22.07	38	-0.7	100	-0.7	15	0	970.3	NA	0.0000	+SN FZFG	0700	0	0	0	1350
2019/09/19 21:17:00	BASE	18.55	33	22.07	38	-0.7	100	-0.7	14	0	970.2	NA	0.0000	+SN FZFG	0600	0	0	0	1280
2019/09/19 21:18:00	BASE	19.37	34	22.07	38	-0.7	100	-0.7	13	0	970.2	NA	0.0000	+SN FZFG	0600	0	0	0	1250
2019/09/19 21:19:00	BASE	19.56	33	22.07	38	-0.7	100	-0.7	12	0	970.2	NA	0.0000	+SN FZFG	0550	0	0	0	1020
2019/09/19 21:20:00	BASE	18.59	32	22.07	38	-0.7	100	-0.7	12	0	970.2	NA	0.0000	+SN FZFG	0600	0	0	0	1310
2019/09/19 21:21:00	BASE	18.32	32	22.22	33	-0.7	100	-0.7	11	0	970.2	NA	0.0000	+SN FZFG	0700	0	0	0	1510
2019/09/19 21:22:00	BASE	19.01	32	22.22	33	-0.7	100	-0.7	10	0	970.2	NA	0.0000	+SN FZFG	0750	0	0	0	1480
2019/09/19 21:23:00	BASE	19.56	31	22.22	35	-0.7	100	-0.7	10	0	970.2	NA	0.0000	+SN FZFG	0500	0	0	0	1310
2019/09/19 21:24:00	BASE	19.37	31	22.22	35	-0.7	100	-0.7	9	0	970.2	NA	0.0000	+SN FZFG	0450	0	0	0	1210
2019/09/19 21:25:00	BASE	18.54	32	22.22	35	-0.7	100	-0.7	9	0	970.2	NA	0.0000	+SN FZFG	0400	0	0	0	1510
2019/09/19 21:26:00	BASE	17.75	32	22.22	35	-0.7	100	-0.7	8	0	970.3	NA	0.0000	+SN FZFG	0450	0	0	0	1800
2019/09/19 21:27:00	BASE	17.50	30	22.22	35	-0.7	100	-0.7	8	0	970.2	NA	0.0000	+SN FZFG	0550	0	0	0	2130
2019/09/19 21:28:00	BASE	17.16	30	22.22	35	-0.7	100	-0.7	8	0	970.2	NA	0.0000	+SN FZFG	0750	0	0	0	2530
2019/09/19 21:29:00	BASE	17.91	30	22.22	35	-0.7	100	-0.7	8	0	970.2	NA	0.0000	+SN FZFG	1300	0	0	0	2560
2019/09/19 21:30:00	BASE	18.19	29	22.22	35	-0.7	100	-0.7	9	0	970.2	NA	0.0000	SN FZFG	1400	260	0	0	0
2019/09/19 21:31:00	BASE	17.03	28	22.22	35	-0.7	100	-0.7	9	0	970.2	NA	0.2540	SN FZFG	1300	0	0	0	3580
2019/09/19 21:32:00	BASE	16.77	29	22.22	35	-0.6	100	-0.6	9	0	970.2	NA	0.0000	SN FZFG	1300	0	0	0	7380
2019/09/19 21:33:00	BASE	17.09	30	22.17	28	-0.6	100	-0.6	9	0	970.1	NA	0.0000	SN FZFG	1900	6920	0	0	0
2019/09/19 21:34:00	BASE	17.19	30	21.04	33	-0.6	100	-0.6	9	0	970.2	NA	0.0000	SN FZFG	3200	5680	7680	0	0
2019/09/19 21:35:00	BASE	17.60	29	21.09	34	-0.6	100	-0.6	8	0	970.2	NA	0.0000	-SN BR	9999	7580	0	0	0
2019/09/19 21:36:00	BASE	17.01	27	21.09	34	-0.6	100	-0.6	8	0	970.2	NA	0.0000	-SN BR	8000	5480	7910	0	0
2019/09/19 21:37:00	BASE	16.19	26	21.09	34	-0.6	100	-0.6	7	0	970.1	NA	0.0000	-SN BR	6000	7840	0	0	0
2019/09/19 21:38:00	BASE	16.09	27	21.09	34	-0.6	100	-0.6	7	0	970.2	NA	0.0000	-SN BR	3200	0	0	0	2990
2019/09/19 21:39:00	BASE	16.19	28	21.09	34	-0.6	100	-0.6	7	0	970.1	NA	0.0000	-SN BR	3100	0	0	0	3540
2019/09/19 21:40:00	BASE	16.97	29	21.09	34	-0.5	100	-0.5	7	0	970.1	NA	0.0000	-SN BR	9999	6140	0	0	0
2019/09/19 21:41:00	BASE	17.51	27	21.09	34	-0.5	100	-0.5	7	0	970.0	NA	0.0000	-SN BR	9999	0	0	0	6860
2019/09/19 21:42:00	BASE	18.03	27	21.09	34	-0.5	100	-0.5	6	0	970.0	NA	0.0000	-SN BR	9999	0	0	0	4660
2019/09/19 21:43:00	BASE	19.21	25	22.07	25	-0.5	100	-0.5	6	0	969.9	NA	0.0000	-SN BR	9999	0	0	0	8240
2019/09/19 21:44:00	BASE	19.12	25	22.07	25	-0.5	100	-0.5	6	0	969.9	NA	0.0000	-SN BR	7000	6100	7740	0	0
2019/09/19 21:45:00	BASE	18.69	25	22.07	25	-0.5	100	-0.5	6	0	969.9	NA	0.0000	-SN BR	5000	6400	7940	0	0
2019/09/19 21:46:00	BASE	19.70	24	22.07	25	-0.5	100	-0.5	6	0	969.8	NA	0.0000	-SN BR	9999	6370	7910	0	0
2019/09/19 21:47:00	BASE	20.13	25	22.07	25	-0.5	100	-0.5	5	0	969.9	NA	0.0000	-SN BR	9999	7910	0	0	0
2019/09/19 21:48:00	BASE	21.13	27	23.66	23	-0.5	100	-0.5	5	0	969.8	NA	0.0000	-SN BR	9999	5120	0	0	0
2019/09/19 21:49:00	BASE	21.21	26	23.66	23	-0.4	100	-0.4	5	0	969.8	NA	0.0000	-SN BR	6000	0	0	0	1670
2019/09/19 21:50:00	BASE	20.69	23	23.66	23	-0.5	100	-0.5	5	0	969.8	NA	0.0000	-SN BR	4800	0	0	0	5910
2019/09/19 21:51:00	BASE	20.41	24	23.66	23	-0.5	100	-0.5	5	0	969.8	NA	0.0000	-SN BR	8000	0	0	0	5810
2019/09/19 21:52:00	BASE	19.76	26	23.66	23	-0.5	100	-0.5	4	0	969.9	NA	0.0000	-SN BR	9999	8860	0	0	0
2019/09/19 21:53:00	BASE	19.96	24	23.66	23	-0.5	100	-0.5	4	0	969.9	NA	0.0000	-SN BR	9999	8920	0	0	0
2019/09/19 21:54:00	BASE	20.11	24	23.66	23	-0.5	100	-0.5	4	0	969.8	NA	0.0000	-SN BR	9999	5020	0	0	0
2019/09/19 21:55:00	BASE	19.13	26	23.66	23	-0.5	99	-0.5	4	0	969.9	NA	0.0000	-SN BR	9999	5710	8860	0	0
2019/09/19 21:56:00	BASE	19.29	27	23.66	23	-0.4	99	-0.5	3	0	969.9	NA	0.0000	-SN BR	9999	5090	0	0	0
2019/09/19 21:57:00	BASE	20.64	27	23.66	23	-0.4	99	-0.6	3	0	969.8	NA	0.0000	-SN BR	3800	5320	0	0	0
2019/09/19 21:58:00	BASE	20.77	26	23.20	29	-0.4	99	-0.5	3	0	969.9	NA	0.0000	-SN BR	2600	5410	0	0	0
2019/09/19 21:59:00	BASE	20.69	27	23.20	29	-0.4	99	-0.5	3	0	969.8	NA	0.0000	-SN BR	7000	0	0	0	3670
2019/09/19 22:00:00	BASE	19.84	27	23.20	29	-0.4	99	-0.5	3	0	969.9	NA	0.0000	-SN BR	9999	5250	0	0	0
2019/09/19 22:01:00	BASE	20.05	28	24.33	29	-0.3	99	-0.5	3	0	969.8	NA	0.0000	-SN BR	7000	4950	0	0	0
2019/09/19 22:02:00	BASE	21.34	30	24.33	29	-0.3	99	-0.5	2	0	969.8	NA	0.0000	-SN BR	3400	4860	0	0	0
2019/09/19 22:03:00	BASE	20.40	30	24.33	29	-0.3	99	-0.4	2	0	969.9	NA	0.0000	-SN BR	5000	5020	0	0	0
2019/09/19 22:04:00	BASE	19.89	31	24.33	29	-0.3	99	-0.4	2	0	969.9	NA	0.0000	-SN BR	8000	390	0	0	0
2019/09/19 22:05:00	BASE	20.40	31	24.33	29	-0.3	99	-0.4	2	0	969.8	NA	0.0000	-SN BR	3200	260	0	0	0
2019/09/19 22:06:00	BASE	20.41	30	24.33	29	-0.3	99	-0.4	2	0	969.8	NA	0.0000	-SN BR	2200	230	0	0	0
2019/09/19 22:07:00	BASE	20.62	30	24.33	29	-0.3	99	-0.4	2	0	969.8	NA	0.0000	-SN BR	2800	0	0	0	5090
2019/09/19 22:08:00	BASE	20.53	30	24.33	29	-0.3	99	-0.4	2	0	969.8	NA	0.0000	-SN BR	5000	390	0	0	0
2019/09/19 22:09:00	BASE	19.80	29	24.33	29	-0.3	99	-0.4	2	0	969.9	NA	0.0000	-SN BR	5000	300	0	0	0
2019/09/19 22:10:00	BASE	19.20	28	24.33	29	-0.3	99	-0.4	2	0	969.8	NA	0.0000	-SN BR	4500	0	0	0	5510
2019/09/19 22:11:00	BASE	20.02	30	23.72	35	-0.3	99	-0.4	1	0	969.8	NA	0.0000	-SN BR	9999	0	0	0	5450
2019/09/19 22:12:00	BASE	20.11	31	23.72	35	-0.3	99	-0.4	1	0	969.8	NA	0.0000	-SN BR	9999	5050	0	0	0
2019/09/19 22:13:00	BASE	19.34	28	23.72	35	-0.3	99	-0.4	1	0	969.8	NA	0.0000	-SN BR	9999	8140	0	0	0
2019/09/19 22:14:00	BASE	19.00	28	23.72	35	-0.3	99	-0.4	1	0	969.8	NA	0.0000	-SN BR	6000	5120	8200	0	0
2019/09/19 22:15:00	BASE	19.78	31	23.72	35	-0.3	99	-0.4	1	0	969.8	NA	0.0000	-SN BR	5000	8070	8600	0	0
2019/09/19 22:16:00	BASE	20.64	31	23.72	35	-0.3	99	-0.4	1	0	969.8	NA	0.0000	-SN BR	3500	330	5350	0	0
2019/09/19 22:17:00	BASE	20.49	30	23.72	35	-0.3	99	-0.4	1	0	969.8	NA	0.0000	-SN BR	4100	8140	0	0	0
2019/09/19 22:18:00	BASE	20.19	29	23.46	32	-0.3	99	-0.4	1	0	969.8	NA	0.0000	-SN BR	9999	8140	0	0	0
2019/09/19 22:19:00	BASE	19.79	29	23.46	32	-0.3	99	-0.5	1	0	969.8	NA	0.0000	-SN BR	8000	8300	0	0	0
2019/09/19 22:20:00	BASE	20.22	30	23.46	32	-0.3	99	-0.5	1	0	969.8	NA	0.0000	-SN BR	6000	8240	0	0	0
2019/09/19 22:21:00	BASE	19.58	30	23.30	31	-0.3	98	-0.5	1	0	969.8	NA	0.0000	-SN BR	6000	8240	0	0	0
2019/09/19 22:22:00	BASE	18.85	31	23.30	31	-0.3	98	-0.6	1	0	969.8	NA	0.0000	-SN BR	5000	8270	0	0	0
2019/09/19 22:23:00	BASE	18.99	31	23.30	31	-0.3	98	-0.6	0	0	969.9	NA	0.0000	-SN BR	7000	330	8140	0	0
2019/09/19 22:24:00	BASE	18.19	30	23.30	31	-0.3	98	-0.6	0	0	969.9	NA	0.0000	-SN BR	9999	8270	0	0	0
2019/09/19 22:25:00	BASE	18.78	30	23.30	31	-0.3	98	-0.7	0	0	969.8	NA	0.0000	-SN BR	9999	8270	0	0	0
2019/09/19 22:26:00	BASE	19.75	30	23.30	31	-0.3	97	-0.7	0	0	969.8	NA	0.0000	-SN BR	9999	4950	8240	0	0
2019/09/19 22:27:00	BASE	19.15	28	23.30	31	-0.3	97	-0.7	0	0	969.9	NA	0.0000	-SN BR	9999	8240	0	0	0
2019/09/19 22:28:00	BASE	18.61	26	23.30	31	-0.3	97	-0.7	0	0	969.9	NA	0.0000	-SN BR	8000	8170	0	0	0
2019/09/19 22:29:00	BASE	18.08	24	23.30	31	-0.3	97	-0.7	0	0	969.9	NA	0.0000	-SN BR	9999	8170	0	0	0
2019/09/19 22:30:00	BASE	18.20	21	23.10	25	-0.3	97	-0.7	0	0	969.9	NA	0.0000	-SN BR	9999	8400	0	0	0
2019/09/19 22:31:00	BASE	18.91	22	23.10	25	-0.3	97	-0.7	0	0	969.9	NA	0.0000	-SN	9999	8270	0	0	0
2019/09/19 22:32:00	BASE	19.16	22	23.10	25	-0.2	96	-0.7	0	0	969.9	NA	0.0000	-SN	9999	7870	0	0	0
2019/09/19 22:33:00	BASE	19.02	21	23.10	25	-0.2	96	-0.8	0	0	969.9	NA	0.0000	-SN	9999	5770	8070	0	0
2019/09/19 22:34:00	BASE	19.51	20	23.51	18	-0.2	96	-0.8	0	0	969.9	NA	0.0000	-SN	9999	8200	0	0	0
2019/09/19 22:35:00	BASE	19.68	21	23.51	18	-0.2	96	-0.8	0	0	969.9	NA	0.2540	-SN	9999	8070	0	0	0
2019/09/19 22:36:00	BASE	18.88	22	23.51	18	-0.2	95	-0.9	0	0	969.9	NA	0.0000	-SN	9999	8170	0	0	0
2019/09/19 22:37:00	BASE	18.67	21	23.51	18	-0.2	95	-0.9	0	0	970.0	NA	0.0000	-SN	9999	5120	0	0	0
2019/09/19 22:38:00	BASE	18.72	22	23.51	18	-0.3	95	-1.0	0	0	969.9	NA	0.0000		9999	1900	0	0	0
2019/09/19 22:39:00	BASE	19.47	22	23.51	18	-0.3	95	-1.0	0	0	969.9	NA	0.0000		9999	8170	0	0	0
2019/09/19 22:40:00	BASE	19.24	21	23.51	18	-0.3	95	-1.0	0	0	969.9	NA	0.0000		9999	8330	0	0	0
2019/09/19 22:41:00	BASE	17.71	20	23.51	18	-0.3	95	-1.0	0	0	969.9	NA	0.0000		9999	460	8370	0	0
2019/09/19 22:42:00	BASE	17.00	18	23.51	18	-0.3	95	-1.0	0	0	969.9	NA	0.0000		9999	8400	0	0	0
2019/09/19 22:43:00	BASE	16.71	16	23.51	18	-0.3	95	-1.0	0	0	969.9	NA	0.0000		9999	8530	0	0	0
2019/09/19 22:44:00	BASE	17.17	16	21.50	22	-0.3	95	-1.0	0	0	969.9	NA	0.0000		9999	0	0	0	5540
2019/09/19 22:45:00	BASE	16.75	17	21.50	22	-0.4	95	-1.0	0	0	969.9	NA	0.0000		9999	1770	0	0	0
2019/09/19 22:46:00	BASE	16.08	20	21.50	22	-0.4	95	-1.0	0	0	969.9	NA	0.0000		9999	0	0	0	5380
2019/09/19 22:47:00	BASE	15.98	23	21.50	22	-0.4	96	-1.0	0	0	969.9	NA	0.0000		9999	2330	0	0	0
2019/09/19 22:48:00	BASE	15.93	23	21.50	22	-0.4	96	-1.0	0	0	969.9	NA	0.0000		9999	0	0	0	5220
2019/09/19 22:49:00	BASE	16.17	21	19.81	22	-0.4	96	-1.0	0	0	969.9	NA	0.0000		9999	0	0	0	5150
2019/09/19 22:50:00	BASE	16.05	19	19.75	15	-0.4	96	-1.0	0	0	969.9	NA	0.0000		9999	0	0	0	4530
2019/09/19 22:51:00	BASE	16.20	18	19.75	15	-0.4	95	-1.0	0	0	969.8	NA	0.0000		9999	8560	0	0	0
2019/09/19 22:52:00	BASE	16.08	20	19.75	15	-0.4	95	-1.1	0	0	969.9	NA	0.0000		9999	8690	0	0	0
2019/09/19 22:53:00	BASE	16.10	23	19.75	15	-0.4	95	-1.1	0	0	969.8	NA	0.0000		9999	2330	0	0	0
2019/09/19 22:54:00	BASE	17.14	22	20.94	20	-0.4	95	-1.2	0	0	969.8	NA	0.0000		9999	1970	0	0	0
2019/09/19 22:55:00	BASE	16.61	22	20.94	20	-0.4	94	-1.2	0	0	969.9	NA	0.0000		9999	0	0	0	5770
2019/09/19 22:56:00	BASE	15.48	20	20.94	20	-0.4	94	-1.2	0	0	969.8	NA	0.0000		9999	660	0	0	0
2019/09/19 22:57:00	BASE	15.82	19	20.94	20	-0.4	94	-1.3	0	0	969.8	NA	0.0000	-SN	9999	0	0	0	4200
2019/09/19 22:58:00	BASE	16.26	22	20.94	20	-0.4	93	-1.3	0	0	969.8	NA	0.0000	-SN	9999	0	0	0	3900
2019/09/19 22:59:00	BASE	16.76	21	20.94	20	-0.4	93	-1.4	0	0	969.8	NA	0.0000	-SN	9999	0	0	0	4170
2019/09/19 23:00:00	BASE	17.28	18	20.94	20	-0.4	93	-1.4	0	0	969.7	NA	0.0000	-SN	9999	0	0	0	4040
2019/09/19 23:01:00	BASE	17.78	19	20.94	20	-0.4	93	-1.5	0	0	969.6	NA	0.0000	-SN	9999	0	0	0	4270
2019/09/19 23:02:00	BASE	18.05	21	20.94	20	-0.4	92	-1.5	0	0	969.6	NA	0.0000	-SN	9999	0	0	0	3740
2019/09/19 23:03:00	BASE	18.81	19	21.50	20	-0.4	92	-1.5	0	0	969.6	NA	0.0000	-SN	9999	330	0	0	0
2019/09/19 23:04:00	BASE	19.35	19	21.50	20	-0.4	92	-1.5	0	0	969.6	NA	0.0000	-SN	6000	0	0	0	3150
2019/09/19 23:05:00	BASE	19.09	20	21.50	20	-0.4	92	-1.5	0	0	969.6	NA	0.0000	-SN BR	5000	300	0	0	0
2019/09/19 23:06:00	BASE	18.49	22	21.50	20	-0.4	92	-1.5	0	0	969.6	NA	0.0000	-SN BR	6000	0	0	0	3120
2019/09/19 23:07:00	BASE	18.58	23	21.50	20	-0.4	92	-1.5	0	0	969.5	NA	0.0000	-SN BR	4800	0	0	0	4070
2019/09/19 23:08:00	BASE	19.47	23	22.12	27	-0.4	92	-1.5	0	0	969.6	NA	0.0000	-SN BR	7000	0	0	0	3770
2019/09/19 23:09:00	BASE	19.35	23	22.12	27	-0.4	92	-1.5	0	0	969.5	NA	0.0000	-SN BR	6000	0	0	0	2560
2019/09/19 23:10:00	BASE	18.67	21	22.12	27	-0.4	92	-1.5	0	0	969.6	NA	0.0000	-SN BR	5000	0	0	0	2590
2019/09/19 23:11:00	BASE	18.93	22	22.28	29	-0.4	92	-1.5	0	0	969.6	NA	0.0000	-SN BR	3900	300	0	0	0
2019/09/19 23:12:00	BASE	19.66	23	22.28	29	-0.4	92	-1.5	0	0	969.6	NA	0.0000	-SN BR	2200	0	0	0	3250
2019/09/19 23:13:00	BASE	19.58	24	22.28	29	-0.4	92	-1.5	0	0	969.6	NA	0.0000	-SN BR	2200	260	0	0	0
2019/09/19 23:14:00	BASE	19.44	24	22.28	29	-0.4	92	-1.5	0	0	969.6	NA	0.0000	-SN BR	2000	0	0	0	3250
2019/09/19 23:15:00	BASE	18.98	26	22.28	29	-0.4	93	-1.5	0	0	969.7	NA	0.0000	-SN BR	2600	980	0	0	0
2019/09/19 23:16:00	BASE	18.73	27	22.28	29	-0.5	93	-1.5	0	0	969.6	NA	0.0000	-SN BR	2200	0	0	0	2720
2019/09/19 23:17:00	BASE	18.51	27	22.28	29	-0.5	93	-1.4	0	0	969.6	NA	0.0000	-SN BR	1200	0	0	0	1610
2019/09/19 23:18:00	BASE	17.87	31	22.28	29	-0.5	94	-1.4	0	0	969.7	NA	0.0000	-SN BR	1100	0	0	0	2330
2019/09/19 23:19:00	BASE	17.71	32	22.28	29	-0.6	94	-1.4	0	0	969.7	NA	0.0000	-SN BR	1100	0	0	0	4040
2019/09/19 23:20:00	BASE	17.37	33	22.28	29	-0.6	95	-1.3	0	0	969.7	NA	0.0000	-SN BR	1400	0	0	0	4300
2019/09/19 23:21:00	BASE	16.97	33	21.25	22	-0.6	95	-1.3	0	0	969.7	NA	0.0000	-SN BR	3200	0	0	0	4530
2019/09/19 23:22:00	BASE	16.54	30	21.25	22	-0.6	96	-1.2	0	0	969.7	NA	0.0000	-SN BR	5000	0	0	0	4400
2019/09/19 23:23:00	BASE	16.33	31	21.25	22	-0.6	96	-1.2	0	0	969.7	NA	0.0000	-SN BR	5000	9550	0	0	0
2019/09/19 23:24:00	BASE	16.97	34	21.25	22	-0.6	97	-1.1	0	0	969.7	NA	0.0000	-SN BR	4400	0	0	0	3810
2019/09/19 23:25:00	BASE	17.14	31	21.25	22	-0.6	97	-1.0	0	0	969.7	NA	0.0000	-SN BR	4200	9480	0	0	0
2019/09/19 23:26:00	BASE	16.46	32	20.83	36	-0.6	97	-1.0	0	0	969.7	NA	0.0000	-SN BR	6000	9420	9970	0	0
2019/09/19 23:27:00	BASE	16.73	33	20.47	40	-0.6	97	-1.0	0	0	969.7	NA	0.0000	-SN BR	9000	9350	0	0	0
2019/09/19 23:28:00	BASE	17.43	33	20.58	40	-0.6	97	-1.1	0	0	969.7	NA	0.0000	-SN BR	9000	9680	0	0	0
2019/09/19 23:29:00	BASE	16.82	35	20.58	40	-0.6	96	-1.1	0	0	969.7	NA	0.0000	-SN BR	5000	9420	0	0	0
2019/09/19 23:30:00	BASE	17.44	37	22.17	30	-0.6	96	-1.1	0	0	969.7	NA	0.0000	-SN BR	5000	9610	0	0	0
2019/09/19 23:31:00	BASE	17.97	39	22.17	30	-0.6	96	-1.1	0	0	969.7	NA	0.0000	-SN BR	7000	8370	9740	0	0
2019/09/19 23:32:00	BASE	16.41	40	22.17	30	-0.6	96	-1.1	0	0	969.7	NA	0.0000	-SN BR	9999	9380	0	0	0
2019/09/19 23:33:00	BASE	15.57	40	22.17	30	-0.5	96	-1.1	0	0	969.8	NA	0.0000	-SN BR	9999	9680	0	0	0
2019/09/19 23:34:00	BASE	15.55	42	22.17	30	-0.5	96	-1.1	0	0	969.8	NA	0.0000	-SN BR	9999	9740	0	0	0
2019/09/19 23:35:00	BASE	14.40	43	22.17	30	-0.5	95	-1.2	0	0	969.9	NA	0.0000	-SN BR	9999	9290	0	0	0
2019/09/19 23:36:00	BASE	13.12	43	22.17	30	-0.5	95	-1.2	0	0	969.9	NA	0.0000	-SN BR	9999	9290	0	0	0
2019/09/19 23:37:00	BASE	13.21	43	22.17	30	-0.5	94	-1.3	0	0	969.9	NA	0.0000	-SN BR	9999	8400	9320	0	0
2019/09/19 23:38:00	BASE	13.74	45	22.17	30	-0.5	94	-1.4	0	0	969.9	NA	0.0000	-SN BR	9999	8500	9320	0	0
2019/09/19 23:39:00	BASE	12.89	46	22.17	30	-0.5	93	-1.5	0	0	970.0	NA	0.0000	-SN	9999	8270	9320	0	0
2019/09/19 23:40:00	BASE	11.86	48	20.01	42	-0.5	93	-1.6	0	0	969.9	NA	0.0000	-SN	9999	8240	0	0	0
2019/09/19 23:41:00	BASE	12.74	48	17.08	31	-0.5	92	-1.6	0	0	969.9	NA	0.0000	-SN	9999	8300	0	0	0
2019/09/19 23:42:00	BASE	12.13	43	17.08	31	-0.5	91	-1.7	0	0	970.0	NA	0.0000	-SN	9999	9220	0	0	0
2019/09/19 23:43:00	BASE	10.94	46	16.87	42	-0.5	91	-1.8	0	0	970.0	NA	0.0000	-SN	9999	8040	9250	0	0
2019/09/19 23:44:00	BASE	11.67	55	16.87	42	-0.5	90	-1.9	0	0	970.0	NA	0.0000	-SN	9999	9220	0	0	0
2019/09/19 23:45:00	BASE	12.00	60	16.87	42	-0.5	90	-1.9	0	0	970.0	NA	0.0000	-SN	9999	9220	0	0	0
2019/09/19 23:46:00	BASE	11.91	66	16.87	42	-0.5	90	-2.0	0	0	970.0	NA	0.0000	-SN	9999	7870	9250	0	0
2019/09/19 23:47:00	BASE	11.62	69	16.87	42	-0.5	90	-2.0	0	0	970.0	NA	0.0000	-SN	9999	7810	0	0	0
2019/09/19 23:48:00	BASE	11.18	64	16.98	68	-0.5	89	-2.1	0	0	970.0	NA	0.0000	-SN	9999	7780	0	0	0
2019/09/19 23:49:00	BASE	11.40	70	16.98	68	-0.5	89	-2.1	0	0	970.0	NA	0.0000		9999	7680	0	0	0
2019/09/19 23:50:00	BASE	12.26	75	16.98	68	-0.5	88	-2.2	0	0	970.0	NA	0.0000		9999	7970	0	0	0
2019/09/19 23:51:00	BASE	11.89	73	16.98	68	-0.4	88	-2.2	0	0	970.0	NA	0.0000		9999	8100	0	0	0
2019/09/19 23:52:00	BASE	9.58	75	16.98	68	-0.4	87	-2.3	0	0	970.1	NA	0.0000		9999	6560	8070	0	0
2019/09/19 23:53:00	BASE	10.34	70	16.98	68	-0.4	87	-2.3	0	0	969.9	NA	0.0000		9999	8170	0	0	0
2019/09/19 23:54:00	BASE	11.45	62	16.98	68	-0.4	87	-2.4	0	0	969.9	NA	0.0000		9999	8370	0	0	0
2019/09/19 23:55:00	BASE	11.10	56	16.98	68	-0.4	86	-2.4	0	0	969.9	NA	0.0000		9999	8270	0	0	0
2019/09/19 23:56:00	BASE	11.20	59	16.98	68	-0.4	86	-2.5	0	0	969.9	NA	0.0000		9999	8370	0	0	0
2019/09/19 23:57:00	BASE	9.90	63	16.98	68	-0.4	86	-2.5	0	0	969.9	NA	0.0000		9999	8400	0	0	0
2019/09/19 23:58:00	BASE	8.49	57	15.84	57	-0.4	85	-2.6	0	0	969.9	NA	0.0000		9999	8330	0	0	0
2019/09/19 23:59:00	BASE	8.62	54	15.84	57	-0.4	85	-2.6	0	0	969.9	NA	0.0000	-SN	9999	8270	0	0	0